[[{"header":{"parameterUnit":"m.s-1","parameterCategory":1,"la1":31.0,"la2":29.5877,"lo1":-88.7671,"lo2":-86.6584,"dy":0.0162,"dx":0.0185,"nx":115,"ny":88,"refTime":"2023-10-07T00:00:00:Z","depth":0,"parameterNumber":2,"parameterNumberName":"U-component_of_WINDS"},"data":[0.0,0.0,0.0,0.0,0.0,0.0,0.0,0.0,0.0,0.0,0.0,0.0,0.0,0.0,0.0,0.0,0.0,0.0,0.0,0.0,0.0,0.0,0.0,0.0,0.0,0.0,0.0,0.0,0.0,0.0,0.0,0.0,0.0,0.0,0.0,0.0,0.0,0.0,0.0,0.0,0.0,0.0,0.0,0.0,0.0,0.0,0.0,0.0,0.0,0.0,0.0,0.0,0.0,0.0,0.0,0.0,0.0,0.0,0.0,0.0,0.0,0.0,0.0,0.0,0.0,0.0,0.0,0.0,0.0,0.0,0.0,0.0,0.0,0.0,0.0,0.0,0.0,0.0,0.0,0.0,0.0,0.0,0.0,0.0,0.0,0.0,0.0,0.0,0.0,0.0,0.0,0.0,0.0,0.0,0.0,0.0,0.0,0.0,0.0,0.0,0.0,0.0,0.0,0.0,0.0,0.0,0.0,0.0,0.0,0.0,0.0,0.0,0.0,0.0,0.0,0.0,0.0,0.0,0.0,0.0,0.0,0.0,0.0,0.0,0.0,0.0,0.0,0.0,0.0,0.0,0.0,0.0,0.0,0.0,0.0,0.0,0.0,0.0,0.0,0.0,0.0,0.0,0.0,0.0,0.0,0.0,0.0,0.0,0.0,0.0,0.0,0.0,0.0,0.0,0.0,0.0,0.0,0.0,0.0,0.0,0.0,0.0,0.0,0.0,0.0,0.0,0.0,0.0,0.0,0.0,0.0,0.0,0.0,0.0,0.0,0.0,0.0,0.0,0.0,0.0,0.0,0.0,0.0,0.0,0.0,0.0,0.0,0.0,0.0,0.0,0.0,0.0,0.0,0.0,0.0,0.0,0.0,0.0,0.0,0.0,0.0,0.0,0.0,0.0,0.0,0.0,0.0,0.0,0.0,0.0,0.0,0.0,0.0,0.0,0.0,0.0,0.0,0.0,0.0,0.0,0.0,0.0,0.0,0.0,0.0,0.0,0.0,0.0,0.0,0.0,0.0,0.0,0.0,0.0,0.0,0.0,0.0,0.0,0.0,0.0,0.0,0.0,0.0,0.0,0.0,0.0,0.0,0.0,0.0,0.0,0.0,0.0,0.0,0.0,0.0,0.0,0.0,0.0,0.0,0.0,0.0,0.0,0.0,0.0,0.0,0.0,0.0,0.0,0.0,0.0,0.0,0.0,0.0,0.0,0.0,0.0,0.0,0.0,0.0,0.0,0.0,0.0,0.0,0.0,0.0,0.0,0.0,0.0,0.0,0.0,0.0,0.0,0.0,0.0,0.0,0.0,0.0,0.0,0.0,0.0,0.0,0.0,0.0,0.0,0.0,0.0,0.0,0.0,0.0,0.0,0.0,0.0,0.0,0.0,0.0,0.0,0.0,0.0,0.0,0.0,0.0,0.0,0.0,0.0,0.0,0.0,0.0,0.0,0.0,0.0,0.0,0.0,0.0,0.0,0.0,0.0,0.0,0.0,0.0,0.0,0.0,0.0,0.0,0.0,0.0,0.0,0.0,0.0,0.0,0.0,0.0,0.0,0.0,0.0,0.0,0.0,0.0,0.0,0.0,0.0,0.0,0.0,0.0,0.0,0.0,0.0,0.0,0.0,0.0,0.0,0.0,0.0,0.0,0.0,0.0,0.0,0.0,0.0,0.0,0.0,0.0,0.0,0.0,0.0,0.0,0.0,0.0,0.0,0.0,0.0,0.0,0.0,0.0,0.0,0.0,0.0,0.0,0.0,0.0,0.0,0.0,0.0,0.0,0.0,0.0,0.0,0.0,0.0,0.0,0.0,0.0,0.0,0.0,0.0,0.0,0.0,0.0,0.0,0.0,0.0,0.0,0.0,0.0,0.0,0.0,0.0,0.0,0.0,0.0,0.0,0.0,0.0,0.0,0.0,0.0,0.0,0.0,0.0,0.0,0.0,0.0,0.0,0.0,0.0,0.0,0.0,0.0,0.0,0.0,0.0,0.0,0.0,0.0,0.0,0.0,0.0,0.0,0.0,0.0,0.0,0.0,0.0,0.0,0.0,0.0,0.0,0.0,0.0,0.0,0.0,0.0,0.0,0.0,0.0,0.0,0.0,0.0,0.0,0.0,0.0,0.0,0.0,0.0,0.0,0.0,0.0,0.0,0.0,0.0,0.0,0.0,0.0,0.0,0.0,0.0,0.0,0.0,0.0,0.0,0.0,0.0,0.0,0.0,0.0,0.0,0.0,0.0,0.0,0.0,0.0,0.0,0.0,0.0,0.0,0.0,0.0,0.0,0.0,0.0,0.0,0.0,0.0,0.0,0.0,0.0,0.0,0.0,0.0,0.0,0.0,0.0,0.0,0.0,0.0,0.0,0.0,0.0,0.0,0.0,0.0,0.0,0.0,0.0,0.0,0.0,0.0,0.0,0.0,0.0,0.0,0.0,0.0,0.0,0.0,0.0,0.0,0.0,0.0,0.0,0.0,0.0,0.0,0.0,0.0,0.0,0.0,0.0,0.0,0.0,0.0,0.0,0.0,0.0,0.0,0.0,0.0,0.0,0.0,0.0,0.0,0.0,0.0,0.0,0.0,0.0,0.0,0.0,0.0,0.0,0.0,0.0,0.0,0.0,0.0,0.0,0.0,0.0,0.0,0.0,0.0,0.0,0.0,0.0,0.0,0.0,0.0,0.0,0.0,0.0,0.0,0.0,0.0,0.0,0.0,0.0,0.0,0.0,0.0,0.0,0.0,0.0,0.0,0.0,0.0,0.0,0.0,0.0,0.0,0.0,0.0,0.0,0.0,0.0,0.0,0.0,0.0,0.0,0.0,0.0,0.0,0.0,0.0,0.0,0.0,0.0,0.0,0.0,0.0,0.0,0.0,0.0,0.0,0.0,0.0,0.0,0.0,0.0,0.0,0.0,0.0,0.0,0.0,0.0,0.0,0.0,0.0,0.0,0.0,0.0,0.0,0.0,0.0,0.0,0.0,0.0,0.0,0.0,0.0,0.0,0.0,0.0,0.0,0.0,0.0,0.0,0.0,0.0,0.0,0.0,0.0,0.0,0.0,0.0,0.0,0.0,0.0,0.0,0.0,0.0,0.0,0.0,0.0,0.0,0.0,0.0,0.0,0.0,0.0,0.0,0.0,0.0,0.0,0.0,0.0,0.0,0.0,0.0,0.0,0.0,0.0,0.0,0.0,0.0,0.0,0.0,0.0,0.0,0.0,0.0,0.0,0.0,0.0,0.0,0.0,0.0,0.0,0.0,0.0,0.0,0.0,0.0,0.0,0.0,0.0,0.0,0.0,0.0,0.0,0.0,0.0,0.0,0.0,0.0,0.0,0.0,0.0,0.0,0.0,0.0,0.0,0.0,0.0,0.0,0.0,0.0,0.0,0.0,0.0,0.0,0.0,0.0,0.0,0.0,0.0,0.0,0.0,0.0,0.0,0.0,0.0,0.0,0.0,0.0,0.0,0.0,0.0,0.0,0.0,0.0,0.0,0.0,0.0,0.0,0.0,0.0,0.0,0.0,0.0,0.0,0.0,0.0,0.0,0.0,0.0,0.0,0.0,0.0,0.0,0.0,0.0,0.0,0.0,0.0,0.0,0.0,0.0,0.0,0.0,0.0,0.0,0.0,0.0,0.0,0.0,0.0,0.0,0.0,0.0,0.0,0.0,0.0,0.0,0.0,0.0,0.0,0.0,0.0,0.0,0.0,0.0,0.0,0.0,0.0,0.0,0.0,0.0,0.0,0.0,0.0,0.0,0.0,0.0,0.0,0.0,0.0,0.0,0.0,0.0,0.0,0.0,0.0,0.0,0.0,0.0,0.0,0.0,0.0,0.0,0.0,0.0,0.0,0.0,0.0,0.0,0.0,0.0,0.0,0.0,0.0,0.0,0.0,0.0,0.0,0.0,0.0,0.0,0.0,0.0,0.0,0.0,0.0,0.0,0.0,0.0,0.0,0.0,0.0,0.0,0.0,0.0,0.0,0.0,0.0,0.0,0.0,0.0,0.0,0.0,0.0,0.0,0.0,0.0,0.0,0.0,0.0,0.0,0.0,0.0,0.0,0.0,0.0,0.0,0.0,0.0,0.0,0.0,0.0,0.0,0.0,0.0,0.0,0.0,0.0,0.0,0.0,0.0,0.0,0.0,0.0,0.0,0.0,0.0,0.0,0.0,0.0,0.0,0.0,0.0,0.0,0.0,0.0,0.0,0.0,0.0,0.0,0.0,0.0,0.0,0.0,0.0,0.0,0.0,0.0,0.0,0.0,0.0,-0.3996,0.0,0.0,0.0,0.0,0.0,0.0,0.0,0.0,0.0,0.0,0.0,0.0,0.0,0.0,0.0,0.0,0.0,0.0,0.0,0.0,0.0,0.0,0.0,0.0,0.0,0.0,0.0,0.0,0.0,0.0,0.0,0.0,0.0,0.0,0.0,0.0,0.0,0.0,0.0,0.0,0.0,0.0,0.0,0.0,0.0,0.0,0.0,0.0,0.0,0.0,0.0,0.0,0.0,0.0,0.0,0.0,0.0,0.0,0.0,0.0,0.0,0.0,0.0,0.0,0.0,0.0,0.0,0.0,0.0,0.0,0.0,0.0,0.0,0.0,0.0,0.0,0.0,0.0,0.0,0.0,0.0,0.0,0.0,0.0,0.0,0.0,0.0,0.0,0.0,0.0,0.0,0.0,0.0,0.0,0.0,0.0,0.0,0.0,0.0,0.0,0.0,0.0,0.0,0.0,0.0,0.0,0.0,0.0,0.0,0.0,-0.4477,-0.447,-0.4341,-0.4195,-0.3993,0.0,0.0,0.0,0.0,0.0,0.0,0.0,0.0,0.0,0.0,0.0,0.0,0.0,0.0,0.0,0.0,0.0,0.0,0.0,0.0,0.0,0.0,0.0,0.0,0.0,0.0,0.0,0.0,0.0,0.0,0.0,0.0,0.0,0.0,0.0,0.0,0.0,0.0,0.0,0.0,0.0,0.0,0.0,0.0,0.0,0.0,0.0,0.0,0.0,0.0,0.0,0.0,0.0,0.0,0.0,0.0,0.0,0.0,0.0,0.0,0.0,0.0,0.0,0.0,0.0,0.0,0.0,0.0,0.0,0.0,0.0,0.0,0.0,0.0,0.0,0.0,0.0,0.0,0.0,0.0,0.0,0.0,0.0,0.0,0.0,0.0,0.0,0.0,0.0,0.0,0.0,0.0,0.0,0.0,0.0,0.0,0.0,0.0,0.0,0.0,0.0,0.0,0.0,0.0,0.0,0.0,0.0,0.0,0.0,0.0,0.0,0.0,-0.3941,-0.3824,-0.3497,0.0,0.0,0.0,0.0,0.0,0.0,0.0,0.0,0.0,0.0,0.0,0.0,0.0,0.0,0.0,0.0,0.0,0.0,0.0,0.0,0.0,0.0,0.0,0.0,0.0,0.0,0.0,0.0,0.0,0.0,0.0,0.0,0.0,0.0,0.0,0.0,0.0,0.0,0.0,0.0,0.0,0.0,0.0,0.0,0.0,0.0,0.0,0.0,0.0,0.0,0.0,0.0,0.0,0.0,0.0,0.0,0.0,0.0,0.0,0.0,0.0,0.0,0.0,0.0,0.0,0.0,0.0,0.0,0.0,0.0,0.0,0.0,0.0,0.0,0.0,0.0,0.0,0.0,0.0,0.0,0.0,0.0,0.0,0.0,0.0,0.0,0.0,0.0,0.0,0.0,0.0,0.0,0.0,0.0,0.0,0.0,0.0,0.0,0.0,0.0,0.0,0.0,0.0,0.0,0.0,0.0,0.0,0.0,0.0,0.0,-0.3811,-0.2452,-0.2387,0.0,-0.2019,0.0,0.0,0.0,0.0,0.0,0.0,0.0,0.0,0.0,0.0,0.0,0.0,0.0,0.0,0.0,0.0,0.0,0.0,0.0,0.0,0.0,0.0,0.0,0.0,0.0,0.0,0.0,0.0,0.0,0.0,0.0,0.0,0.0,0.0,0.0,0.0,0.0,0.0,0.0,0.0,0.0,0.0,0.0,0.0,0.0,0.0,0.0,0.0,0.0,0.0,0.0,0.0,0.0,0.0,0.0,0.0,0.0,0.0,0.0,0.0,0.0,0.0,0.0,0.0,0.0,0.0,0.0,0.0,0.0,0.0,0.0,0.0,0.0,0.0,0.0,0.0,0.0,0.0,0.0,0.0,0.0,0.0,0.0,0.0,0.0,0.0,0.0,0.0,0.0,0.0,0.0,0.0,0.0,0.0,0.0,0.0,0.0,0.0,0.0,0.0,0.0,0.0,0.0,0.0,0.0,0.0,0.0,0.0,0.0,0.0,-0.4169,-0.3591,-0.1841,-0.1691,0.0,0.0,0.0,0.0,0.0,0.0,0.0,0.0,0.0,0.0,0.0,0.0,0.0,0.0,0.0,0.0,0.0,0.0,0.0,0.0,0.0,0.0,0.0,0.0,0.0,0.0,0.0,0.0,0.0,0.0,0.0,0.0,0.0,0.0,0.0,0.0,0.0,0.0,0.0,0.0,0.0,0.0,0.0,0.0,0.0,0.0,0.0,0.0,0.0,0.0,0.0,0.0,0.0,0.0,0.0,0.0,0.0,0.0,0.0,0.0,0.0,0.0,0.0,0.0,0.0,0.0,0.0,0.0,0.0,0.0,0.0,0.0,0.0,0.0,0.0,0.0,0.0,0.0,0.0,0.0,0.0,0.0,0.0,0.0,0.0,0.0,0.0,0.0,0.0,0.0,0.0,0.0,0.0,0.0,0.0,0.0,0.0,0.0,0.0,0.0,0.0,0.0,0.0,0.0,0.0,0.0,0.0,0.0,0.0,0.0,-0.2133,-0.3266,-0.3142,-0.0325,0.0213,-0.194,0.0,0.0,0.0,0.0,0.0,0.0,0.0,0.0,0.0,0.0,0.0,0.0,0.0,0.0,0.0,0.0,0.0,0.0,0.0,0.0,0.0,0.0,0.0,0.0,0.0,0.0,0.0,0.0,0.0,0.0,0.0,0.0,0.0,0.0,0.0,0.0,0.0,0.0,0.0,0.0,0.0,0.0,0.0,0.0,0.0,0.0,0.0,0.0,0.0,0.0,0.0,0.0,0.0,0.0,0.0,0.0,0.0,0.0,0.0,0.0,0.0,0.0,0.0,0.0,0.0,0.0,0.0,0.0,0.0,0.0,0.0,0.0,0.0,0.0,0.0,0.0,0.0,0.0,0.0,0.0,0.0,0.0,0.0,0.0,0.0,0.0,0.0,0.0,0.0,0.0,0.0,0.0,0.0,0.0,0.0,0.0,0.0,0.0,0.0,0.0,0.0,0.0,0.0,0.0,0.0,0.0,0.0,0.0,-0.0,-0.0112,-0.0224,-0.0224,0.2715,0.4244,0.0,0.0,0.0,0.0,0.0,0.0,0.0,0.0,0.0,0.0,0.0,0.0,0.0,0.0,0.0,0.0,0.0,0.0,0.0,0.0,0.0,0.0,0.0,0.0,0.0,0.0,0.0,0.0,0.0,0.0,0.0,0.0,0.0,0.0,0.0,0.0,0.0,0.0,0.0,0.0,0.0,0.0,0.0,0.0,0.0,0.0,0.0,0.0,0.0,0.0,0.0,0.0,0.0,0.0,0.0,0.0,0.0,0.0,0.0,0.0,0.0,0.0,0.0,0.0,0.0,0.0,0.0,0.0,0.0,0.0,0.0,0.0,0.0,0.0,0.0,0.0,0.0,0.0,0.0,0.0,0.0,0.0,0.0,0.0,0.0,0.0,0.0,0.0,0.0,0.0,0.0,0.0,0.0,0.0,0.0,0.0,0.0,0.0,0.0,0.0,0.0,0.0,0.0,0.0,0.0,0.0,0.0,0.0,0.0,0.1397,0.1396,0.0949,0.0112,0.1988,0.3492,0.0,0.0,0.0,0.0,0.0,0.0,0.0,0.0,0.0,0.0,0.0,0.0,0.0,0.0,0.0,0.0,0.0,0.0,0.0,0.0,0.0,0.0,0.0,0.0,0.0,0.0,0.0,0.0,0.0,0.0,0.0,0.0,0.0,0.0,0.0,0.0,0.0,0.0,0.0,0.0,0.0,0.0,0.0,0.0,0.0,0.0,0.0,0.0,0.0,0.0,0.0,0.0,0.0,0.0,0.0,0.0,0.0,0.0,0.0,0.0,0.0,0.0,0.0,0.0,0.0,0.0,0.0,0.0,0.0,0.0,0.0,0.0,0.0,0.0,0.0,0.0,0.0,0.0,0.0,0.0,0.0,0.0,0.0,0.0,0.0,0.0,0.0,0.0,0.0,0.0,0.0,0.0,0.0,0.0,0.0,0.0,0.0,0.0,0.0,0.0,0.0,0.0,0.0,0.0,0.0,0.0,0.0,0.0,0.0,0.2963,0.0,0.2458,0.1564,0.2399,0.3469,0.0,0.0,0.0,0.0,0.0,0.0,0.0,0.0,0.0,0.0,0.0,0.0,0.0,0.0,0.0,0.0,0.0,0.0,0.0,0.0,0.0,0.0,0.0,0.0,0.0,0.0,0.0,0.0,0.0,0.0,0.0,0.0,0.0,0.0,0.0,0.0,0.0,0.0,0.0,0.0,0.0,0.0,0.0,0.0,0.0,0.0,0.0,0.0,0.0,0.0,0.0,0.0,0.0,0.0,0.0,0.0,0.0,0.0,0.0,0.0,0.0,0.0,0.0,0.0,0.0,0.0,0.0,0.0,0.0,0.0,0.0,0.0,0.0,0.0,0.0,0.0,0.0,0.0,0.0,0.0,0.0,0.0,0.0,0.0,0.0,0.0,0.0,0.0,0.0,0.0,0.0,0.0,0.0,0.0,0.0,0.0,0.0,0.0,0.0,0.0,0.0,0.0,0.0,0.0,0.0,0.0,0.0,0.0,0.4438,0.4438,0.4438,0.4379,0.4442,0.4373,0.4477,0.0,0.0,0.0,0.0,0.0,0.0,0.0,0.0,0.0,0.0,0.0,0.0,0.0,0.0,0.0,0.0,0.0,0.0,0.0,0.0,0.0,0.0,0.0,0.0,0.0,0.0,0.0,0.0,0.0,0.0,0.0,0.0,0.0,0.0,0.0,0.0,0.0,0.0,0.0,0.0,0.0,0.0,0.0,0.0,0.0,0.0,0.0,0.0,0.0,0.0,0.0,0.0,0.0,0.0,0.0,0.0,0.0,0.0,0.0,0.0,0.0,0.0,0.0,0.0,0.0,0.0,0.0,0.0,0.0,0.0,0.0,0.0,0.0,0.0,0.0,0.0,0.0,0.0,0.0,0.0,0.0,0.0,0.0,0.0,0.0,0.0,0.0,0.0,0.0,0.0,0.0,0.0,0.0,0.0,0.0,0.0,0.0,0.0,0.0,0.0,0.0,0.0,0.0,0.0,0.0,0.0,0.0,0.0,0.0,0.4473,0.4473,0.4477,0.4484,0.4473,0.447,0.0,0.0,0.0,0.0,0.0,0.0,0.0,0.0,0.0,0.0,0.0,0.0,0.0,0.0,0.0,0.0,0.0,0.0,0.0,0.0,0.0,0.0,0.0,0.0,0.0,0.0,0.0,0.0,0.0,0.0,0.0,0.0,0.0,0.0,0.0,0.0,0.0,0.0,0.0,0.0,0.0,0.0,0.0,0.0,0.0,0.0,0.0,0.0,0.0,0.0,0.0,0.0,0.0,0.0,0.0,0.0,0.0,0.0,0.0,0.0,0.0,0.0,0.0,0.0,0.0,0.0,0.0,0.0,0.0,0.0,0.0,0.0,0.0,0.0,0.0,0.0,0.0,0.0,0.0,0.0,0.0,0.0,0.0,0.0,0.0,0.0,0.0,0.0,0.0,0.0,0.0,0.0,0.0,0.0,0.0,0.0,0.0,0.0,0.0,0.0,0.0,0.0,0.0,0.0,0.0,0.0,0.0,0.0,0.0,0.4545,0.4548,0.4551,0.4558,0.4608,0.4524,0.4532,0.0,0.0,0.0,0.0,0.0,0.0,0.0,0.0,0.0,0.0,0.0,0.0,0.0,0.0,0.0,0.0,0.0,0.0,0.0,0.0,0.0,0.0,0.0,0.0,0.0,0.0,0.0,0.0,0.0,0.0,0.0,0.0,0.0,0.0,0.0,0.0,0.0,0.0,0.0,0.0,0.0,0.0,0.0,0.0,0.0,0.0,0.0,0.0,0.0,0.0,0.0,0.0,0.0,0.0,0.0,0.0,0.0,0.0,0.0,0.0,0.0,0.0,0.0,0.0,0.0,0.0,0.0,0.0,0.0,0.0,0.0,0.0,0.0,0.0,0.0,0.0,0.0,0.0,0.0,0.0,0.0,0.0,0.0,0.0,0.0,0.0,0.0,0.0,0.0,0.0,0.0,0.0,0.0,0.0,0.0,0.0,0.0,0.0,0.0,0.0,0.0,0.0,0.0,0.0,0.0,0.0,0.0,0.0,0.4704,0.4773,0.4769,0.4704,0.4694,0.4626,0.0,0.0,0.0,0.0,0.0,0.0,0.0,0.0,0.0,0.0,0.0,0.0,0.0,0.0,0.0,0.0,0.0,0.0,0.0,0.0,0.0,0.0,0.0,0.0,0.0,0.0,0.0,0.0,0.0,0.0,0.0,0.0,0.0,0.0,0.0,0.0,0.0,0.0,0.0,0.0,0.0,0.0,0.0,0.0,0.0,0.0,0.0,0.0,0.0,0.0,0.0,0.0,0.0,0.0,0.0,0.0,0.0,0.0,0.0,0.0,0.0,0.0,0.0,0.0,0.0,0.0,0.0,0.0,0.0,0.0,0.0,0.0,0.0,0.0,0.0,0.0,0.0,0.0,0.0,0.0,0.0,0.0,0.0,0.0,0.0,0.0,0.0,0.0,0.0,0.0,0.0,0.0,0.0,0.0,0.0,0.0,0.0,0.0,0.0,0.0,0.0,0.0,0.0,0.0,0.0,0.0,0.0,0.0,0.0,0.504,0.5632,0.5632,0.4863,0.4748,0.4674,0.0,0.0,0.0,0.0,0.0,0.0,0.0,0.0,0.0,0.0,0.0,0.0,0.0,0.0,0.0,0.0,0.0,0.0,0.0,0.0,0.0,0.0,0.0,0.0,0.0,0.0,0.0,0.0,0.0,0.0,0.0,0.0,0.0,0.0,0.0,0.0,0.0,0.0,0.0,0.0,0.0,0.0,0.0,0.0,0.0,0.0,0.0,0.0,0.0,0.0,0.0,0.0,0.0,0.0,0.0,0.0,0.0,0.0,0.0,0.0,0.0,0.0,0.0,0.0,0.0,0.0,0.0,0.0,0.0,0.0,0.0,0.0,0.0,0.0,0.0,0.0,0.0,0.0,0.0,0.0,0.0,0.0,0.0,0.0,0.0,0.0,0.0,0.0,0.0,0.0,0.0,0.0,0.0,0.0,0.0,0.0,0.0,0.0,0.0,0.0,0.0,0.0,0.0,0.0,0.0,0.0,0.0,0.0,0.5478,0.5832,0.6621,0.6831,0.6224,0.5607,0.5448,0.0,0.0,0.0,0.0,0.0,0.0,0.0,0.0,0.0,0.0,0.0,0.0,0.0,0.0,0.0,0.0,0.0,0.0,0.0,0.0,0.0,0.0,0.0,0.0,0.0,0.0,0.0,0.0,0.0,0.0,0.0,0.0,0.0,0.0,0.0,0.0,0.0,0.0,0.0,0.0,0.0,0.0,0.0,0.0,0.0,0.0,0.0,0.0,0.0,0.0,0.0,0.0,0.0,0.0,0.0,0.0,0.0,0.0,0.0,0.0,0.0,0.0,0.0,0.0,0.0,0.0,0.0,0.0,0.0,0.0,0.0,0.0,0.0,0.0,0.0,0.0,0.0,0.0,0.0,0.0,0.0,0.0,0.0,0.0,0.0,0.0,0.0,0.0,0.0,0.0,0.0,0.0,0.0,0.0,0.0,0.0,0.0,0.0,0.0,0.0,0.0,0.0,0.0,0.0,0.0,0.0,0.0,0.0,0.6602,0.7205,0.7823,0.8156,0.8076,0.6974,0.6556,0.0,0.0,0.0,0.0,0.0,0.0,0.0,0.0,0.0,0.0,0.0,0.0,0.0,0.0,0.0,0.0,0.0,0.0,0.0,0.0,0.0,0.0,0.0,0.0,0.0,0.0,0.0,0.0,0.0,0.0,0.0,0.0,0.0,0.0,0.0,0.0,0.0,0.0,0.0,0.0,0.0,0.0,0.0,0.0,0.0,0.0,0.0,0.0,0.0,0.0,0.0,0.0,0.0,0.0,0.0,0.0,0.0,0.0,0.0,0.0,0.0,0.0,0.0,0.0,0.0,0.0,0.0,0.0,0.0,0.0,0.0,0.0,0.0,0.0,0.0,0.0,0.0,0.0,0.0,0.0,0.0,0.0,0.0,0.0,0.0,0.0,0.0,0.0,0.0,0.0,0.0,0.0,0.0,0.0,0.0,0.0,0.0,0.0,0.0,0.0,0.0,0.0,0.0,0.0,0.0,0.0,0.0,0.0,0.7969,0.971,0.9289,0.9011,0.9011,0.7772,0.7146,0.0,0.0,0.0,0.0,0.0,0.0,0.0,0.0,0.0,0.0,0.0,0.0,0.0,0.0,0.0,0.0,0.0,0.0,0.0,0.0,0.0,0.0,0.0,0.0,0.0,0.0,0.0,0.0,0.0,0.0,0.0,0.0,0.0,0.0,0.0,0.0,0.0,0.0,0.0,0.0,0.0,0.0,0.0,0.0,0.0,0.0,0.0,0.0,0.7007,0.0,0.0,0.0,0.0,0.0,0.0,0.0,0.0,0.0,0.0,0.0,0.0,0.0,0.0,0.0,0.0,0.0,0.0,0.0,0.0,0.0,0.0,0.0,0.0,0.0,0.0,0.0,0.0,0.0,0.0,0.0,0.0,0.0,0.0,0.0,0.0,0.0,0.0,0.0,0.0,0.0,0.0,0.0,0.0,0.0,0.0,0.0,0.0,0.0,0.0,0.0,0.0,0.0,0.0,0.0,0.0,0.0,0.0,0.0,0.8783,1.0492,1.0153,0.9913,0.9837,0.8678,0.8115,0.0,0.0,0.0,0.0,0.0,0.0,0.0,0.0,0.0,0.0,0.0,0.0,0.0,0.0,0.0,0.0,0.0,0.0,0.0,0.0,0.0,0.0,0.0,0.0,0.0,0.0,0.0,0.0,0.0,0.0,0.0,0.0,0.0,0.0,0.0,0.0,0.0,0.0,0.0,0.0,0.0,0.0,0.0,0.0,0.0,0.0,0.0,0.0,0.0,0.0,0.0,0.0,0.0,0.0,0.0,0.0,0.0,0.0,0.0,0.0,0.0,0.0,0.0,0.0,0.0,0.0,0.0,0.0,0.0,0.0,0.0,0.0,0.0,0.0,0.0,0.0,0.0,0.0,0.0,0.0,0.0,0.0,0.0,0.0,0.0,0.0,0.0,0.0,0.0,0.0,0.0,0.0,0.0,0.0,0.0,0.0,0.0,0.0,0.0,0.0,0.0,0.0,0.0,0.0,0.0,0.0,0.0,0.8132,0.9339,1.0547,1.06,1.0618,1.0555,0.9569,0.9234,0.9635,0.0,0.0,0.0,0.0,0.0,0.0,0.0,0.0,0.0,0.0,0.0,0.0,0.0,0.0,0.0,0.0,0.0,0.0,0.0,0.0,0.0,0.0,0.0,0.0,0.0,0.0,0.0,0.0,0.0,0.0,0.0,0.0,0.0,0.0,0.0,0.0,0.0,0.0,0.6996,0.7054,0.0,0.0,0.0,0.0,0.0,0.0,0.0,0.0,0.7288,0.0,0.0,0.0,0.0,0.0,0.0,0.0,0.0,0.0,0.0,0.0,0.0,0.0,0.0,0.0,0.0,0.0,0.0,0.0,0.0,0.0,0.0,0.0,0.0,0.0,0.0,0.0,0.0,0.0,0.0,0.0,0.0,0.0,0.0,0.0,0.0,0.0,0.0,0.0,0.0,0.0,0.0,0.0,0.0,0.0,0.0,0.0,0.0,0.0,0.0,0.0,0.0,0.0,0.0,0.0,0.0,0.8415,0.9157,0.9887,1.0557,1.0604,1.0618,1.0611,1.0144,0.9854,0.9635,0.0,0.0,0.0,0.0,0.0,0.0,0.0,0.0,0.0,0.0,0.0,0.0,0.0,0.0,0.0,0.0,0.0,0.0,0.0,0.0,0.0,0.0,0.0,0.0,0.0,0.0,0.0,0.0,0.0,0.0,0.0,0.0,0.0,0.0,0.0,0.0,0.0,0.0,0.0,0.7181,0.7128,0.0,0.0,0.0,0.0,0.0,0.0,0.0,0.0,0.7668,0.0,0.0,0.0,0.0,0.0,0.0,0.0,0.0,0.0,0.0,0.0,0.0,0.0,0.0,0.0,0.0,0.0,0.0,0.0,0.0,0.0,0.0,0.0,0.0,0.0,0.0,0.0,0.0,0.0,0.0,0.0,0.0,0.0,0.0,0.0,0.0,0.0,0.0,0.0,0.0,0.0,0.0,0.0,0.0,0.0,0.0,0.0,0.0,0.0,0.0,0.0,0.0,0.0,0.0,0.0,0.8823,0.9505,1.012,1.0604,1.0618,1.0618,1.0548,0.9822,0.9487,0.0,0.0,0.0,0.0,0.0,0.0,0.0,0.0,0.0,0.0,0.0,0.0,0.0,0.0,0.0,0.0,0.0,0.0,0.0,0.0,0.0,0.0,0.0,0.0,0.0,0.0,0.0,0.0,0.0,0.0,0.0,0.0,0.0,0.0,0.0,0.0,0.0,0.0,0.0,0.0,0.7385,0.7368,0.7662,0.0,0.0,0.0,0.0,0.0,0.0,0.8498,0.8526,0.0,0.0,0.0,0.0,0.0,0.0,0.0,0.0,0.0,0.0,0.0,0.0,0.0,0.0,0.0,0.0,0.0,0.0,0.0,0.0,0.0,0.0,0.0,0.0,0.0,0.0,0.0,0.0,0.0,0.0,0.0,0.0,0.0,0.0,0.0,0.0,0.0,0.0,0.0,0.0,0.0,0.0,0.0,0.0,0.0,0.0,0.0,0.0,0.0,0.0,0.0,0.0,0.0,0.0,0.0,0.9028,0.9701,1.0261,1.0541,1.0618,1.0618,1.0548,0.9574,0.9238,0.0,0.0,0.0,0.0,0.0,0.0,0.0,0.0,0.0,0.0,0.0,0.0,0.0,0.0,0.0,0.0,0.0,0.0,0.0,0.0,0.0,0.0,0.0,0.0,0.0,0.0,0.0,0.0,0.0,0.0,0.0,0.0,0.0,0.0,0.0,0.0,0.0,0.0,0.0,0.0,0.0,0.7847,0.8198,0.8385,0.0,0.0,0.0,0.0,0.9224,0.9377,0.0,0.0,0.0,0.0,0.0,0.0,0.0,0.0,0.0,0.0,0.0,0.0,0.0,0.0,0.0,0.0,0.0,0.0,0.0,0.0,0.0,0.0,0.0,0.0,0.0,0.0,0.0,0.0,0.0,0.0,0.0,0.0,0.0,0.0,0.0,0.0,0.0,0.0,0.0,0.0,0.0,0.0,0.0,0.0,0.0,0.0,0.0,0.0,0.0,0.0,0.0,0.0,0.0,0.0,0.0,0.0,0.9608,0.9907,1.0261,1.0604,1.0618,1.0618,1.0611,0.996,0.9655,0.0,0.0,0.0,0.0,0.0,0.0,0.0,0.0,0.0,0.0,0.0,0.0,0.0,0.0,0.0,0.0,0.0,0.0,0.0,0.0,0.0,0.0,0.0,0.0,0.0,0.0,0.0,0.0,0.0,0.0,0.0,0.0,0.0,0.0,0.0,0.0,0.0,0.0,0.0,0.0,0.0,0.8639,0.938,0.9302,0.9169,0.0,0.0,0.9682,0.9629,0.9993,0.0,0.0,0.0,0.0,0.0,0.0,0.0,0.0,0.0,0.0,0.0,0.0,0.0,0.0,0.0,0.0,0.0,0.0,0.0,0.0,0.0,0.0,0.0,0.0,0.0,0.0,0.0,0.0,0.0,0.0,0.0,0.0,0.0,0.0,0.0,0.0,0.0,0.0,0.0,0.0,0.0,0.0,0.0,0.0,0.0,0.0,0.0,0.0,0.0,0.0,0.0,0.0,0.0,0.0,0.0,1.0335,0.9887,1.0201,1.0434,1.0618,1.0618,1.0618,1.0618,1.0053,0.9686,0.0,0.0,0.0,0.0,0.0,0.0,0.0,0.0,0.0,0.0,0.0,0.0,0.0,0.0,0.0,0.0,0.0,0.0,0.0,0.0,0.0,0.0,0.0,0.0,0.0,0.0,0.0,0.0,0.0,0.0,0.0,0.0,0.0,0.0,0.0,0.0,0.0,0.0,0.0,0.0,0.0,0.0,0.9703,0.9877,0.0,0.0,0.0,1.0693,1.0431,0.0,0.0,0.0,0.0,0.0,0.0,0.0,0.0,0.0,0.0,0.0,0.0,0.0,0.0,0.0,0.0,0.0,0.0,0.0,0.0,0.0,0.0,0.0,0.0,0.0,0.0,0.0,0.0,0.0,0.0,0.0,0.0,0.0,0.0,0.0,0.0,0.0,0.0,0.0,0.0,0.0,0.0,0.0,0.0,0.0,0.0,0.0,0.0,0.0,0.0,0.0,0.0,0.0,0.0,0.0,0.0,0.0,0.9976,1.0383,1.0821,1.1213,1.1003,1.0989,1.1163,1.0467,0.0,0.0,0.0,0.0,0.0,0.0,0.0,0.0,0.0,0.0,0.0,0.0,0.0,0.0,0.0,0.0,0.0,0.0,0.0,0.0,0.0,0.0,0.0,0.0,0.0,0.0,0.0,0.8947,0.0,0.0,0.0,0.0,0.0,0.0,0.0,0.0,0.0,0.0,0.0,0.0,0.0,0.0,1.0428,1.0183,1.0561,1.0875,0.0,0.0,1.1528,1.1279,1.184,1.209,0.0,0.0,0.0,0.0,0.0,0.0,0.0,0.0,0.0,0.0,0.0,0.0,0.0,0.0,0.0,0.0,0.0,0.0,0.0,0.0,0.0,0.0,0.0,0.0,0.0,0.0,0.0,0.0,0.0,0.0,0.0,0.0,0.0,0.0,0.0,0.0,0.0,0.0,0.0,0.0,0.0,0.0,0.0,0.0,0.0,0.0,0.0,0.0,0.0,0.0,0.0,0.0,0.0,0.0,1.1015,0.9795,1.0275,1.1353,1.2749,1.2081,1.2081,1.2818,1.1788,1.1099,0.0,0.0,0.0,0.0,0.0,0.0,0.0,0.0,0.0,0.0,0.0,0.0,0.0,0.0,0.0,0.0,0.0,0.0,0.0,0.0,0.0,0.0,0.0,0.0,0.0,0.0,0.0,0.0,0.0,0.0,0.0,0.0,0.0,0.0,0.0,0.0,0.0,0.0,0.0,0.0,0.0,1.0955,1.1387,1.1519,1.1665,0.0,1.1836,1.1734,1.208,1.2529,1.2539,1.1704,0.0,0.0,0.0,0.0,0.0,0.0,0.0,0.0,0.0,0.0,0.0,0.0,0.0,0.0,0.0,0.0,0.0,0.0,0.0,0.0,0.0,0.0,0.0,0.0,0.0,0.0,0.0,0.0,0.0,0.0,0.0,0.0,0.0,0.0,0.0,0.0,0.0,0.0,0.0,0.0,0.0,0.0,0.0,0.0,0.0,0.0,0.0,0.0,0.0,0.0,0.0,0.0,0.0,1.2007,1.1064,1.1767,1.2406,1.2952,1.2658,1.2704,1.3009,1.2416,1.1879,0.0,0.0,0.0,0.0,0.0,0.0,0.0,0.0,0.0,0.0,0.0,0.0,0.0,0.0,0.0,0.0,0.0,0.0,0.0,0.0,0.0,0.0,0.0,0.0,0.0,0.0,0.0,0.0,1.015,1.0585,1.164,0.0,0.0,0.0,0.0,0.0,0.0,0.0,0.0,0.0,0.0,1.1746,1.1927,1.1973,0.0,0.0,1.2305,1.2344,1.2236,1.2822,1.3017,1.2159,1.2009,0.0,0.0,0.0,0.0,0.0,0.0,0.0,0.0,0.0,0.0,0.0,0.0,0.0,0.0,0.0,0.0,0.0,0.0,0.0,0.0,0.0,0.0,0.0,0.0,0.0,0.0,0.0,0.0,0.0,0.0,0.0,0.0,0.0,0.0,0.0,0.0,0.0,0.0,0.0,0.0,0.0,0.0,0.0,0.0,0.0,0.0,0.0,0.0,0.0,0.0,0.0,0.0,1.2833,1.2727,1.2915,1.3233,1.3675,1.345,1.3485,1.3717,1.3296,1.2854,0.0,0.0,0.0,0.0,0.0,0.0,0.0,0.0,0.0,0.0,0.0,0.0,0.0,0.0,0.0,0.0,0.0,0.0,0.0,0.0,0.0,0.0,0.0,0.0,0.0,0.0,0.0,0.0,1.0667,1.0785,1.1965,0.0,0.0,0.0,0.0,0.0,0.0,0.0,0.0,0.0,0.0,1.219,1.219,1.2073,1.2129,1.2383,1.2461,1.2461,1.2422,1.292,1.3184,1.2871,0.0,0.0,0.0,0.0,0.0,0.0,0.0,0.0,0.0,0.0,0.0,0.0,0.0,0.0,0.0,0.0,0.0,0.0,0.0,0.0,0.0,0.0,0.0,0.0,0.0,0.0,0.0,0.8864,0.0,0.0,0.9909,0.0,0.0,0.0,0.0,0.0,0.0,0.0,0.0,0.0,0.0,0.0,0.0,0.0,0.0,0.0,0.0,0.0,0.0,0.0,0.0,0.0,0.0,1.3455,1.4502,1.3535,1.376,1.5219,1.4602,1.4569,1.5225,1.456,1.4006,1.3732,0.0,0.0,0.0,0.0,0.0,0.0,0.0,0.0,0.0,0.0,0.0,0.0,0.0,0.0,0.0,0.0,0.0,0.0,0.0,0.0,0.0,0.0,0.0,0.0,0.0,0.0,1.157,1.0834,1.033,0.0,0.0,0.0,0.0,0.0,0.0,0.0,0.0,0.0,1.0928,1.168,1.219,1.22,1.1865,1.1959,1.2744,1.2214,1.1959,1.2744,1.29,1.3162,0.0,0.0,0.0,0.0,0.0,0.0,0.0,0.0,0.0,0.0,0.0,0.0,0.0,0.0,0.0,0.0,0.0,0.0,0.0,0.0,0.0,0.0,0.0,0.0,0.0,0.0,0.0,0.9363,0.9782,0.0,0.0,0.0,0.0,0.0,0.0,0.0,0.0,0.0,0.0,0.0,1.278,1.3249,0.0,0.0,0.0,0.0,0.0,0.0,0.0,0.0,0.0,0.0,0.0,0.0,1.3888,1.4258,1.4459,1.4855,1.5371,1.5137,1.5108,1.5352,1.5108,1.4792,1.4458,0.0,0.0,0.0,0.0,0.0,0.0,0.0,0.0,0.0,0.0,0.0,0.0,0.0,0.0,0.0,0.0,0.0,0.0,0.0,0.0,0.0,0.0,0.0,0.0,0.0,1.1409,0.0,0.0,0.0,0.0,0.0,0.0,0.0,0.0,0.0,0.0,0.0,1.1455,1.1758,1.1787,1.2002,1.2578,1.2285,1.2314,0.0,0.0,0.0,0.0,0.0,0.0,0.0,0.0,0.0,0.0,0.0,0.0,0.0,0.0,1.5291,1.5011,1.5325,1.5723,1.6142,0.0,0.0,0.0,0.0,0.0,0.0,0.0,0.0,0.0,0.0,0.0,0.0,0.0,0.0,0.9549,0.0,1.0591,0.0,0.0,0.0,0.0,0.0,0.0,0.0,0.0,1.3077,1.3251,1.3212,1.3691,1.4092,0.0,1.4194,1.3841,0.0,0.0,0.0,0.0,0.0,0.0,0.0,0.0,1.4114,1.4141,1.498,1.542,1.542,1.542,1.542,1.542,1.542,1.5168,1.4601,1.4424,1.4067,0.0,0.0,0.0,0.0,0.0,0.0,0.0,0.0,0.0,0.0,0.0,0.0,0.0,0.0,0.0,0.0,0.0,0.0,0.0,0.0,0.0,0.0,0.0,1.136,0.0,0.0,0.0,0.0,0.0,0.0,0.0,0.0,0.0,1.1191,1.1694,1.2129,1.2422,1.2324,1.2393,1.2822,0.0,0.0,0.0,0.0,0.0,0.0,0.0,1.4422,1.4994,1.5246,1.5714,1.6731,1.6872,1.6731,1.6389,0.0,0.0,1.5972,1.6277,1.6835,1.7223,1.7338,1.7305,1.729,1.7635,1.794,0.0,0.0,0.0,0.0,0.0,0.0,0.0,0.0,0.9816,0.9653,0.0,1.1217,0.0,0.0,0.0,0.0,0.0,1.312,0.0,0.0,1.3087,1.3297,1.3763,1.3729,1.4063,1.4729,1.4359,1.4157,1.4126,1.4116,0.0,0.0,0.0,0.0,0.0,0.0,1.4124,1.416,1.499,1.542,1.542,1.542,1.542,1.542,1.542,1.505,1.4314,1.4611,1.4449,1.3675,1.3559,0.0,0.0,0.0,0.0,0.0,0.0,0.0,0.0,0.0,0.0,0.0,0.0,0.0,0.0,0.0,0.0,0.0,0.0,0.0,0.0,1.0364,0.0,0.0,0.0,0.0,0.0,0.0,0.0,0.0,0.0,0.0,1.1797,1.24,1.2929,1.292,0.0,0.0,0.0,0.0,1.321,1.3794,1.3478,1.36,1.4628,1.518,1.5918,1.7074,0.0,0.0,1.895,1.8243,1.7626,1.7612,1.846,1.8605,1.68,1.6943,1.734,1.7736,1.7847,1.7772,1.7837,1.8249,1.8532,0.9856,0.0,0.0,0.0,0.0,1.049,1.0781,1.0909,1.1503,1.1623,1.1537,1.2601,0.0,0.0,0.0,0.0,0.0,0.0,1.3638,1.3495,1.4017,1.419,1.4118,1.4638,1.4984,1.5225,1.5099,1.505,1.5049,1.4992,1.4531,1.3516,0.0,0.0,0.0,0.0,1.428,1.458,1.5137,1.542,1.542,1.542,1.542,1.542,1.542,1.5294,1.505,1.5177,1.4974,1.4514,1.4441,0.0,0.0,0.0,0.0,0.0,0.0,0.0,0.0,0.0,0.0,0.0,0.0,0.0,0.0,0.0,0.0,0.0,0.0,0.0,1.2121,1.2142,1.1851,0.0,0.0,0.0,0.0,0.0,0.0,0.0,0.0,0.0,1.3751,1.322,1.3065,0.0,0.0,1.3465,1.4086,1.4258,1.4591,1.5405,1.5492,0.0,1.6261,1.6221,1.6379,1.7157,1.808,1.8796,1.8976,1.9502,1.9717,1.9337,2.0201,2.0519,1.92,1.8899,1.8995,1.9136,1.9121,1.9211,1.9489,1.9675,1.9824,1.0187,1.0067,1.0065,1.0372,1.0835,1.1284,1.1468,1.1533,1.2082,1.2012,1.1546,1.2494,1.2157,1.0956,1.2014,0.0,0.0,0.0,1.4357,1.4317,1.4838,1.4936,1.4723,1.5177,1.542,1.542,1.542,1.542,1.541,1.5244,1.4785,1.4033,0.0,0.0,1.376,1.4172,1.4518,1.4785,1.5195,1.542,1.542,1.542,1.542,1.542,1.542,1.542,1.542,1.542,1.5293,1.5039,1.4873,1.4541,0.0,0.0,0.0,0.0,0.0,0.0,0.0,0.0,0.0,0.0,0.0,1.3631,1.3154,0.0,0.0,0.0,1.2206,1.2217,1.3723,1.2652,0.0,0.0,0.0,0.0,0.0,0.0,0.0,1.472,1.5037,1.5235,1.5284,1.4712,1.4518,1.5012,1.4833,1.4836,1.528,0.0,1.5924,1.657,1.6688,1.6904,1.7408,1.7473,1.7623,1.8177,1.8834,1.9422,1.972,2.0508,2.101,2.0882,2.1456,2.1794,2.0793,2.0546,2.0273,1.9831,1.9839,2.0019,2.0246,2.0567,2.091,1.0618,1.064,1.0666,1.1287,1.222,1.2404,1.2226,1.1826,1.1888,1.1308,1.035,1.1399,1.1209,1.0038,1.1373,0.0,1.3672,1.4487,1.5029,1.541,1.542,1.542,1.542,1.542,1.542,1.542,1.542,1.542,1.5391,1.5029,1.4824,1.4785,1.4785,1.457,1.417,1.4533,1.4759,1.4795,1.5166,1.5381,1.542,1.542,1.542,1.542,1.542,1.542,1.542,1.542,1.542,1.54,1.5049,1.5031,1.5351,0.0,0.0,0.0,0.0,0.0,0.0,0.0,0.0,0.0,0.0,0.0,0.0,0.0,0.0,0.0,1.2452,0.0,1.4982,1.2389,0.0,0.0,0.0,1.2826,1.121,1.4286,1.6847,1.7652,0.0,0.0,1.6558,1.6558,1.674,1.7167,1.7115,1.6899,1.6558,1.6866,1.7214,1.7434,1.7496,1.7727,1.83,1.8758,1.9258,1.9724,1.985,2.0118,2.0706,2.1266,2.1648,2.1739,2.2291,2.2547,2.1889,2.1739,2.138,2.0139,2.0193,2.0447,2.068,2.1214,2.1771,1.0618,1.0611,1.065,1.0753,1.1126,1.234,1.244,1.1896,1.2451,1.2219,1.1475,1.235,1.2546,1.2205,1.2565,1.3203,1.4128,1.4907,1.5312,1.541,1.542,1.542,1.542,1.542,1.542,1.542,1.542,1.542,1.541,1.5312,1.5098,1.4795,1.4785,1.457,1.4097,1.4209,1.4424,1.4785,1.4883,1.5098,1.54,1.542,1.542,1.542,1.542,1.542,1.542,1.542,1.542,1.541,1.5312,1.5271,1.5391,1.4498,0.0,0.0,0.0,0.0,0.0,0.0,0.0,0.0,0.0,1.4195,1.3786,0.0,1.4648,0.0,1.3746,1.3513,1.3478,1.2763,0.0,0.0,1.581,1.8004,1.758,1.7407,1.7796,1.9121,1.8246,1.7561,1.7674,1.8101,1.8547,1.9037,1.801,1.7373,1.7726,1.8216,1.8522,1.8623,1.8871,1.9257,1.9384,1.9962,2.0403,2.0534,2.0547,2.0782,2.139,2.1615,2.1843,2.2357,2.2981,2.3088,2.2547,2.2484,2.2158,2.1425,2.1332,2.1591,2.2291,2.2591,2.293,1.0618,1.0631,1.1128,1.1127,1.087,1.1964,1.2205,1.1834,1.2266,1.2027,1.1296,1.1725,1.1903,1.1973,1.2704,1.3243,1.3734,1.4874,1.542,1.542,1.542,1.542,1.542,1.542,1.542,1.542,1.542,1.542,1.542,1.542,1.5283,1.5068,1.5068,1.4844,1.4434,1.4228,1.4204,1.4492,1.4687,1.499,1.54,1.542,1.5322,1.5137,1.5137,1.5039,1.4853,1.4844,1.4844,1.4834,1.4844,1.4887,1.5014,1.4301,1.3555,0.0,0.0,0.0,0.0,0.0,0.0,0.0,0.0,0.0,0.0,0.0,1.5614,1.5317,1.5496,1.535,1.4514,1.5395,1.5986,1.5977,1.8238,1.9824,1.9799,1.9054,1.8904,1.9709,1.9165,1.8763,1.8878,1.9144,1.9472,1.9761,1.9007,1.8548,1.8833,1.9183,1.9371,1.9371,1.961,1.9798,1.9798,2.0346,2.0809,2.0845,2.1028,2.1342,2.1649,2.1946,2.23,2.2649,2.3187,2.3505,2.3161,2.3086,2.2951,2.2682,2.2547,2.2696,2.3032,2.3243,2.362,1.0698,1.0752,1.1697,1.168,1.1088,1.1581,1.1766,1.1766,1.1774,1.1347,1.0739,1.0668,1.0732,1.098,1.2298,1.2952,1.3128,1.4597,1.5225,1.5225,1.5352,1.542,1.542,1.542,1.542,1.542,1.542,1.542,1.542,1.542,1.5391,1.5332,1.5332,1.5127,1.4707,1.4316,1.4087,1.4087,1.457,1.4961,1.5322,1.5283,1.5078,1.4717,1.4697,1.4521,1.4107,1.4087,1.4087,1.4087,1.4087,1.4243,1.4576,1.3952,1.342,0.0,1.358,0.0,0.0,0.0,0.0,0.0,0.0,0.0,0.0,1.6327,1.6473,1.6692,1.7329,1.7444,1.688,1.862,1.9788,1.9813,1.9826,1.9798,1.9784,1.9793,1.9783,1.9809,1.978,1.9798,1.9773,1.9798,1.9798,1.9798,1.9761,1.9647,1.9773,1.9761,1.9761,1.9798,1.9798,1.9798,1.985,2.0346,2.0858,2.0944,2.1342,2.1744,2.1979,2.2392,2.2694,2.283,2.3246,2.358,2.3595,2.358,2.358,2.3505,2.349,2.3481,2.3533,2.3719,2.4067,1.1049,1.1263,1.1445,1.1472,1.1343,1.1418,1.1458,1.1451,1.1458,1.1391,1.1263,1.1263,1.1667,1.2306,1.236,1.2671,1.3359,1.4107,1.4451,1.4451,1.5108,1.542,1.542,1.542,1.542,1.542,1.542,1.542,1.542,1.542,1.5244,1.4912,1.4902,1.4697,1.4268,0.0,0.0,0.0,1.457,1.4824,1.4883,1.4551,1.4282,1.4268,1.4204,0.0,1.4087,1.4087,1.4087,1.4087,1.4087,0.0,0.0,0.0,0.0,0.0,0.0,0.0,0.0,0.0,0.0,0.0,1.7962,1.764,1.712,1.7083,1.7458,1.8412,1.8263,1.8384,1.9078,1.9533,1.9799,1.9825,1.9825,1.9811,1.9822,1.9836,1.9823,1.9822,1.9823,1.9798,1.9798,1.9798,1.9798,1.9798,1.9798,1.9798,1.9823,1.9836,1.9811,1.9798,1.9886,1.9836,1.9798,2.0385,2.1033,2.139,2.1615,2.2072,2.2935,2.2875,2.292,2.329,2.3508,2.3595,2.3595,2.3595,2.3595,2.3595,2.3595,2.3846,2.4601,2.4842,2.5175,1.1289,1.1368,1.159,1.1643,0.0,1.1797,1.1857,1.1837,1.155,1.143,1.143,1.143,1.1628,1.2098,1.2328,1.2899,1.3801,1.4442,1.4985,1.5435,1.5877,1.6077,1.6064,1.6007,1.6017,1.6064,1.6064,1.6064,1.6064,1.6004,1.5957,1.5742,1.5527,1.5303,1.5088,1.4873,1.4658,1.4463,1.4678,1.4883,1.5068,1.4883,1.4668,1.4463,1.4453,0.0,0.0,0.0,0.0,0.0,0.0,0.0,0.0,1.4184,0.0,1.436,1.4506,1.5164,1.6472,1.6843,1.7618,1.8871,1.8995,1.8722,1.8167,1.8363,1.8783,1.9334,1.9145,1.9194,1.9761,1.9798,1.9798,1.9798,1.9798,1.9798,1.9798,1.9798,1.9798,1.9798,1.9798,1.9798,1.9798,1.9798,1.9798,1.9823,2.0049,2.0213,2.0225,2.0225,2.03,2.0577,2.0639,2.0639,2.0655,2.0927,2.1406,2.1958,2.2169,2.2589,2.3406,2.3377,2.3275,2.3551,2.3595,2.3595,2.3595,2.3595,2.3595,2.3595,2.3595,2.3837,2.4632,2.5028,2.5524,1.1536,1.1603,1.1844,1.1944,1.1964,1.2198,1.2305,1.2271,0.0,0.0,0.0,1.1577,1.1583,1.157,1.2279,1.2991,1.3782,1.4698,1.5533,1.6256,1.6547,1.6691,1.6719,1.6697,1.6707,1.6728,1.6665,1.6665,1.6665,1.6665,1.6665,1.6699,1.6367,1.6182,1.6152,1.5742,1.5361,1.5086,1.4863,1.4951,1.5283,1.5225,1.5019,1.4678,1.4668,1.4502,1.4097,1.4087,1.4087,1.4087,1.4102,1.4141,1.4238,1.4228,1.4258,1.4346,1.4948,1.586,1.7006,1.7659,1.8521,1.9722,1.9798,1.9623,1.9146,1.956,1.9798,1.9798,1.9798,1.9798,1.9798,1.9798,1.9798,1.9798,1.9798,1.9798,1.9798,1.9798,1.9798,1.9798,1.9798,1.9798,1.9798,1.9798,1.9849,1.9987,2.0351,2.0832,2.0945,2.0878,2.0941,2.1292,2.1483,2.164,2.1516,2.1676,2.194,2.226,2.2414,2.2747,2.3275,2.3421,2.3465,2.3551,2.3595,2.3595,2.3595,2.3595,2.3595,2.3595,2.3595,2.3752,2.4307,2.4831,2.5486,1.1951,1.2184,1.2225,1.2245,1.2245,1.2285,1.2305,1.2298,1.2204,1.2178,1.2178,1.2178,1.2178,1.2164,1.206,1.2086,1.227,1.3621,1.4345,1.4541,1.6027,1.6691,1.6665,1.6683,1.6674,1.6675,1.6665,1.6665,1.6665,1.6675,1.6665,1.6728,1.666,1.6631,1.6602,1.6191,1.6017,1.6098,1.5223,1.4814,1.4863,1.4502,1.4233,1.4228,1.4194,1.4155,1.4087,1.4097,1.4087,1.4077,1.407,1.4281,1.4704,1.471,1.4867,1.5243,1.591,1.665,1.7466,1.8182,1.896,1.9683,1.9798,1.9773,1.971,1.9761,1.9798,1.9798,1.9798,1.9798,1.9798,1.9798,1.9798,1.9798,1.9798,1.9798,1.9798,1.9798,1.9798,1.9798,1.9798,1.9798,1.9798,1.9823,2.0024,2.0467,2.0756,2.1029,2.1744,2.1669,2.143,2.1567,2.2063,2.2105,2.1792,2.2079,2.2221,2.1771,2.1843,2.2144,2.2766,2.2965,2.3113,2.3508,2.3595,2.3595,2.3595,2.3595,2.3595,2.3595,2.3595,2.3752,2.4282,2.4776,2.5373,1.2178,1.2298,1.2305,1.2305,1.2305,1.2305,1.2305,1.2305,1.2305,1.2305,1.2305,1.2305,1.2305,1.2291,1.2164,1.2669,1.3719,1.4404,1.5215,1.6245,1.7042,1.739,1.7422,1.7387,1.7377,1.7432,1.7432,1.7432,1.7432,1.7422,1.7366,1.7412,1.7197,1.6973,1.6728,1.6533,1.6354,1.6243,1.5566,1.5127,1.5127,1.4932,1.4824,1.4824,1.4824,1.4824,1.4834,1.4824,1.4824,1.4824,1.4792,1.488,1.5098,1.5125,1.5213,1.5391,1.6093,1.681,1.7578,1.8661,1.9411,1.9734,1.9798,1.9798,1.9798,1.9798,1.9798,1.9798,1.9798,1.9798,1.9798,1.9798,1.9798,1.9798,1.9798,1.9798,1.9798,1.9798,1.9798,1.9798,1.9798,1.9798,1.9798,2.0075,2.0391,2.0731,2.1104,2.1857,2.2623,2.2548,2.2372,2.2372,2.2649,2.2706,2.2405,2.2369,2.2308,2.2074,2.211,2.2281,2.2701,2.292,2.3231,2.3508,2.3595,2.3595,2.3595,2.3595,2.3595,2.3595,2.3595,2.3724,2.4006,2.4389,2.5089,1.2305,1.2305,1.2305,1.2305,1.2305,1.2305,1.2305,1.2305,1.2305,1.2305,1.2305,1.2305,1.2305,1.2305,1.2305,1.323,1.4736,1.5092,1.6088,1.7579,1.794,1.8008,1.8008,1.8008,1.8008,1.8008,1.8008,1.8008,1.8008,1.8008,1.8008,1.7969,1.7686,1.7344,1.7021,1.6924,1.6792,1.666,1.6033,1.5595,1.541,1.54,1.541,1.542,1.541,1.542,1.542,1.542,1.542,1.542,1.542,1.542,1.542,1.542,1.5468,1.569,1.6312,1.709,1.7852,1.8886,1.9527,1.9527,1.9527,1.9592,1.9798,1.9798,1.9798,1.9798,1.9798,1.9798,1.9798,1.9798,1.9798,1.9798,1.9798,1.9798,1.9798,1.9798,1.9798,1.9798,1.9798,1.9836,2.0037,2.0388,2.0819,2.1154,2.1895,2.2648,2.3037,2.3125,2.3125,2.3125,2.3245,2.3255,2.3173,2.301,2.2667,2.2369,2.222,2.2247,2.2456,2.286,2.3319,2.345,2.3595,2.3595,2.3595,2.3595,2.3595,2.3595,2.3595,2.3638,2.3879,2.4142,2.4776,1.2305,1.2305,1.2305,1.2305,1.2305,1.2305,1.2305,1.2305,1.2305,1.2305,1.2305,1.2305,1.2305,1.2305,1.2305,1.2879,1.389,1.4807,1.572,1.6784,1.7647,1.8008,1.8008,1.8008,1.8008,1.8008,1.8008,1.8008,1.8008,1.8008,1.8008,1.8008,1.7969,1.792,1.7832,1.751,1.7494,1.7835,1.7022,1.6172,1.5448,1.539,1.542,1.542,1.542,1.542,1.542,1.542,1.542,1.542,1.542,1.542,1.542,1.542,1.57,1.6322,1.7034,1.7786,1.8489,1.8727,1.8821,1.8821,1.8833,1.9097,1.9695,1.9798,1.9798,1.9747,1.9798,1.9798,1.9798,1.9798,1.9798,1.9798,1.9798,1.9798,1.9798,1.9798,1.9798,1.9798,1.9798,1.9987,2.0426,2.0743,2.1129,2.1983,2.2535,2.2987,2.304,2.3125,2.3125,2.3245,2.3662,2.3721,2.3339,2.3741,2.3192,2.2018,2.164,2.1825,2.2035,2.2086,2.2225,2.3406,2.3508,2.3508,2.3595,2.3595,2.3595,2.3595,2.3638,2.3709,2.4158,2.4348,2.4697,1.2305,1.2305,1.2305,1.2305,1.2305,1.2305,1.2305,1.2305,1.2305,1.2305,1.2305,1.2305,1.2305,1.2305,1.2305,1.2806,1.3745,1.4171,1.5155,1.6558,1.7036,1.7464,1.7998,1.8008,1.8008,1.8008,1.8008,1.8008,1.8008,1.8008,1.8008,1.8008,1.8008,1.8008,1.7988,1.7842,1.7841,1.7937,1.7419,1.7031,1.687,1.6223,1.5801,1.5762,1.5547,1.542,1.542,1.542,1.542,1.542,1.542,1.542,1.542,1.542,1.5526,1.5864,1.6539,1.7246,1.8004,1.807,1.807,1.807,1.8058,1.834,1.9032,1.915,1.915,1.9202,1.9527,1.9798,1.9798,1.9798,1.9798,1.9798,1.9798,1.9811,1.9798,1.9798,1.9798,1.9798,1.9798,2.0024,2.0614,2.1242,2.192,2.2648,2.3012,2.3113,2.3125,2.3125,2.3125,2.3138,2.3424,2.3424,2.322,2.3386,2.3098,2.2476,2.2418,2.2636,2.2267,2.2314,2.262,2.345,2.3334,2.3334,2.3551,2.3595,2.3595,2.3595,2.3595,2.3681,2.3879,2.4199,2.4471,1.2305,1.2305,1.2305,1.2305,1.2305,1.2305,1.2305,1.2305,1.2305,1.2305,1.2305,1.2305,1.2305,1.2305,1.2305,1.2806,1.36,1.3673,1.4585,1.6123,1.6204,1.6701,1.755,1.759,1.7745,1.7998,1.8008,1.8008,1.8008,1.8008,1.8008,1.8008,1.8008,1.8008,1.8008,1.8008,1.8008,1.7978,1.7695,1.7721,1.7803,1.6983,1.637,1.6064,1.5762,1.5537,1.542,1.542,1.542,1.542,1.542,1.542,1.542,1.542,1.5391,1.5505,1.628,1.6922,1.7302,1.7302,1.7302,1.7302,1.7302,1.7633,1.8221,1.8394,1.8382,1.8447,1.8917,1.932,1.9808,2.0089,2.0127,1.987,1.979,1.9788,1.9818,1.978,1.9808,1.9823,1.9798,2.0087,2.0853,2.1807,2.2673,2.3012,2.3113,2.3125,2.3125,2.3125,2.3125,2.3125,2.3138,2.3138,2.3088,2.3038,2.2821,2.2413,2.2441,2.23,2.2283,2.2296,2.2603,2.2965,2.2875,2.3068,2.3465,2.3595,2.3595,2.3595,2.3595,2.3595,2.3681,2.3964,2.4266,1.2305,1.2305,1.2305,1.2305,1.2305,1.2305,1.2305,1.2305,1.2305,1.2305,1.2305,1.2305,1.2305,1.2305,1.2305,1.2806,1.36,1.36,1.4171,1.5201,1.5282,1.5764,1.6609,1.6679,1.7126,1.793,1.8008,1.8008,1.8008,1.8008,1.8008,1.8008,1.8008,1.8008,1.8008,1.8008,1.8008,1.7998,1.7959,1.7969,1.792,1.7539,1.6914,1.6282,1.6105,1.585,1.5498,1.543,1.542,1.542,1.542,1.542,1.542,1.542,1.54,1.5528,1.6693,1.7202,1.6652,1.6549,1.6539,1.6539,1.6539,1.6877,1.7512,1.7633,1.7655,1.7655,1.7924,1.8552,1.9462,2.032,2.0752,2.0192,1.9922,1.9989,1.9822,1.9814,1.9809,1.9847,1.9911,2.0351,2.1305,2.241,2.2949,2.3113,2.3125,2.3125,2.3125,2.3125,2.3125,2.3125,2.3125,2.3125,2.3027,2.2814,2.2236,2.195,2.172,2.1199,2.1173,2.1355,2.2021,2.2634,2.3009,2.329,2.3508,2.3595,2.3595,2.3595,2.3595,2.3595,2.3595,2.3595,2.3948,1.2305,1.2305,1.2305,1.2305,1.2305,1.2305,1.2305,1.2305,1.2305,1.2305,1.2305,1.2305,1.2305,1.2305,1.2305,1.2445,1.2806,1.2806,1.331,1.4163,1.4212,1.5067,1.6531,1.6601,1.7107,1.791,1.8008,1.8008,1.8008,1.8008,1.8008,1.8008,1.8008,1.8008,1.8008,1.8008,1.8008,1.8008,1.8008,1.8008,1.7998,1.7861,1.749,1.6943,1.6641,1.6289,1.59,1.583,1.5703,1.543,1.542,1.542,1.542,1.542,1.5391,1.5438,1.5928,1.6083,1.5864,1.5806,1.5806,1.5806,1.5806,1.6083,1.6698,1.6933,1.6995,1.7331,1.7884,1.8156,1.8043,1.9044,2.0423,2.1646,2.1863,2.12,2.0177,1.9799,1.9797,1.9935,2.0376,2.1079,2.1543,2.2447,2.304,2.3125,2.3125,2.3125,2.3125,2.3125,2.3125,2.3125,2.3125,2.3125,2.3125,2.2687,2.226,2.2072,2.1838,2.1794,2.1799,2.1472,2.1913,2.2575,2.3084,2.3275,2.3363,2.3595,2.3595,2.3595,2.3595,2.3595,2.3595,2.3681,2.4074,1.2305,1.2305,1.2305,1.2305,1.2305,1.2305,1.2305,1.2305,1.2305,1.2305,1.2305,1.2305,1.2305,1.2305,1.2305,1.2305,1.2305,1.2305,1.2666,1.3171,1.3264,1.4111,1.5429,1.5687,1.6189,1.6991,1.7432,1.7716,1.8008,1.8008,1.8008,1.8008,1.8008,1.8008,1.8008,1.8008,1.8008,1.8008,1.8008,1.8008,1.8008,1.8008,1.7891,1.7598,1.7295,1.6865,1.6309,1.6204,1.5967,1.5644,1.5518,1.542,1.542,1.542,1.542,1.542,1.541,1.542,1.542,1.542,1.541,1.542,1.541,1.5633,1.6093,1.6284,1.6519,1.6904,1.7567,1.7603,1.7175,1.7871,1.9376,2.132,2.2414,2.1724,1.8987,1.9246,1.9818,2.0223,2.0593,2.1151,2.1693,2.2278,2.2784,2.3017,2.3125,2.3125,2.3125,2.3125,2.3125,2.3125,2.3125,2.3125,2.2962,2.249,2.2035,2.1815,2.1238,2.1488,2.1819,2.1568,2.1805,2.2469,2.2905,2.3084,2.3275,2.3508,2.3595,2.3595,2.3595,2.3595,2.3681,2.3837,2.4116,1.2305,1.2305,1.2305,1.2305,1.2305,1.2305,1.2305,1.2305,1.2305,1.2305,1.2305,1.2305,1.2305,1.2305,1.2305,1.2305,1.2452,1.2445,1.2519,1.2592,1.2539,1.3039,1.4091,1.4324,1.4874,1.579,1.6358,1.7139,1.794,1.8008,1.8008,1.8008,1.8008,1.8008,1.8008,1.8008,1.8008,1.8008,1.8008,1.8008,1.8008,1.8008,1.7998,1.7969,1.792,1.7559,1.6797,1.6367,1.6172,1.6023,1.5684,1.543,1.542,1.542,1.542,1.542,1.542,1.542,1.542,1.542,1.542,1.542,1.542,1.541,1.5576,1.5841,1.6087,1.6325,1.6849,1.7204,1.7039,1.7624,1.8217,1.8357,2.0807,2.0495,1.781,1.8228,2.0093,2.0648,2.0748,2.0928,2.1802,2.2272,2.2482,2.2944,2.3125,2.3125,2.3125,2.3125,2.3125,2.3125,2.3125,2.3125,2.2736,2.2284,2.1832,2.1385,2.0623,2.0333,2.0868,2.0904,2.1438,2.21,2.2905,2.3143,2.3406,2.3595,2.3595,2.3595,2.3595,2.3595,2.3681,2.3794,2.3921,1.2305,1.2305,1.2305,1.2305,1.2305,1.2305,1.2305,1.2305,1.2305,1.2305,1.2305,1.2305,1.2305,1.2305,1.2305,1.2659,1.3237,1.3244,1.3237,1.3258,1.3257,1.3747,1.4681,1.5363,1.6211,1.7019,1.7432,1.7647,1.794,1.8008,1.8008,1.8008,1.8008,1.8008,1.8008,1.8008,1.8008,1.8008,1.8008,1.8008,1.8008,1.8008,1.8008,1.8008,1.8008,1.7861,1.7617,1.7197,1.6717,1.6128,1.5978,1.5732,1.5498,1.542,1.542,1.542,1.542,1.542,1.542,1.542,1.542,1.542,1.542,1.542,1.542,1.5547,1.5841,1.6146,1.6409,1.6681,1.7531,1.8176,1.83,1.8035,1.896,1.9657,1.8686,1.9558,2.0665,2.1224,2.1512,2.184,2.223,2.2429,2.2616,2.2944,2.3078,2.3078,2.3065,2.3065,2.3125,2.3125,2.3125,2.3075,2.2723,2.2221,2.1713,2.1331,2.0612,2.0118,2.0383,2.0805,2.1342,2.1927,2.268,2.3201,2.3465,2.3595,2.3595,2.3595,2.3595,2.3595,2.3595,2.3681,2.3794,1.2305,1.2305,1.2305,1.2305,1.2305,1.2305,1.2305,1.2305,1.2305,1.2305,1.2305,1.2305,1.2305,1.2305,1.2305,1.2586,1.3164,1.3171,1.3382,1.3753,1.4183,1.4601,1.518,1.5769,1.6562,1.7323,1.7501,1.7647,1.7998,1.8008,1.8008,1.8008,1.8008,1.8008,1.8008,1.8008,1.8008,1.8008,1.8008,1.8008,1.8008,1.8008,1.8008,1.8008,1.8008,1.8008,1.7988,1.7744,1.7321,1.6628,1.6317,1.5881,1.5487,1.5439,1.542,1.542,1.542,1.542,1.542,1.542,1.542,1.542,1.542,1.542,1.5449,1.5518,1.594,1.6497,1.6961,1.7144,1.7492,1.7791,1.7767,1.7105,1.8185,1.8892,1.9782,2.0334,2.1151,2.1694,2.1923,2.2126,2.2543,2.2092,2.2433,2.2506,2.2641,2.2641,2.2689,2.2871,2.3005,2.3125,2.3125,2.3,2.2761,2.2241,2.1592,2.1253,2.0823,2.0577,2.0646,2.1148,2.1663,2.2161,2.2844,2.3157,2.3421,2.3551,2.3595,2.3595,2.3638,2.3595,2.3595,2.3595,2.3681,1.2305,1.2305,1.2305,1.2305,1.2305,1.2305,1.2305,1.2305,1.2305,1.2305,1.2305,1.2305,1.2305,1.2305,1.2305,1.2445,1.2445,1.2592,1.3171,1.3954,1.4681,1.5242,1.5666,1.5683,1.6105,1.6862,1.6922,1.7276,1.8008,1.8008,1.8008,1.8008,1.8008,1.8008,1.8008,1.8008,1.8008,1.8008,1.8008,1.8008,1.8008,1.8008,1.8008,1.8008,1.8008,1.8008,1.7998,1.7959,1.7775,1.7341,1.6558,1.5946,1.5505,1.5457,1.5586,1.5605,1.5518,1.5566,1.5527,1.5625,1.5576,1.5527,1.5518,1.542,1.5459,1.5674,1.6158,1.6867,1.7687,1.7936,1.7277,1.7249,1.6974,1.6576,1.8515,1.9673,1.9698,2.003,2.1039,2.2098,2.1861,2.1464,2.2627,2.1705,2.1542,2.1939,2.2199,2.2261,2.2384,2.275,2.3005,2.31,2.305,2.2811,2.2535,2.1782,2.1251,2.1151,2.0965,2.103,2.093,2.139,2.1899,2.2452,2.2979,2.3201,2.3421,2.3595,2.3767,2.3837,2.3809,2.3681,2.3794,2.3948,2.3991,1.2305,1.2305,1.2305,1.2305,1.2305,1.2305,1.2305,1.2305,1.2305,1.2305,1.2305,1.2305,1.2305,1.2305,1.2305,1.2666,1.3098,1.3244,1.3882,1.4736,1.5029,1.6088,1.6862,1.6576,1.6715,1.7501,1.7569,1.7784,1.8008,1.8008,1.8008,1.8008,1.8008,1.8008,1.8008,1.8008,1.8008,1.8008,1.8008,1.8008,1.8008,1.8008,1.8008,1.8008,1.8008,1.8008,1.8008,1.8008,1.7842,1.7377,1.685,1.6145,1.5663,1.6009,1.6309,1.6318,1.6338,1.6367,1.6357,1.6348,1.6221,1.5928,1.5889,1.5762,1.5439,1.5518,1.593,1.6547,1.7284,1.8038,1.8436,1.8484,1.9094,2.0705,2.0461,1.9924,1.9287,1.9843,2.0986,2.114,2.0935,2.144,2.1806,2.1939,2.1741,2.2384,2.258,2.2641,2.2567,2.275,2.3065,2.2962,2.2836,2.2573,2.2146,2.1393,2.0961,2.0972,2.1093,2.1367,2.1355,2.1486,2.2021,2.2558,2.3216,2.358,2.3752,2.3864,2.4006,2.4199,2.4389,2.4511,2.4672,2.4831,2.4792,1.2305,1.2305,1.2305,1.2305,1.2305,1.2305,1.2305,1.2305,1.2305,1.2305,1.2305,1.2305,1.2305,1.2305,1.2305,1.2586,1.3098,1.3091,1.3665,1.4593,1.5446,1.6401,1.7142,1.7092,1.751,1.794,1.8008,1.8008,1.8008,1.8008,1.8008,1.8008,1.8008,1.8008,1.8008,1.8008,1.8008,1.8008,1.8008,1.8008,1.8008,1.8008,1.8008,1.8008,1.8008,1.8008,1.8008,1.8008,1.7881,1.7637,1.7222,1.6821,1.6584,1.6577,1.6904,1.7163,1.7209,1.7149,1.6855,1.7034,1.6976,1.652,1.6338,1.6113,1.5811,1.5684,1.5969,1.6697,1.729,1.8436,1.9614,1.9409,1.951,2.0228,2.0699,2.0428,2.0095,2.0789,2.0944,2.0868,2.1225,2.1616,2.1939,2.1877,2.1939,2.2051,2.2249,2.2384,2.2506,2.2811,2.2915,2.2593,2.2447,2.2204,2.1975,2.1304,2.1393,2.1336,2.1542,2.1766,2.2007,2.2007,2.2392,2.2995,2.3565,2.3948,2.4032,2.4225,2.4576,2.4816,2.5089,2.5221,2.5259,2.5411,2.5373,1.2305,1.2305,1.2305,1.2305,1.2305,1.2305,1.2305,1.2305,1.2305,1.2305,1.2305,1.2305,1.2445,1.2445,1.2666,1.2586,1.2732,1.3091,1.3361,1.4434,1.5562,1.6633,1.6788,1.7571,1.7862,1.8008,1.8008,1.8008,1.8008,1.8008,1.8008,1.8008,1.8008,1.8008,1.8095,1.8105,1.8095,1.8086,1.8193,1.8183,1.8086,1.8008,1.8076,1.8327,1.8529,1.8519,1.8529,1.8395,1.8442,1.8327,1.778,1.7576,1.7754,1.7154,1.7204,1.7708,1.7828,1.759,1.7149,1.7663,1.7791,1.7176,1.7093,1.6842,1.6709,1.6708,1.7009,1.7666,1.8009,1.9542,2.0874,1.9852,1.9354,1.989,2.0415,2.1572,2.2438,2.2115,2.1292,2.0915,2.2201,2.2274,2.2063,2.1678,2.1491,2.129,2.1455,2.1572,2.1749,2.2007,2.2016,2.186,2.1831,2.1906,2.1645,2.1316,2.1659,2.1911,2.2183,2.2466,2.2905,2.3039,2.3172,2.3493,2.358,2.3906,2.4266,2.4576,2.5012,2.5357,2.5598,2.5524,2.547,2.5709,2.5783,1.2305,1.2305,1.2305,1.2305,1.2305,1.2305,1.2305,1.2378,1.2378,1.2445,1.2378,1.2378,1.2806,1.3382,1.3455,1.381,1.4371,1.4442,1.4696,1.4985,1.5965,1.6528,1.6797,1.7561,1.7998,1.8008,1.8008,1.8008,1.8008,1.8076,1.8008,1.8008,1.8202,1.8008,1.8086,1.872,1.8642,1.8271,1.8632,1.868,1.8221,1.8202,1.8462,1.8977,1.9628,1.9944,2.0009,2.0009,2.0009,1.9727,1.8752,1.8091,1.7984,1.7858,1.7942,1.8151,1.8171,1.8009,1.7972,1.853,1.8772,1.8374,1.869,1.9054,1.8676,1.848,1.8786,1.9354,2.0076,2.0885,2.2005,2.2261,2.1717,2.1694,2.1835,2.2416,2.2859,2.2309,2.1889,2.2097,2.1675,2.1112,2.0974,2.1055,2.0939,2.0632,2.0658,2.0694,2.0958,2.1319,2.1352,2.1378,2.1263,2.1373,2.134,2.1272,2.1814,2.2292,2.2632,2.2934,2.3334,2.3421,2.3319,2.3319,2.3363,2.3822,2.4471,2.4894,2.5335,2.5672,2.6052,2.6052,2.6087,2.621,2.621,1.3665,1.3658,1.3665,1.3658,1.3665,1.3665,1.3665,1.3665,1.3658,1.3658,1.3658,1.3658,1.3954,1.4386,1.4458,1.4736,1.5234,1.572,1.5834,1.6087,1.6835,1.7229,1.7319,1.7658,1.8008,1.8008,1.8008,1.8008,1.8076,1.8327,1.8462,1.8134,1.8731,1.8977,1.8792,1.9396,1.9645,1.9449,1.9624,1.9624,1.9253,1.9233,1.9365,1.9814,2.0333,2.059,2.0526,2.059,2.059,2.0398,1.9748,1.8787,1.8344,1.8787,1.9166,1.9233,1.9683,1.9562,1.9617,1.9933,2.0264,1.9586,1.9998,1.9907,1.9727,1.958,1.9682,1.9896,2.0305,2.0953,2.183,2.2801,2.2995,2.2727,2.1596,2.1409,2.2435,2.202,2.1389,2.1803,2.153,2.1101,2.0899,2.0843,2.0869,2.0827,2.0961,2.0986,2.1127,2.1387,2.106,2.102,2.0819,2.0841,2.0927,2.1246,2.1924,2.242,2.2934,2.3187,2.3508,2.3421,2.3231,2.3363,2.3623,2.4184,2.4776,2.5221,2.5672,2.6123,2.647,2.6624,2.6657,2.6539,2.6505,1.5092,1.5021,1.5163,1.5092,1.5021,1.51,1.5092,1.5092,1.5163,1.495,1.5163,1.5163,1.5092,1.5376,1.5376,1.5446,1.5869,1.6358,1.6835,1.6922,1.7491,1.7774,1.791,1.793,1.8008,1.8008,1.8008,1.8008,1.8202,1.8654,1.8452,1.8327,1.9309,1.9309,1.9291,1.9846,2.0012,1.9736,1.9921,1.9965,1.989,1.9944,2.0204,2.0462,2.0782,2.0782,2.0719,2.0782,2.0846,2.0782,2.091,2.0195,1.9574,1.9629,2.085,2.0873,2.1192,2.0846,2.0526,2.1112,2.1416,2.0846,2.1014,2.0831,2.0611,2.063,2.0665,2.0603,2.0857,2.0976,2.1055,2.2262,2.2997,2.2554,2.0048,1.9632,2.1269,2.1292,2.1354,2.0827,2.1386,2.1531,2.1143,2.1028,2.1033,2.1056,2.1158,2.1225,2.1299,2.131,2.0991,2.1011,2.0966,2.1055,2.1169,2.1594,2.2189,2.2575,2.3128,2.3522,2.3794,2.3975,2.396,2.3822,2.4116,2.4592,2.5105,2.554,2.6033,2.6556,2.6725,2.6758,2.6758,2.6791,2.6858,1.4744,1.4034,1.4879,1.4736,1.4163,1.4807,1.5234,1.5163,1.5234,1.5163,1.5163,1.5234,1.5649,1.6149,1.6358,1.6715,1.7217,1.7501,1.7647,1.7647,1.793,1.8008,1.8008,1.8008,1.8008,1.8008,1.8008,1.8008,1.8008,1.8134,1.8327,1.8134,1.8519,1.8586,1.8721,1.9029,1.9435,1.9295,1.9533,1.9477,1.9208,1.9497,2.0074,2.059,2.1112,2.1112,2.0921,2.1302,2.1678,2.1741,2.231,2.2372,2.1945,2.1272,2.1475,2.2004,2.1614,2.1164,2.1037,2.1491,2.1815,2.1877,2.2237,2.2555,2.2481,2.2456,2.225,2.2274,2.2347,2.2529,2.2651,2.294,2.3044,2.2286,2.0653,1.8725,1.9678,2.102,2.1897,2.1284,2.1679,2.2095,2.1758,2.1372,2.1133,2.0937,2.0736,2.069,2.0636,2.0749,2.0743,2.0949,2.1242,2.141,2.1595,2.2123,2.2603,2.2801,2.3289,2.3891,2.4266,2.4697,2.4816,2.4705,2.4601,2.4816,2.5335,2.5852,2.628,2.6708,2.6774,2.6808,2.7019,2.721,2.7365,1.495,1.4522,1.5021,1.4958,1.4673,1.5517,1.5658,1.5296,1.5728,1.5658,1.5305,1.5234,1.572,1.6419,1.6636,1.7139,1.7794,1.8008,1.8008,1.8008,1.8008,1.8008,1.8008,1.8008,1.8008,1.8008,1.8008,1.8076,1.8076,1.8519,1.8395,1.8327,1.8777,1.911,1.8942,1.9571,1.9649,1.9449,1.9687,1.9786,1.9396,1.9814,2.0268,2.059,2.0974,2.0974,2.091,2.1428,2.1877,2.2075,2.2641,2.333,2.339,2.3138,2.2653,2.2836,2.2282,2.1865,2.1854,2.231,2.2506,2.2628,2.3233,2.3424,2.3365,2.3339,2.3484,2.322,2.309,2.3098,2.306,2.3173,2.3089,2.2896,2.1557,2.0819,2.095,2.2258,2.238,2.2076,2.2101,2.2344,2.2375,2.1924,2.1364,2.0911,2.0478,2.0388,2.0333,2.0681,2.1046,2.1358,2.173,2.1777,2.2025,2.2483,2.2844,2.3054,2.3535,2.4168,2.4561,2.498,2.5405,2.5631,2.5517,2.5438,2.5561,2.6068,2.6437,2.6824,2.6987,2.7178,2.7439,2.7648,2.7805,1.5163,1.5163,1.5163,1.5305,1.5579,1.628,1.6289,1.6009,1.6576,1.6507,1.5877,1.5869,1.6289,1.6784,1.6991,1.7354,1.8008,1.8008,1.8008,1.8086,1.8271,1.8271,1.8279,1.8427,1.866,1.8844,1.8787,1.8395,1.8462,1.8911,1.8921,1.91,2.0074,2.0268,1.9835,2.0161,2.0562,2.0627,2.0584,2.0596,2.0816,2.0846,2.0846,2.0846,2.0846,2.0846,2.0719,2.1428,2.1877,2.2137,2.2641,2.3463,2.4093,2.4157,2.3721,2.3258,2.3258,2.3318,2.3305,2.3005,2.3065,2.3365,2.3767,2.3603,2.3543,2.3649,2.4047,2.3644,2.3193,2.3436,2.3725,2.396,2.4126,2.423,2.4209,2.3975,2.3918,2.4253,2.4142,2.371,2.2972,2.2607,2.2711,2.2154,2.157,2.1464,2.109,2.1376,2.138,2.1595,2.1855,2.2063,2.2257,2.2257,2.2455,2.2756,2.3054,2.3187,2.3819,2.4561,2.4863,2.5179,2.574,2.6472,2.6421,2.6336,2.6334,2.6369,2.6903,2.7299,2.7378,2.7613,2.7976,2.8192,2.8322,1.5163,1.5155,1.5155,1.5649,1.6323,1.6444,1.6973,1.7463,1.7503,1.7794,1.7045,1.7472,1.7366,1.7552,1.7639,1.7823,1.7881,1.7891,1.7919,1.8044,1.8562,1.89,1.9239,2.0027,1.9985,2.0009,2.016,1.9814,1.9607,1.9607,1.9694,2.0139,2.0322,2.0526,2.0333,2.073,2.0602,2.0655,2.0677,2.0996,2.1616,2.1729,2.1729,2.1729,2.1655,2.1455,2.1066,2.1705,2.2113,2.2175,2.2738,2.3185,2.3258,2.3271,2.3258,2.3378,2.3721,2.4189,2.3943,2.3424,2.3424,2.3721,2.3767,2.3318,2.3649,2.4047,2.4567,2.5106,2.4048,2.3817,2.4859,2.6161,2.6762,2.672,2.6411,2.6551,2.6677,2.6275,2.6122,2.53,2.4575,2.3579,2.3133,2.2401,2.1746,2.1779,2.1846,2.2146,2.2377,2.2483,2.262,2.2756,2.2876,2.2921,2.3069,2.3333,2.3492,2.3565,2.4153,2.4941,2.5309,2.5737,2.6736,2.7261,2.723,2.739,2.756,2.7653,2.7741,2.7798,2.7931,2.8234,2.8585,2.8745,2.8838,1.4492,1.4492,1.4492,1.468,1.5086,1.5632,1.5766,1.5775,1.625,1.6184,1.5775,1.5717,1.5984,1.6628,1.6938,1.7275,1.7285,1.738,1.7536,1.7921,1.8441,1.8905,1.9458,1.996,2.0347,2.1146,2.1369,2.1764,2.1354,2.0673,2.0333,2.0707,2.1055,2.098,2.1118,2.1487,2.1487,2.1487,2.1599,2.2006,2.2323,2.2396,2.2408,2.2396,2.2456,2.2214,2.2153,2.265,2.3106,2.3285,2.3923,2.4597,2.4924,2.505,2.505,2.5106,2.5342,2.4951,2.3813,2.3352,2.3708,2.4221,2.4337,2.4667,2.4881,2.4894,2.5007,2.5329,2.4805,2.4818,2.55,2.6707,2.731,2.76,2.7586,2.761,2.778,2.8378,2.808,2.7113,2.6108,2.4972,2.3968,2.3287,2.2862,2.2876,2.2876,2.301,2.3157,2.3172,2.3275,2.3406,2.3493,2.3565,2.3749,2.4002,2.4302,2.4384,2.4585,2.5287,2.577,2.6438,2.7407,2.8004,2.8076,2.8334,2.8704,2.8518,2.8198,2.8327,2.85,2.8823,2.9122,2.9283,2.942,1.4778,1.4753,1.4187,1.4156,1.4615,1.5127,1.5145,1.482,1.5431,1.5292,1.4746,1.4772,1.5283,1.5899,1.6811,1.7302,1.7357,1.7264,1.7564,1.7947,1.8395,1.903,1.9767,2.022,2.0969,2.1861,2.2342,2.2867,2.3137,2.2795,2.2029,2.1794,2.2662,2.2541,2.236,2.2865,2.3255,2.2924,2.3267,2.3489,2.3548,2.3535,2.3535,2.3463,2.3451,2.3451,2.3522,2.3979,2.4376,2.4503,2.4896,2.5398,2.5783,2.5783,2.5783,2.5783,2.5837,2.5398,2.4368,2.3975,2.4092,2.4667,2.5063,2.5453,2.6108,2.5946,2.5837,2.6108,2.6054,2.5931,2.6162,2.7075,2.7405,2.7569,2.7591,2.7588,2.7905,2.8967,2.9186,2.8084,2.7056,2.6167,2.5181,2.4441,2.4059,2.4017,2.3991,2.3948,2.3948,2.3906,2.4044,2.4168,2.4236,2.4318,2.4465,2.4705,2.498,2.5319,2.5505,2.5961,2.6646,2.7215,2.795,2.8409,2.8764,2.9,2.9225,2.8916,2.8677,2.8876,2.9124,2.9382,2.9643,2.9784,2.9935,1.7117,1.7153,1.4899,1.4953,1.6408,1.5597,1.5762,1.6331,1.6524,1.6495,1.6311,1.6471,1.675,1.7338,1.7502,1.7949,1.8616,1.8731,1.8669,1.8959,1.9561,1.9968,2.0568,2.1369,2.2105,2.2635,2.3389,2.4019,2.4513,2.4939,2.4784,2.5092,2.4687,2.4953,2.484,2.4644,2.5024,2.4856,2.5135,2.5149,2.5162,2.5162,2.5162,2.5176,2.519,2.5204,2.5204,2.5356,2.5412,2.5412,2.5645,2.5728,2.6068,2.6054,2.6054,2.6054,2.6054,2.5769,2.5425,2.5092,2.5494,2.5892,2.6014,2.6054,2.6745,2.6602,2.6721,2.7246,2.7175,2.7126,2.7267,2.7605,2.8169,2.8311,2.8525,2.851,2.903,3.0173,3.0174,2.9046,2.8086,2.729,2.6451,2.5689,2.4863,2.4721,2.4632,2.4592,2.4712,2.4697,2.4902,2.5003,2.5041,2.5141,2.5217,2.5526,2.5965,2.6366,2.6622,2.7186,2.7864,2.8364,2.8549,2.8992,2.9344,2.955,2.9713,2.955,2.9476,2.9587,2.9731,2.9896,3.0041,3.0185,3.0317,1.7534,1.7501,1.6564,1.6601,1.7228,1.6857,1.6915,1.7238,1.7238,1.7238,1.726,1.7238,1.7413,1.7644,1.769,1.7805,1.808,1.8068,1.87,1.9274,1.9754,2.06,2.1396,2.2247,2.3041,2.3986,2.4827,2.5604,2.6385,2.65,2.6692,2.664,2.6361,2.5728,2.5618,2.5946,2.6322,2.664,2.6745,2.6745,2.6759,2.6745,2.6745,2.6745,2.6759,2.6759,2.6745,2.6759,2.6759,2.6759,2.6745,2.6745,2.673,2.673,2.6715,2.6715,2.673,2.6872,2.6857,2.6279,2.5783,2.639,2.6654,2.7004,2.76,2.77,2.803,2.8276,2.8047,2.7766,2.7659,2.8884,2.9993,2.9826,2.9796,2.9716,3.0272,3.1426,3.1121,2.9901,2.9315,2.8713,2.7853,2.6965,2.6112,2.54,2.5281,2.5281,2.5496,2.5615,2.582,2.5963,2.6032,2.635,2.6463,2.6726,2.6993,2.7328,2.7736,2.8215,2.8698,2.8756,2.9015,2.9494,2.9848,2.9981,3.0094,3.0209,3.018,3.0038,3.0104,3.0273,3.0421,3.0548,3.0591,1.8643,1.8802,1.8802,1.8347,1.7677,1.7818,1.7915,1.7915,1.8132,1.8151,1.8163,1.8163,1.8324,1.8419,1.8549,1.8773,1.9097,1.919,1.9581,2.0105,2.0592,2.1144,2.2034,2.2786,2.3385,2.4805,2.5619,2.6258,2.7165,2.7628,2.7862,2.7871,2.76,2.6997,2.6428,2.673,2.7378,2.7745,2.8076,2.781,2.771,2.7929,2.7929,2.7913,2.7963,2.8094,2.8094,2.8094,2.8094,2.8094,2.8094,2.8125,2.8094,2.8079,2.8015,2.8064,2.8112,2.8242,2.8194,2.7739,2.6828,2.757,2.7898,2.8304,2.867,2.8948,2.9355,2.9491,2.8793,2.8176,2.8298,2.9759,3.0718,3.0626,3.1637,3.1795,3.2034,3.2756,3.1806,3.0818,3.0229,2.9449,2.8403,2.7542,2.7234,2.6638,2.6666,2.6649,2.6664,2.6802,2.687,2.7016,2.7099,2.7477,2.7828,2.7839,2.79,2.8366,2.8717,2.8975,2.9308,2.9364,2.9528,2.9946,3.0237,3.0369,3.0402,3.0423,3.039,3.0347,3.0424,3.0501,3.0526,3.0606,3.0609,2.093,2.1602,2.1527,2.0053,1.8163,1.8354,1.8689,1.8899,1.9265,1.9509,1.9521,1.9509,1.9826,2.0265,2.0241,2.0526,2.0992,2.1212,2.1513,2.1649,2.178,2.1876,2.2343,2.3079,2.3867,2.3862,2.5046,2.6397,2.7302,2.7787,2.8434,2.8933,2.8754,2.8467,2.7665,2.814,2.8479,2.8559,2.898,2.8543,2.8317,2.8748,2.8764,2.8685,2.881,2.8996,2.8996,2.8996,2.8996,2.898,2.9044,2.9044,2.9027,2.8805,2.8881,2.9249,2.9141,2.9201,2.9371,2.9297,2.9307,2.9125,2.9227,2.9545,2.9654,3.0013,3.0509,3.0721,3.0088,2.9638,2.9934,3.061,3.1417,3.1839,3.2844,3.3262,3.3425,3.3723,3.2847,3.1746,3.0711,2.9751,2.8723,2.7979,2.8053,2.7936,2.804,2.7995,2.7807,2.778,2.7777,2.8041,2.8123,2.8484,2.8759,2.8691,2.883,2.9322,2.9623,2.9779,2.9966,3.0113,3.0285,3.0487,3.0481,3.0485,3.0535,3.0586,3.0522,3.0483,3.0567,3.0632,3.0641,3.0645,3.063,2.254,2.2761,2.2761,2.2257,2.1327,2.0842,2.065,2.0713,2.086,2.0992,2.0944,2.093,2.104,2.126,2.1438,2.1755,2.2204,2.2249,2.2431,2.3287,2.3329,2.3688,2.3987,2.4271,2.4776,2.5243,2.6057,2.6716,2.758,2.7957,2.819,2.8606,2.9303,2.9189,2.8944,2.9027,2.8995,2.8823,2.913,2.9289,2.9201,2.9396,2.9448,2.9223,2.9476,2.9636,2.9664,2.9762,2.9718,2.9724,2.9745,2.971,2.962,2.9405,2.9548,3.0377,3.0714,3.1598,3.1654,3.1566,3.1305,3.0848,3.0581,3.0928,3.1376,3.1579,3.1848,3.2039,3.1925,3.1798,3.2223,3.3364,3.393,3.3202,3.3606,3.3643,3.3816,3.4306,3.4028,3.273,3.1599,3.0563,2.9527,2.8868,2.8777,2.875,2.8753,2.8481,2.8254,2.8407,2.8519,2.8931,2.9204,2.9494,2.9672,2.9536,2.9559,2.9937,3.019,3.0327,3.0532,3.0626,3.0574,3.0516,3.054,3.0583,3.0577,3.0586,3.0596,3.0615,3.0547,3.0562,3.0567,3.0579,3.0616,2.424,2.4335,2.4351,2.4351,2.4153,2.3082,2.2671,2.2878,2.2922,2.2922,2.2922,2.2907,2.2952,2.2952,2.2952,2.304,2.3428,2.3471,2.3598,2.4576,2.4725,2.4901,2.5269,2.5743,2.6007,2.6475,2.68,2.7303,2.8176,2.8174,2.8556,2.9108,2.9452,2.9624,2.9682,2.9838,3.0063,3.0037,3.0329,3.0712,3.0644,3.0695,3.0798,3.0688,3.0726,3.0874,3.0815,3.0738,3.0661,3.0628,3.066,3.0664,3.0578,3.0374,3.0595,3.1638,3.2332,3.3041,3.2918,3.3258,3.2882,3.2307,3.2236,3.2366,3.2814,3.3006,3.3263,3.353,3.3733,3.3726,3.3894,3.5173,3.5221,3.4427,3.4461,3.4507,3.4319,3.4816,3.3729,3.2594,3.1745,3.0886,3.0246,2.9983,2.9569,2.9516,2.9434,2.9104,2.8855,2.9082,2.9273,2.9596,2.9874,3.0037,3.0213,3.0304,3.0378,3.0595,3.0629,3.0611,3.0625,3.0619,3.0579,3.0558,3.056,3.0556,3.0526,3.0529,3.044,3.0365,3.0259,3.0308,3.0443,3.0428,3.04,2.6064,2.6336,2.6369,2.6353,2.6135,2.4986,2.4713,2.5173,2.5134,2.5134,2.5134,2.5019,2.4925,2.5096,2.5134,2.5102,2.5147,2.5163,2.533,2.5503,2.581,2.5954,2.6217,2.6653,2.6974,2.7261,2.7583,2.8011,2.8893,2.8976,2.9329,2.9902,3.0128,3.0304,3.0582,3.094,3.1148,3.12,3.1446,3.183,3.1967,3.2314,3.2186,3.2147,3.2273,3.2403,3.2439,3.2426,3.252,3.2606,3.2751,3.2893,3.2614,3.1928,3.2401,3.2949,3.3451,3.3654,3.3833,3.4333,3.4485,3.4031,3.3806,3.3723,3.3796,3.4151,3.4244,3.4415,3.4524,3.4603,3.4832,3.5388,3.5882,3.5703,3.5693,3.5472,3.5056,3.4316,3.2851,3.1797,3.1104,3.0427,3.0063,2.9854,2.9863,2.9965,2.9908,2.9992,2.9817,2.9948,3.0102,3.0134,3.0352,3.0464,3.0589,3.0598,3.0613,3.0619,3.0618,3.062,3.0633,3.0622,3.0601,3.0568,3.055,3.0497,3.0314,3.0232,3.0185,3.0087,2.9954,2.9999,3.0106,3.0022,2.9986,2.7632,2.7757,2.7975,2.8099,2.7982,2.7357,2.6715,2.6048,2.5962,2.6013,2.5995,2.599,2.6013,2.5995,2.5995,2.6219,2.6421,2.6587,2.6865,2.7036,2.713,2.7267,2.7417,2.7582,2.7805,2.7947,2.8223,2.8629,2.9205,2.9465,2.9984,3.0684,3.0527,3.0894,3.1349,3.1947,3.1869,3.1916,3.2085,3.2616,3.2862,3.3014,3.2943,3.2853,3.2912,3.2955,3.2735,3.2624,3.243,3.1908,3.1728,3.1637,3.1583,3.2281,3.3356,3.4767,3.502,3.5078,3.5132,3.5212,3.5286,3.5288,3.503,3.5104,3.5098,3.4969,3.495,3.4973,3.4917,3.4831,3.4939,3.5384,3.5246,3.4841,3.4736,3.44,3.3848,3.2762,3.1366,3.0521,2.9852,2.9984,2.9663,2.9818,2.9876,3.0136,3.0273,3.0292,3.0461,3.0486,3.0577,3.0562,3.0565,3.0586,3.0598,3.0601,3.0609,3.0609,3.054,3.0496,3.0546,3.0548,3.0568,3.0486,3.0337,3.0138,2.9927,2.9839,2.9754,2.9754,2.9678,2.9697,2.9717,2.9626,2.9588,2.8811,2.8984,2.9138,2.9237,2.9211,2.901,2.8407,2.7707,2.7178,2.6937,2.6957,2.696,2.6925,2.694,2.6964,2.7161,2.7552,2.7539,2.7744,2.8082,2.8417,2.8451,2.8521,2.8585,2.8817,2.8873,2.8956,2.9256,2.958,2.9649,3.0037,3.0284,3.038,3.0676,3.0952,3.1063,3.1261,3.152,3.1992,3.2788,3.3008,3.3099,3.3067,3.293,3.2952,3.2747,3.2524,3.2435,3.2157,3.1844,3.1824,3.1839,3.2071,3.3102,3.4168,3.5341,3.5514,3.551,3.5539,3.5532,3.5639,3.5646,3.5597,3.5412,3.5359,3.5212,3.5161,3.5134,3.4972,3.4884,3.5078,3.5088,3.415,3.3257,3.2996,3.2702,3.1848,3.0906,2.9984,2.9085,2.8941,2.919,2.9357,2.9589,2.9672,2.9569,2.9506,2.9538,2.988,3.0283,3.0445,3.058,3.058,3.0586,3.0552,3.0477,3.0517,3.0397,3.0158,3.0183,3.0322,3.019,2.9961,2.998,3.0007,2.978,2.9476,2.9362,2.9282,2.9241,2.9074,2.8901,2.8986,2.9209,2.9148,2.9583,2.9811,2.9882,2.9806,2.9847,2.9763,2.9696,2.9691,2.8419,2.8022,2.8065,2.8076,2.8088,2.8126,2.8147,2.8225,2.8443,2.8524,2.8619,2.8882,2.9134,2.9268,2.9406,2.9696,2.9527,2.9775,2.9829,2.9666,2.9741,2.9773,2.9687,2.9504,2.9435,2.9707,3.0057,3.0222,3.0462,3.0823,3.143,3.2115,3.2248,3.2589,3.3072,3.3009,3.3009,3.2968,3.2947,3.2972,3.3022,3.2928,3.28,3.2582,3.2873,3.3316,3.4296,3.5175,3.5385,3.5525,3.5529,3.5474,3.5422,3.5454,3.5518,3.4876,3.4547,3.4635,3.4568,3.4043,3.3689,3.3696,3.3809,3.3732,3.3045,3.1267,3.007,2.9922,2.9541,2.8981,2.8747,2.8167,2.8381,2.8609,2.8714,2.8912,2.9008,2.8878,2.8931,2.8941,2.9109,2.9687,2.9878,3.0101,3.0068,2.9972,3.0138,3.0126,3.0318,3.0194,2.9915,2.9902,3.0057,2.9746,2.9288,2.9364,2.942,2.9229,2.9024,2.8846,2.8657,2.8512,2.8304,2.8057,2.8156,2.8547,2.867,2.9708,2.9611,2.9819,2.9776,2.9617,2.9605,2.9474,2.921,2.8916,2.897,2.9347,2.9393,2.932,2.9173,2.9166,2.9233,2.9347,2.9233,2.9512,2.9544,2.972,2.9696,2.9756,2.9844,2.9908,2.9907,2.9913,2.988,2.9769,2.9728,2.9758,2.9732,2.9506,2.947,2.9573,2.9735,2.9913,3.0278,3.0416,3.0723,3.0678,3.1365,3.1902,3.2114,3.2218,3.2118,3.2012,3.1789,3.1414,3.1048,3.0928,3.1053,3.1437,3.2141,3.3504,3.4958,3.4758,3.4936,3.5046,3.4894,3.4691,3.4472,3.4202,3.352,3.3231,3.3487,3.3314,3.2648,3.2336,3.2392,3.2402,3.2231,3.1637,2.9337,2.7385,2.739,2.7346,2.7348,2.7404,2.7581,2.7812,2.7913,2.7977,2.8102,2.8272,2.8433,2.8608,2.8631,2.8432,2.8691,2.8625,2.8829,2.9061,2.91,2.9438,2.9706,2.9861,2.9864,2.9622,2.9696,2.9734,2.9324,2.8879,2.8809,2.8782,2.8625,2.8451,2.8218,2.8039,2.7883,2.778,2.7601,2.7589,2.789,2.802,2.9656,2.9674,2.9836,2.9823,2.9698,2.9675,2.9558,2.9426,2.9389,2.958,2.9799,2.9658,2.9491,2.9512,2.9506,2.9674,2.9706,2.9696,2.9702,2.9826,2.991,2.9897,2.9916,2.9874,2.99,2.9913,2.9873,2.9817,2.9511,2.9402,2.9373,2.9205,2.9111,2.9066,2.913,2.9228,2.943,2.9944,2.9448,2.9078,2.9109,3.0018,3.0733,3.1012,3.1099,3.1068,3.1041,3.0839,3.0643,3.0319,3.0269,3.0462,3.0811,3.1165,3.1543,3.2298,3.2808,3.3658,3.3844,3.3717,3.3375,3.3091,3.251,3.1663,3.0907,3.1067,3.0939,3.0414,3.0512,3.0566,3.0837,3.0787,2.966,2.775,2.6994,2.6826,2.6472,2.6168,2.6185,2.627,2.6421,2.6421,2.6437,2.6471,2.6631,2.6664,2.7026,2.7216,2.7245,2.7475,2.7455,2.7628,2.7895,2.8553,2.9193,2.9308,2.9326,2.9326,2.9246,2.8894,2.8667,2.862,2.8482,2.8308,2.8146,2.804,2.7844,2.7648,2.7439,2.7269,2.7238,2.7224,2.7241,2.7272,2.7365,2.9401,2.9624,2.9617,2.9617,2.9635,2.9617,2.9572,2.9572,2.9586,2.9572,2.9474,2.9031,2.892,2.9043,2.905,2.9253,2.9454,2.9645,2.976,2.986,2.9913,2.9817,2.9787,2.9805,2.968,2.9539,2.9418,2.9152,2.8782,2.8748,2.8551,2.8138,2.7897,2.7783,2.7924,2.7883,2.7939,2.8413,2.8164,2.7522,2.8,2.8825,2.9407,2.9728,2.988,3.0028,3.0026,3.0004,3.0014,2.9895,2.9686,2.995,2.988,2.9916,2.8651,2.9014,3.0035,3.0848,3.1391,3.1304,3.1308,3.1173,3.0423,2.964,2.8842,2.8433,2.8356,2.8204,2.8282,2.8634,2.8882,2.8797,2.7521,2.6522,2.6191,2.5978,2.5454,2.5067,2.5147,2.5195,2.5227,2.5265,2.5211,2.5173,2.5189,2.5182,2.5144,2.5182,2.5405,2.5841,2.6067,2.6482,2.6905,2.7701,2.8572,2.8739,2.8604,2.8723,2.8591,2.8022,2.7666,2.7885,2.794,2.7688,2.7537,2.7404,2.7299,2.7161,2.6922,2.6808,2.6906,2.6971,2.6939,2.6939,2.6825,2.8411,2.8308,2.8308,2.8263,2.8263,2.8272,2.829,2.8272,2.829,2.829,2.826,2.8288,2.85,2.9292,2.9312,2.9326,2.9198,2.9441,2.9738,2.9895,2.9639,2.9566,2.9402,2.9034,2.9007,2.8684,2.8309,2.8156,2.7512,2.7695,2.7484,2.6524,2.6458,2.6381,2.6299,2.6217,2.6101,2.6674,2.6133,2.5163,2.5245,2.6299,2.8,2.8362,2.8478,2.8554,2.8594,2.8607,2.8584,2.8592,2.8541,2.8888,2.8893,2.8222,2.6632,2.5692,2.6739,2.8011,2.8503,2.8543,2.8581,2.8219,2.7465,2.6969,2.6277,2.5785,2.5494,2.5026,2.5259,2.5977,2.6265,2.6351,2.5508,2.4766,2.4273,2.4335,2.4116,2.4304,2.4516,2.465,2.4839,2.4823,2.4768,2.4768,2.4784,2.48,2.4816,2.4855,2.4855,2.4863,2.476,2.5345,2.5927,2.6604,2.7343,2.7685,2.7748,2.7913,2.7931,2.7425,2.7234,2.747,2.7391,2.6948,2.6788,2.669,2.6624,2.6573,2.6708,2.6657,2.6691,2.6725,2.6657,2.659,2.647]},{"header":{"parameterUnit":"m.s-1","parameterCategory":1,"la1":31.0,"la2":29.5877,"lo1":-88.7671,"lo2":-86.6584,"dy":0.0162,"dx":0.0185,"nx":115,"ny":88,"refTime":"2023-10-07T00:00:00:Z","depth":0,"parameterNumber":3,"parameterNumberName":"V-component_of_WINDS"},"data":[0.0,0.0,0.0,0.0,0.0,0.0,0.0,0.0,0.0,0.0,0.0,0.0,0.0,0.0,0.0,0.0,0.0,0.0,0.0,0.0,0.0,0.0,0.0,0.0,0.0,0.0,0.0,0.0,0.0,0.0,0.0,0.0,0.0,0.0,0.0,0.0,0.0,0.0,0.0,0.0,0.0,0.0,0.0,0.0,0.0,0.0,0.0,0.0,0.0,0.0,0.0,0.0,0.0,0.0,0.0,0.0,0.0,0.0,0.0,0.0,0.0,0.0,0.0,0.0,0.0,0.0,0.0,0.0,0.0,0.0,0.0,0.0,0.0,0.0,0.0,0.0,0.0,0.0,0.0,0.0,0.0,0.0,0.0,0.0,0.0,0.0,0.0,0.0,0.0,0.0,0.0,0.0,0.0,0.0,0.0,0.0,0.0,0.0,0.0,0.0,0.0,0.0,0.0,0.0,0.0,0.0,0.0,0.0,0.0,0.0,0.0,0.0,0.0,0.0,0.0,0.0,0.0,0.0,0.0,0.0,0.0,0.0,0.0,0.0,0.0,0.0,0.0,0.0,0.0,0.0,0.0,0.0,0.0,0.0,0.0,0.0,0.0,0.0,0.0,0.0,0.0,0.0,0.0,0.0,0.0,0.0,0.0,0.0,0.0,0.0,0.0,0.0,0.0,0.0,0.0,0.0,0.0,0.0,0.0,0.0,0.0,0.0,0.0,0.0,0.0,0.0,0.0,0.0,0.0,0.0,0.0,0.0,0.0,0.0,0.0,0.0,0.0,0.0,0.0,0.0,0.0,0.0,0.0,0.0,0.0,0.0,0.0,0.0,0.0,0.0,0.0,0.0,0.0,0.0,0.0,0.0,0.0,0.0,0.0,0.0,0.0,0.0,0.0,0.0,0.0,0.0,0.0,0.0,0.0,0.0,0.0,0.0,0.0,0.0,0.0,0.0,0.0,0.0,0.0,0.0,0.0,0.0,0.0,0.0,0.0,0.0,0.0,0.0,0.0,0.0,0.0,0.0,0.0,0.0,0.0,0.0,0.0,0.0,0.0,0.0,0.0,0.0,0.0,0.0,0.0,0.0,0.0,0.0,0.0,0.0,0.0,0.0,0.0,0.0,0.0,0.0,0.0,0.0,0.0,0.0,0.0,0.0,0.0,0.0,0.0,0.0,0.0,0.0,0.0,0.0,0.0,0.0,0.0,0.0,0.0,0.0,0.0,0.0,0.0,0.0,0.0,0.0,0.0,0.0,0.0,0.0,0.0,0.0,0.0,0.0,0.0,0.0,0.0,0.0,0.0,0.0,0.0,0.0,0.0,0.0,0.0,0.0,0.0,0.0,0.0,0.0,0.0,0.0,0.0,0.0,0.0,0.0,0.0,0.0,0.0,0.0,0.0,0.0,0.0,0.0,0.0,0.0,0.0,0.0,0.0,0.0,0.0,0.0,0.0,0.0,0.0,0.0,0.0,0.0,0.0,0.0,0.0,0.0,0.0,0.0,0.0,0.0,0.0,0.0,0.0,0.0,0.0,0.0,0.0,0.0,0.0,0.0,0.0,0.0,0.0,0.0,0.0,0.0,0.0,0.0,0.0,0.0,0.0,0.0,0.0,0.0,0.0,0.0,0.0,0.0,0.0,0.0,0.0,0.0,0.0,0.0,0.0,0.0,0.0,0.0,0.0,0.0,0.0,0.0,0.0,0.0,0.0,0.0,0.0,0.0,0.0,0.0,0.0,0.0,0.0,0.0,0.0,0.0,0.0,0.0,0.0,0.0,0.0,0.0,0.0,0.0,0.0,0.0,0.0,0.0,0.0,0.0,0.0,0.0,0.0,0.0,0.0,0.0,0.0,0.0,0.0,0.0,0.0,0.0,0.0,0.0,0.0,0.0,0.0,0.0,0.0,0.0,0.0,0.0,0.0,0.0,0.0,0.0,0.0,0.0,0.0,0.0,0.0,0.0,0.0,0.0,0.0,0.0,0.0,0.0,0.0,0.0,0.0,0.0,0.0,0.0,0.0,0.0,0.0,0.0,0.0,0.0,0.0,0.0,0.0,0.0,0.0,0.0,0.0,0.0,0.0,0.0,0.0,0.0,0.0,0.0,0.0,0.0,0.0,0.0,0.0,0.0,0.0,0.0,0.0,0.0,0.0,0.0,0.0,0.0,0.0,0.0,0.0,0.0,0.0,0.0,0.0,0.0,0.0,0.0,0.0,0.0,0.0,0.0,0.0,0.0,0.0,0.0,0.0,0.0,0.0,0.0,0.0,0.0,0.0,0.0,0.0,0.0,0.0,0.0,0.0,0.0,0.0,0.0,0.0,0.0,0.0,0.0,0.0,0.0,0.0,0.0,0.0,0.0,0.0,0.0,0.0,0.0,0.0,0.0,0.0,0.0,0.0,0.0,0.0,0.0,0.0,0.0,0.0,0.0,0.0,0.0,0.0,0.0,0.0,0.0,0.0,0.0,0.0,0.0,0.0,0.0,0.0,0.0,0.0,0.0,0.0,0.0,0.0,0.0,0.0,0.0,0.0,0.0,0.0,0.0,0.0,0.0,0.0,0.0,0.0,0.0,0.0,0.0,0.0,0.0,0.0,0.0,0.0,0.0,0.0,0.0,0.0,0.0,0.0,0.0,0.0,0.0,0.0,0.0,0.0,0.0,0.0,0.0,0.0,0.0,0.0,0.0,0.0,0.0,0.0,0.0,0.0,0.0,0.0,0.0,0.0,0.0,0.0,0.0,0.0,0.0,0.0,0.0,0.0,0.0,0.0,0.0,0.0,0.0,0.0,0.0,0.0,0.0,0.0,0.0,0.0,0.0,0.0,0.0,0.0,0.0,0.0,0.0,0.0,0.0,0.0,0.0,0.0,0.0,0.0,0.0,0.0,0.0,0.0,0.0,0.0,0.0,0.0,0.0,0.0,0.0,0.0,0.0,0.0,0.0,0.0,0.0,0.0,0.0,0.0,0.0,0.0,0.0,0.0,0.0,0.0,0.0,0.0,0.0,0.0,0.0,0.0,0.0,0.0,0.0,0.0,0.0,0.0,0.0,0.0,0.0,0.0,0.0,0.0,0.0,0.0,0.0,0.0,0.0,0.0,0.0,0.0,0.0,0.0,0.0,0.0,0.0,0.0,0.0,0.0,0.0,0.0,0.0,0.0,0.0,0.0,0.0,0.0,0.0,0.0,0.0,0.0,0.0,0.0,0.0,0.0,0.0,0.0,0.0,0.0,0.0,0.0,0.0,0.0,0.0,0.0,0.0,0.0,0.0,0.0,0.0,0.0,0.0,0.0,0.0,0.0,0.0,0.0,0.0,0.0,0.0,0.0,0.0,0.0,0.0,0.0,0.0,0.0,0.0,0.0,0.0,0.0,0.0,0.0,0.0,0.0,0.0,0.0,0.0,0.0,0.0,0.0,0.0,0.0,0.0,0.0,0.0,0.0,0.0,0.0,0.0,0.0,0.0,0.0,0.0,0.0,0.0,0.0,0.0,0.0,0.0,0.0,0.0,0.0,0.0,0.0,0.0,0.0,0.0,0.0,0.0,0.0,0.0,0.0,0.0,0.0,0.0,0.0,0.0,0.0,0.0,0.0,0.0,0.0,0.0,0.0,0.0,0.0,0.0,0.0,0.0,0.0,0.0,0.0,0.0,0.0,0.0,0.0,0.0,0.0,0.0,0.0,0.0,0.0,0.0,0.0,0.0,0.0,0.0,0.0,0.0,0.0,0.0,0.0,0.0,0.0,0.0,0.0,0.0,0.0,0.0,0.0,0.0,0.0,0.0,0.0,0.0,0.0,0.0,0.0,0.0,0.0,0.0,0.0,0.0,0.0,0.0,0.0,0.0,0.0,0.0,0.0,0.0,0.0,0.0,0.0,0.0,0.0,0.0,0.0,0.0,0.0,0.0,0.0,0.0,0.0,0.0,0.0,0.0,0.0,0.0,0.0,0.0,0.0,0.0,0.0,0.0,0.0,0.0,0.0,0.0,0.0,0.0,0.0,0.0,0.0,0.0,0.0,0.0,0.0,0.0,0.0,0.0,0.0,0.0,0.0,0.0,0.0,0.0,0.0,0.0,0.0,0.0,0.0,0.0,0.0,0.0,0.0,0.0,0.0,0.0,0.0,0.0,0.0,0.0,0.0,0.0,0.0,0.0,0.0,0.0,0.0,0.0,0.0,0.0,0.0,0.0,0.0,0.0,0.0,0.0,0.0,0.0,0.0,0.0,0.0,0.0,0.0,0.0,0.0,0.0,0.0,0.0,0.0,0.0,-2.2956,0.0,0.0,0.0,0.0,0.0,0.0,0.0,0.0,0.0,0.0,0.0,0.0,0.0,0.0,0.0,0.0,0.0,0.0,0.0,0.0,0.0,0.0,0.0,0.0,0.0,0.0,0.0,0.0,0.0,0.0,0.0,0.0,0.0,0.0,0.0,0.0,0.0,0.0,0.0,0.0,0.0,0.0,0.0,0.0,0.0,0.0,0.0,0.0,0.0,0.0,0.0,0.0,0.0,0.0,0.0,0.0,0.0,0.0,0.0,0.0,0.0,0.0,0.0,0.0,0.0,0.0,0.0,0.0,0.0,0.0,0.0,0.0,0.0,0.0,0.0,0.0,0.0,0.0,0.0,0.0,0.0,0.0,0.0,0.0,0.0,0.0,0.0,0.0,0.0,0.0,0.0,0.0,0.0,0.0,0.0,0.0,0.0,0.0,0.0,0.0,0.0,0.0,0.0,0.0,0.0,0.0,0.0,0.0,0.0,0.0,-2.539,-2.5351,-2.462,-2.3793,-2.2936,0.0,0.0,0.0,0.0,0.0,0.0,0.0,0.0,0.0,0.0,0.0,0.0,0.0,0.0,0.0,0.0,0.0,0.0,0.0,0.0,0.0,0.0,0.0,0.0,0.0,0.0,0.0,0.0,0.0,0.0,0.0,0.0,0.0,0.0,0.0,0.0,0.0,0.0,0.0,0.0,0.0,0.0,0.0,0.0,0.0,0.0,0.0,0.0,0.0,0.0,0.0,0.0,0.0,0.0,0.0,0.0,0.0,0.0,0.0,0.0,0.0,0.0,0.0,0.0,0.0,0.0,0.0,0.0,0.0,0.0,0.0,0.0,0.0,0.0,0.0,0.0,0.0,0.0,0.0,0.0,0.0,0.0,0.0,0.0,0.0,0.0,0.0,0.0,0.0,0.0,0.0,0.0,0.0,0.0,0.0,0.0,0.0,0.0,0.0,0.0,0.0,0.0,0.0,0.0,0.0,0.0,0.0,0.0,0.0,0.0,0.0,0.0,-2.5241,-2.4488,-2.3057,0.0,0.0,0.0,0.0,0.0,0.0,0.0,0.0,0.0,0.0,0.0,0.0,0.0,0.0,0.0,0.0,0.0,0.0,0.0,0.0,0.0,0.0,0.0,0.0,0.0,0.0,0.0,0.0,0.0,0.0,0.0,0.0,0.0,0.0,0.0,0.0,0.0,0.0,0.0,0.0,0.0,0.0,0.0,0.0,0.0,0.0,0.0,0.0,0.0,0.0,0.0,0.0,0.0,0.0,0.0,0.0,0.0,0.0,0.0,0.0,0.0,0.0,0.0,0.0,0.0,0.0,0.0,0.0,0.0,0.0,0.0,0.0,0.0,0.0,0.0,0.0,0.0,0.0,0.0,0.0,0.0,0.0,0.0,0.0,0.0,0.0,0.0,0.0,0.0,0.0,0.0,0.0,0.0,0.0,0.0,0.0,0.0,0.0,0.0,0.0,0.0,0.0,0.0,0.0,0.0,0.0,0.0,0.0,0.0,0.0,-2.5498,-2.5468,-2.4788,0.0,-2.3076,0.0,0.0,0.0,0.0,0.0,0.0,0.0,0.0,0.0,0.0,0.0,0.0,0.0,0.0,0.0,0.0,0.0,0.0,0.0,0.0,0.0,0.0,0.0,0.0,0.0,0.0,0.0,0.0,0.0,0.0,0.0,0.0,0.0,0.0,0.0,0.0,0.0,0.0,0.0,0.0,0.0,0.0,0.0,0.0,0.0,0.0,0.0,0.0,0.0,0.0,0.0,0.0,0.0,0.0,0.0,0.0,0.0,0.0,0.0,0.0,0.0,0.0,0.0,0.0,0.0,0.0,0.0,0.0,0.0,0.0,0.0,0.0,0.0,0.0,0.0,0.0,0.0,0.0,0.0,0.0,0.0,0.0,0.0,0.0,0.0,0.0,0.0,0.0,0.0,0.0,0.0,0.0,0.0,0.0,0.0,0.0,0.0,0.0,0.0,0.0,0.0,0.0,0.0,0.0,0.0,0.0,0.0,0.0,0.0,0.0,-2.56,-2.555,-2.4775,-2.4179,0.0,0.0,0.0,0.0,0.0,0.0,0.0,0.0,0.0,0.0,0.0,0.0,0.0,0.0,0.0,0.0,0.0,0.0,0.0,0.0,0.0,0.0,0.0,0.0,0.0,0.0,0.0,0.0,0.0,0.0,0.0,0.0,0.0,0.0,0.0,0.0,0.0,0.0,0.0,0.0,0.0,0.0,0.0,0.0,0.0,0.0,0.0,0.0,0.0,0.0,0.0,0.0,0.0,0.0,0.0,0.0,0.0,0.0,0.0,0.0,0.0,0.0,0.0,0.0,0.0,0.0,0.0,0.0,0.0,0.0,0.0,0.0,0.0,0.0,0.0,0.0,0.0,0.0,0.0,0.0,0.0,0.0,0.0,0.0,0.0,0.0,0.0,0.0,0.0,0.0,0.0,0.0,0.0,0.0,0.0,0.0,0.0,0.0,0.0,0.0,0.0,0.0,0.0,0.0,0.0,0.0,0.0,0.0,0.0,0.0,-2.5673,-2.5672,-2.5589,-2.4822,-2.4452,-2.465,0.0,0.0,0.0,0.0,0.0,0.0,0.0,0.0,0.0,0.0,0.0,0.0,0.0,0.0,0.0,0.0,0.0,0.0,0.0,0.0,0.0,0.0,0.0,0.0,0.0,0.0,0.0,0.0,0.0,0.0,0.0,0.0,0.0,0.0,0.0,0.0,0.0,0.0,0.0,0.0,0.0,0.0,0.0,0.0,0.0,0.0,0.0,0.0,0.0,0.0,0.0,0.0,0.0,0.0,0.0,0.0,0.0,0.0,0.0,0.0,0.0,0.0,0.0,0.0,0.0,0.0,0.0,0.0,0.0,0.0,0.0,0.0,0.0,0.0,0.0,0.0,0.0,0.0,0.0,0.0,0.0,0.0,0.0,0.0,0.0,0.0,0.0,0.0,0.0,0.0,0.0,0.0,0.0,0.0,0.0,0.0,0.0,0.0,0.0,0.0,0.0,0.0,0.0,0.0,0.0,0.0,0.0,0.0,-2.5703,-2.5703,-2.5702,-2.5683,-2.4793,-2.4697,0.0,0.0,0.0,0.0,0.0,0.0,0.0,0.0,0.0,0.0,0.0,0.0,0.0,0.0,0.0,0.0,0.0,0.0,0.0,0.0,0.0,0.0,0.0,0.0,0.0,0.0,0.0,0.0,0.0,0.0,0.0,0.0,0.0,0.0,0.0,0.0,0.0,0.0,0.0,0.0,0.0,0.0,0.0,0.0,0.0,0.0,0.0,0.0,0.0,0.0,0.0,0.0,0.0,0.0,0.0,0.0,0.0,0.0,0.0,0.0,0.0,0.0,0.0,0.0,0.0,0.0,0.0,0.0,0.0,0.0,0.0,0.0,0.0,0.0,0.0,0.0,0.0,0.0,0.0,0.0,0.0,0.0,0.0,0.0,0.0,0.0,0.0,0.0,0.0,0.0,0.0,0.0,0.0,0.0,0.0,0.0,0.0,0.0,0.0,0.0,0.0,0.0,0.0,0.0,0.0,0.0,0.0,0.0,0.0,-2.5587,-2.5567,-2.5588,-2.5625,-2.5254,-2.5248,0.0,0.0,0.0,0.0,0.0,0.0,0.0,0.0,0.0,0.0,0.0,0.0,0.0,0.0,0.0,0.0,0.0,0.0,0.0,0.0,0.0,0.0,0.0,0.0,0.0,0.0,0.0,0.0,0.0,0.0,0.0,0.0,0.0,0.0,0.0,0.0,0.0,0.0,0.0,0.0,0.0,0.0,0.0,0.0,0.0,0.0,0.0,0.0,0.0,0.0,0.0,0.0,0.0,0.0,0.0,0.0,0.0,0.0,0.0,0.0,0.0,0.0,0.0,0.0,0.0,0.0,0.0,0.0,0.0,0.0,0.0,0.0,0.0,0.0,0.0,0.0,0.0,0.0,0.0,0.0,0.0,0.0,0.0,0.0,0.0,0.0,0.0,0.0,0.0,0.0,0.0,0.0,0.0,0.0,0.0,0.0,0.0,0.0,0.0,0.0,0.0,0.0,0.0,0.0,0.0,0.0,0.0,0.0,0.0,-2.5512,0.0,-2.5526,-2.5577,-2.5493,-2.5488,0.0,0.0,0.0,0.0,0.0,0.0,0.0,0.0,0.0,0.0,0.0,0.0,0.0,0.0,0.0,0.0,0.0,0.0,0.0,0.0,0.0,0.0,0.0,0.0,0.0,0.0,0.0,0.0,0.0,0.0,0.0,0.0,0.0,0.0,0.0,0.0,0.0,0.0,0.0,0.0,0.0,0.0,0.0,0.0,0.0,0.0,0.0,0.0,0.0,0.0,0.0,0.0,0.0,0.0,0.0,0.0,0.0,0.0,0.0,0.0,0.0,0.0,0.0,0.0,0.0,0.0,0.0,0.0,0.0,0.0,0.0,0.0,0.0,0.0,0.0,0.0,0.0,0.0,0.0,0.0,0.0,0.0,0.0,0.0,0.0,0.0,0.0,0.0,0.0,0.0,0.0,0.0,0.0,0.0,0.0,0.0,0.0,0.0,0.0,0.0,0.0,0.0,0.0,0.0,0.0,0.0,0.0,0.0,-2.5495,-2.5495,-2.5495,-2.5486,-2.5515,-2.5447,-2.539,0.0,0.0,0.0,0.0,0.0,0.0,0.0,0.0,0.0,0.0,0.0,0.0,0.0,0.0,0.0,0.0,0.0,0.0,0.0,0.0,0.0,0.0,0.0,0.0,0.0,0.0,0.0,0.0,0.0,0.0,0.0,0.0,0.0,0.0,0.0,0.0,0.0,0.0,0.0,0.0,0.0,0.0,0.0,0.0,0.0,0.0,0.0,0.0,0.0,0.0,0.0,0.0,0.0,0.0,0.0,0.0,0.0,0.0,0.0,0.0,0.0,0.0,0.0,0.0,0.0,0.0,0.0,0.0,0.0,0.0,0.0,0.0,0.0,0.0,0.0,0.0,0.0,0.0,0.0,0.0,0.0,0.0,0.0,0.0,0.0,0.0,0.0,0.0,0.0,0.0,0.0,0.0,0.0,0.0,0.0,0.0,0.0,0.0,0.0,0.0,0.0,0.0,0.0,0.0,0.0,0.0,0.0,0.0,0.0,-2.537,-2.537,-2.539,-2.5428,-2.537,-2.5351,0.0,0.0,0.0,0.0,0.0,0.0,0.0,0.0,0.0,0.0,0.0,0.0,0.0,0.0,0.0,0.0,0.0,0.0,0.0,0.0,0.0,0.0,0.0,0.0,0.0,0.0,0.0,0.0,0.0,0.0,0.0,0.0,0.0,0.0,0.0,0.0,0.0,0.0,0.0,0.0,0.0,0.0,0.0,0.0,0.0,0.0,0.0,0.0,0.0,0.0,0.0,0.0,0.0,0.0,0.0,0.0,0.0,0.0,0.0,0.0,0.0,0.0,0.0,0.0,0.0,0.0,0.0,0.0,0.0,0.0,0.0,0.0,0.0,0.0,0.0,0.0,0.0,0.0,0.0,0.0,0.0,0.0,0.0,0.0,0.0,0.0,0.0,0.0,0.0,0.0,0.0,0.0,0.0,0.0,0.0,0.0,0.0,0.0,0.0,0.0,0.0,0.0,0.0,0.0,0.0,0.0,0.0,0.0,0.0,-2.5774,-2.5793,-2.5813,-2.5851,-2.5803,-2.5659,-2.538,0.0,0.0,0.0,0.0,0.0,0.0,0.0,0.0,0.0,0.0,0.0,0.0,0.0,0.0,0.0,0.0,0.0,0.0,0.0,0.0,0.0,0.0,0.0,0.0,0.0,0.0,0.0,0.0,0.0,0.0,0.0,0.0,0.0,0.0,0.0,0.0,0.0,0.0,0.0,0.0,0.0,0.0,0.0,0.0,0.0,0.0,0.0,0.0,0.0,0.0,0.0,0.0,0.0,0.0,0.0,0.0,0.0,0.0,0.0,0.0,0.0,0.0,0.0,0.0,0.0,0.0,0.0,0.0,0.0,0.0,0.0,0.0,0.0,0.0,0.0,0.0,0.0,0.0,0.0,0.0,0.0,0.0,0.0,0.0,0.0,0.0,0.0,0.0,0.0,0.0,0.0,0.0,0.0,0.0,0.0,0.0,0.0,0.0,0.0,0.0,0.0,0.0,0.0,0.0,0.0,0.0,0.0,0.0,-2.6678,-2.6726,-2.6706,-2.6678,-2.6621,-2.6236,0.0,0.0,0.0,0.0,0.0,0.0,0.0,0.0,0.0,0.0,0.0,0.0,0.0,0.0,0.0,0.0,0.0,0.0,0.0,0.0,0.0,0.0,0.0,0.0,0.0,0.0,0.0,0.0,0.0,0.0,0.0,0.0,0.0,0.0,0.0,0.0,0.0,0.0,0.0,0.0,0.0,0.0,0.0,0.0,0.0,0.0,0.0,0.0,0.0,0.0,0.0,0.0,0.0,0.0,0.0,0.0,0.0,0.0,0.0,0.0,0.0,0.0,0.0,0.0,0.0,0.0,0.0,0.0,0.0,0.0,0.0,0.0,0.0,0.0,0.0,0.0,0.0,0.0,0.0,0.0,0.0,0.0,0.0,0.0,0.0,0.0,0.0,0.0,0.0,0.0,0.0,0.0,0.0,0.0,0.0,0.0,0.0,0.0,0.0,0.0,0.0,0.0,0.0,0.0,0.0,0.0,0.0,0.0,0.0,-2.7531,-2.7994,-2.7994,-2.7582,-2.6928,-2.6505,0.0,0.0,0.0,0.0,0.0,0.0,0.0,0.0,0.0,0.0,0.0,0.0,0.0,0.0,0.0,0.0,0.0,0.0,0.0,0.0,0.0,0.0,0.0,0.0,0.0,0.0,0.0,0.0,0.0,0.0,0.0,0.0,0.0,0.0,0.0,0.0,0.0,0.0,0.0,0.0,0.0,0.0,0.0,0.0,0.0,0.0,0.0,0.0,0.0,0.0,0.0,0.0,0.0,0.0,0.0,0.0,0.0,0.0,0.0,0.0,0.0,0.0,0.0,0.0,0.0,0.0,0.0,0.0,0.0,0.0,0.0,0.0,0.0,0.0,0.0,0.0,0.0,0.0,0.0,0.0,0.0,0.0,0.0,0.0,0.0,0.0,0.0,0.0,0.0,0.0,0.0,0.0,0.0,0.0,0.0,0.0,0.0,0.0,0.0,0.0,0.0,0.0,0.0,0.0,0.0,0.0,0.0,0.0,-2.7228,-2.7733,-2.8679,-2.9011,-2.8668,-2.756,-2.6776,0.0,0.0,0.0,0.0,0.0,0.0,0.0,0.0,0.0,0.0,0.0,0.0,0.0,0.0,0.0,0.0,0.0,0.0,0.0,0.0,0.0,0.0,0.0,0.0,0.0,0.0,0.0,0.0,0.0,0.0,0.0,0.0,0.0,0.0,0.0,0.0,0.0,0.0,0.0,0.0,0.0,0.0,0.0,0.0,0.0,0.0,0.0,0.0,0.0,0.0,0.0,0.0,0.0,0.0,0.0,0.0,0.0,0.0,0.0,0.0,0.0,0.0,0.0,0.0,0.0,0.0,0.0,0.0,0.0,0.0,0.0,0.0,0.0,0.0,0.0,0.0,0.0,0.0,0.0,0.0,0.0,0.0,0.0,0.0,0.0,0.0,0.0,0.0,0.0,0.0,0.0,0.0,0.0,0.0,0.0,0.0,0.0,0.0,0.0,0.0,0.0,0.0,0.0,0.0,0.0,0.0,0.0,0.0,-2.75,-2.7611,-2.8942,-2.9661,-2.9622,-2.8233,-2.7049,0.0,0.0,0.0,0.0,0.0,0.0,0.0,0.0,0.0,0.0,0.0,0.0,0.0,0.0,0.0,0.0,0.0,0.0,0.0,0.0,0.0,0.0,0.0,0.0,0.0,0.0,0.0,0.0,0.0,0.0,0.0,0.0,0.0,0.0,0.0,0.0,0.0,0.0,0.0,0.0,0.0,0.0,0.0,0.0,0.0,0.0,0.0,0.0,0.0,0.0,0.0,0.0,0.0,0.0,0.0,0.0,0.0,0.0,0.0,0.0,0.0,0.0,0.0,0.0,0.0,0.0,0.0,0.0,0.0,0.0,0.0,0.0,0.0,0.0,0.0,0.0,0.0,0.0,0.0,0.0,0.0,0.0,0.0,0.0,0.0,0.0,0.0,0.0,0.0,0.0,0.0,0.0,0.0,0.0,0.0,0.0,0.0,0.0,0.0,0.0,0.0,0.0,0.0,0.0,0.0,0.0,0.0,0.0,-2.7563,-2.8199,-2.9018,-2.9474,-2.9474,-2.8024,-2.7141,0.0,0.0,0.0,0.0,0.0,0.0,0.0,0.0,0.0,0.0,0.0,0.0,0.0,0.0,0.0,0.0,0.0,0.0,0.0,0.0,0.0,0.0,0.0,0.0,0.0,0.0,0.0,0.0,0.0,0.0,0.0,0.0,0.0,0.0,0.0,0.0,0.0,0.0,0.0,0.0,0.0,0.0,0.0,0.0,0.0,0.0,0.0,0.0,-2.0495,0.0,0.0,0.0,0.0,0.0,0.0,0.0,0.0,0.0,0.0,0.0,0.0,0.0,0.0,0.0,0.0,0.0,0.0,0.0,0.0,0.0,0.0,0.0,0.0,0.0,0.0,0.0,0.0,0.0,0.0,0.0,0.0,0.0,0.0,0.0,0.0,0.0,0.0,0.0,0.0,0.0,0.0,0.0,0.0,0.0,0.0,0.0,0.0,0.0,0.0,0.0,0.0,0.0,0.0,0.0,0.0,0.0,0.0,0.0,-2.7437,-2.8251,-2.8872,-2.9203,-2.9188,-2.8166,-2.7397,0.0,0.0,0.0,0.0,0.0,0.0,0.0,0.0,0.0,0.0,0.0,0.0,0.0,0.0,0.0,0.0,0.0,0.0,0.0,0.0,0.0,0.0,0.0,0.0,0.0,0.0,0.0,0.0,0.0,0.0,0.0,0.0,0.0,0.0,0.0,0.0,0.0,0.0,0.0,0.0,0.0,0.0,0.0,0.0,0.0,0.0,0.0,0.0,0.0,0.0,0.0,0.0,0.0,0.0,0.0,0.0,0.0,0.0,0.0,0.0,0.0,0.0,0.0,0.0,0.0,0.0,0.0,0.0,0.0,0.0,0.0,0.0,0.0,0.0,0.0,0.0,0.0,0.0,0.0,0.0,0.0,0.0,0.0,0.0,0.0,0.0,0.0,0.0,0.0,0.0,0.0,0.0,0.0,0.0,0.0,0.0,0.0,0.0,0.0,0.0,0.0,0.0,0.0,0.0,0.0,0.0,0.0,-2.6597,-2.7315,-2.821,-2.8732,-2.8975,-2.8998,-2.8392,-2.7598,-2.6652,0.0,0.0,0.0,0.0,0.0,0.0,0.0,0.0,0.0,0.0,0.0,0.0,0.0,0.0,0.0,0.0,0.0,0.0,0.0,0.0,0.0,0.0,0.0,0.0,0.0,0.0,0.0,0.0,0.0,0.0,0.0,0.0,0.0,0.0,0.0,0.0,0.0,0.0,-1.9485,-1.9381,0.0,0.0,0.0,0.0,0.0,0.0,0.0,0.0,-2.0023,0.0,0.0,0.0,0.0,0.0,0.0,0.0,0.0,0.0,0.0,0.0,0.0,0.0,0.0,0.0,0.0,0.0,0.0,0.0,0.0,0.0,0.0,0.0,0.0,0.0,0.0,0.0,0.0,0.0,0.0,0.0,0.0,0.0,0.0,0.0,0.0,0.0,0.0,0.0,0.0,0.0,0.0,0.0,0.0,0.0,0.0,0.0,0.0,0.0,0.0,0.0,0.0,0.0,0.0,0.0,0.0,-2.6488,-2.6593,-2.735,-2.881,-2.8938,-2.8975,-2.8957,-2.8254,-2.7445,-2.6652,0.0,0.0,0.0,0.0,0.0,0.0,0.0,0.0,0.0,0.0,0.0,0.0,0.0,0.0,0.0,0.0,0.0,0.0,0.0,0.0,0.0,0.0,0.0,0.0,0.0,0.0,0.0,0.0,0.0,0.0,0.0,0.0,0.0,0.0,0.0,0.0,0.0,0.0,0.0,-1.973,-1.9583,0.0,0.0,0.0,0.0,0.0,0.0,0.0,0.0,-2.0508,0.0,0.0,0.0,0.0,0.0,0.0,0.0,0.0,0.0,0.0,0.0,0.0,0.0,0.0,0.0,0.0,0.0,0.0,0.0,0.0,0.0,0.0,0.0,0.0,0.0,0.0,0.0,0.0,0.0,0.0,0.0,0.0,0.0,0.0,0.0,0.0,0.0,0.0,0.0,0.0,0.0,0.0,0.0,0.0,0.0,0.0,0.0,0.0,0.0,0.0,0.0,0.0,0.0,0.0,0.0,-2.6561,-2.703,-2.7805,-2.8938,-2.8975,-2.8975,-2.898,-2.8326,-2.7553,0.0,0.0,0.0,0.0,0.0,0.0,0.0,0.0,0.0,0.0,0.0,0.0,0.0,0.0,0.0,0.0,0.0,0.0,0.0,0.0,0.0,0.0,0.0,0.0,0.0,0.0,0.0,0.0,0.0,0.0,0.0,0.0,0.0,0.0,0.0,0.0,0.0,0.0,0.0,0.0,-2.0154,-2.0244,-2.1051,0.0,0.0,0.0,0.0,0.0,0.0,-2.039,-2.0209,0.0,0.0,0.0,0.0,0.0,0.0,0.0,0.0,0.0,0.0,0.0,0.0,0.0,0.0,0.0,0.0,0.0,0.0,0.0,0.0,0.0,0.0,0.0,0.0,0.0,0.0,0.0,0.0,0.0,0.0,0.0,0.0,0.0,0.0,0.0,0.0,0.0,0.0,0.0,0.0,0.0,0.0,0.0,0.0,0.0,0.0,0.0,0.0,0.0,0.0,0.0,0.0,0.0,0.0,0.0,-2.6595,-2.7395,-2.8191,-2.8962,-2.8975,-2.8975,-2.898,-2.8204,-2.7411,0.0,0.0,0.0,0.0,0.0,0.0,0.0,0.0,0.0,0.0,0.0,0.0,0.0,0.0,0.0,0.0,0.0,0.0,0.0,0.0,0.0,0.0,0.0,0.0,0.0,0.0,0.0,0.0,0.0,0.0,0.0,0.0,0.0,0.0,0.0,0.0,0.0,0.0,0.0,0.0,0.0,-2.0712,-2.1498,-2.0753,0.0,0.0,0.0,0.0,-2.0007,-2.0109,0.0,0.0,0.0,0.0,0.0,0.0,0.0,0.0,0.0,0.0,0.0,0.0,0.0,0.0,0.0,0.0,0.0,0.0,0.0,0.0,0.0,0.0,0.0,0.0,0.0,0.0,0.0,0.0,0.0,0.0,0.0,0.0,0.0,0.0,0.0,0.0,0.0,0.0,0.0,0.0,0.0,0.0,0.0,0.0,0.0,0.0,0.0,0.0,0.0,0.0,0.0,0.0,0.0,0.0,0.0,0.0,-2.6578,-2.7405,-2.8191,-2.8938,-2.8975,-2.8975,-2.8957,-2.7552,-2.6707,0.0,0.0,0.0,0.0,0.0,0.0,0.0,0.0,0.0,0.0,0.0,0.0,0.0,0.0,0.0,0.0,0.0,0.0,0.0,0.0,0.0,0.0,0.0,0.0,0.0,0.0,0.0,0.0,0.0,0.0,0.0,0.0,0.0,0.0,0.0,0.0,0.0,0.0,0.0,0.0,0.0,-2.0352,-2.0945,-2.0294,-1.9775,0.0,0.0,-2.0764,-2.0767,-2.1308,0.0,0.0,0.0,0.0,0.0,0.0,0.0,0.0,0.0,0.0,0.0,0.0,0.0,0.0,0.0,0.0,0.0,0.0,0.0,0.0,0.0,0.0,0.0,0.0,0.0,0.0,0.0,0.0,0.0,0.0,0.0,0.0,0.0,0.0,0.0,0.0,0.0,0.0,0.0,0.0,0.0,0.0,0.0,0.0,0.0,0.0,0.0,0.0,0.0,0.0,0.0,0.0,0.0,0.0,0.0,-2.5905,-2.6622,-2.7838,-2.8668,-2.8975,-2.8975,-2.8975,-2.8975,-2.7435,-2.6612,0.0,0.0,0.0,0.0,0.0,0.0,0.0,0.0,0.0,0.0,0.0,0.0,0.0,0.0,0.0,0.0,0.0,0.0,0.0,0.0,0.0,0.0,0.0,0.0,0.0,0.0,0.0,0.0,0.0,0.0,0.0,0.0,0.0,0.0,0.0,0.0,0.0,0.0,0.0,0.0,0.0,0.0,-2.0926,-2.0477,0.0,0.0,0.0,-2.0217,-1.9826,0.0,0.0,0.0,0.0,0.0,0.0,0.0,0.0,0.0,0.0,0.0,0.0,0.0,0.0,0.0,0.0,0.0,0.0,0.0,0.0,0.0,0.0,0.0,0.0,0.0,0.0,0.0,0.0,0.0,0.0,0.0,0.0,0.0,0.0,0.0,0.0,0.0,0.0,0.0,0.0,0.0,0.0,0.0,0.0,0.0,0.0,0.0,0.0,0.0,0.0,0.0,0.0,0.0,0.0,0.0,0.0,0.0,-2.6505,-2.8146,-2.8942,-2.8834,-2.8852,-2.8815,-2.8707,-2.7447,0.0,0.0,0.0,0.0,0.0,0.0,0.0,0.0,0.0,0.0,0.0,0.0,0.0,0.0,0.0,0.0,0.0,0.0,0.0,0.0,0.0,0.0,0.0,0.0,0.0,0.0,0.0,-1.8757,0.0,0.0,0.0,0.0,0.0,0.0,0.0,0.0,0.0,0.0,0.0,0.0,0.0,0.0,-2.1381,-2.0762,-2.0506,-2.0453,0.0,0.0,-1.9866,-1.9536,-2.0611,-2.094,0.0,0.0,0.0,0.0,0.0,0.0,0.0,0.0,0.0,0.0,0.0,0.0,0.0,0.0,0.0,0.0,0.0,0.0,0.0,0.0,0.0,0.0,0.0,0.0,0.0,0.0,0.0,0.0,0.0,0.0,0.0,0.0,0.0,0.0,0.0,0.0,0.0,0.0,0.0,0.0,0.0,0.0,0.0,0.0,0.0,0.0,0.0,0.0,0.0,0.0,0.0,0.0,0.0,0.0,-2.5793,-2.6197,-2.804,-2.8821,-2.8467,-2.846,-2.829,-2.7964,-2.7438,-2.6796,0.0,0.0,0.0,0.0,0.0,0.0,0.0,0.0,0.0,0.0,0.0,0.0,0.0,0.0,0.0,0.0,0.0,0.0,0.0,0.0,0.0,0.0,0.0,0.0,0.0,0.0,0.0,0.0,0.0,0.0,0.0,0.0,0.0,0.0,0.0,0.0,0.0,0.0,0.0,0.0,0.0,-2.0388,-2.0127,-2.0052,-2.0306,0.0,-2.05,-2.0221,-2.0923,-2.1701,-2.1718,-2.017,0.0,0.0,0.0,0.0,0.0,0.0,0.0,0.0,0.0,0.0,0.0,0.0,0.0,0.0,0.0,0.0,0.0,0.0,0.0,0.0,0.0,0.0,0.0,0.0,0.0,0.0,0.0,0.0,0.0,0.0,0.0,0.0,0.0,0.0,0.0,0.0,0.0,0.0,0.0,0.0,0.0,0.0,0.0,0.0,0.0,0.0,0.0,0.0,0.0,0.0,0.0,0.0,0.0,-2.5174,-2.5751,-2.7554,-2.8362,-2.8096,-2.8101,-2.8037,-2.7897,-2.7245,-2.6524,0.0,0.0,0.0,0.0,0.0,0.0,0.0,0.0,0.0,0.0,0.0,0.0,0.0,0.0,0.0,0.0,0.0,0.0,0.0,0.0,0.0,0.0,0.0,0.0,0.0,0.0,0.0,0.0,-1.9708,-1.97,-1.9278,0.0,0.0,0.0,0.0,0.0,0.0,0.0,0.0,0.0,0.0,-2.0867,-2.0763,-2.0737,0.0,0.0,-2.1312,-2.138,-2.1194,-2.2209,-2.2209,-2.0037,-1.9694,0.0,0.0,0.0,0.0,0.0,0.0,0.0,0.0,0.0,0.0,0.0,0.0,0.0,0.0,0.0,0.0,0.0,0.0,0.0,0.0,0.0,0.0,0.0,0.0,0.0,0.0,0.0,0.0,0.0,0.0,0.0,0.0,0.0,0.0,0.0,0.0,0.0,0.0,0.0,0.0,0.0,0.0,0.0,0.0,0.0,0.0,0.0,0.0,0.0,0.0,0.0,0.0,-2.4785,-2.5387,-2.7077,-2.79,-2.7729,-2.773,-2.7648,-2.7512,-2.711,-2.65,0.0,0.0,0.0,0.0,0.0,0.0,0.0,0.0,0.0,0.0,0.0,0.0,0.0,0.0,0.0,0.0,0.0,0.0,0.0,0.0,0.0,0.0,0.0,0.0,0.0,0.0,0.0,0.0,-1.9544,-1.9457,-1.8963,0.0,0.0,0.0,0.0,0.0,0.0,0.0,0.0,0.0,0.0,-2.1221,-2.1221,-2.1017,-2.1008,-2.1448,-2.1583,-2.1583,-2.1515,-2.2378,-2.2382,-2.04,0.0,0.0,0.0,0.0,0.0,0.0,0.0,0.0,0.0,0.0,0.0,0.0,0.0,0.0,0.0,0.0,0.0,0.0,0.0,0.0,0.0,0.0,0.0,0.0,0.0,0.0,0.0,-2.4189,0.0,0.0,-2.3631,0.0,0.0,0.0,0.0,0.0,0.0,0.0,0.0,0.0,0.0,0.0,0.0,0.0,0.0,0.0,0.0,0.0,0.0,0.0,0.0,0.0,0.0,-2.4653,-2.5118,-2.6708,-2.7447,-2.7316,-2.7319,-2.7115,-2.6774,-2.7098,-2.6905,-2.61,0.0,0.0,0.0,0.0,0.0,0.0,0.0,0.0,0.0,0.0,0.0,0.0,0.0,0.0,0.0,0.0,0.0,0.0,0.0,0.0,0.0,0.0,0.0,0.0,0.0,0.0,-1.7987,-1.8485,-1.8927,0.0,0.0,0.0,0.0,0.0,0.0,0.0,0.0,0.0,-1.8927,-2.023,-2.1221,-2.1237,-2.0551,-2.061,-2.2073,-2.1049,-2.061,-2.2073,-2.2344,-2.2123,0.0,0.0,0.0,0.0,0.0,0.0,0.0,0.0,0.0,0.0,0.0,0.0,0.0,0.0,0.0,0.0,0.0,0.0,0.0,0.0,0.0,0.0,0.0,0.0,0.0,0.0,0.0,-2.4878,-2.4675,0.0,0.0,0.0,0.0,0.0,0.0,0.0,0.0,0.0,0.0,0.0,-2.6644,-2.4787,0.0,0.0,0.0,0.0,0.0,0.0,0.0,0.0,0.0,0.0,0.0,0.0,-2.3577,-2.4695,-2.6219,-2.6937,-2.6894,-2.6892,-2.6841,-2.6725,-2.6841,-2.6548,-2.5817,0.0,0.0,0.0,0.0,0.0,0.0,0.0,0.0,0.0,0.0,0.0,0.0,0.0,0.0,0.0,0.0,0.0,0.0,0.0,0.0,0.0,0.0,0.0,0.0,0.0,-1.8801,0.0,0.0,0.0,0.0,0.0,0.0,0.0,0.0,0.0,0.0,0.0,-1.9841,-2.0365,-2.0416,-2.0788,-2.1786,-2.1278,-2.1329,0.0,0.0,0.0,0.0,0.0,0.0,0.0,0.0,0.0,0.0,0.0,0.0,0.0,0.0,-1.5834,-1.5343,-1.5527,-1.5655,-1.5251,0.0,0.0,0.0,0.0,0.0,0.0,0.0,0.0,0.0,0.0,0.0,0.0,0.0,0.0,-2.5539,0.0,-2.5103,0.0,0.0,0.0,0.0,0.0,0.0,0.0,0.0,-2.4988,-2.5866,-2.739,-2.548,-2.4655,0.0,-2.4461,-2.3853,0.0,0.0,0.0,0.0,0.0,0.0,0.0,0.0,-2.3031,-2.4492,-2.5947,-2.6708,-2.6708,-2.6708,-2.6708,-2.6708,-2.6708,-2.6538,-2.6207,-2.5365,-2.4737,0.0,0.0,0.0,0.0,0.0,0.0,0.0,0.0,0.0,0.0,0.0,0.0,0.0,0.0,0.0,0.0,0.0,0.0,0.0,0.0,0.0,0.0,0.0,-1.9286,0.0,0.0,0.0,0.0,0.0,0.0,0.0,0.0,0.0,-1.9384,-2.0154,-2.1008,-2.1515,-2.1346,-2.1465,-2.2209,0.0,0.0,0.0,0.0,0.0,0.0,0.0,-2.2422,-2.1021,-2.0984,-2.0758,-1.9589,-1.8738,-1.8179,-1.8122,0.0,0.0,-1.5764,-1.5787,-1.5768,-1.5372,-1.5272,-1.531,-1.5297,-1.4929,-1.4592,0.0,0.0,0.0,0.0,0.0,0.0,0.0,0.0,-2.6606,-2.6167,0.0,-2.5493,0.0,0.0,0.0,0.0,0.0,-2.4546,0.0,0.0,-2.6538,-2.7414,-2.6723,-2.6234,-2.5901,-2.5641,-2.538,-2.5023,-2.4591,-2.4574,0.0,0.0,0.0,0.0,0.0,0.0,-2.3048,-2.4526,-2.5964,-2.6708,-2.6708,-2.6708,-2.6708,-2.6708,-2.6708,-2.6873,-2.7206,-2.6224,-2.58,-2.613,-2.4462,0.0,0.0,0.0,0.0,0.0,0.0,0.0,0.0,0.0,0.0,0.0,0.0,0.0,0.0,0.0,0.0,0.0,0.0,0.0,0.0,-2.0015,0.0,0.0,0.0,0.0,0.0,0.0,0.0,0.0,0.0,0.0,-2.0229,-2.137,-2.2282,-2.2265,0.0,0.0,0.0,0.0,-2.2094,-2.1757,-2.1055,-2.0744,-2.1087,-2.1679,-2.2112,-2.2251,0.0,0.0,-2.1046,-1.9735,-1.8574,-1.7383,-1.729,-1.7048,-1.651,-1.5938,-1.5477,-1.5081,-1.5041,-1.4979,-1.4901,-1.4581,-1.4156,-2.6716,0.0,0.0,0.0,0.0,-2.5801,-2.6188,-2.7001,-2.6774,-2.6573,-2.6376,-2.6124,0.0,0.0,0.0,0.0,0.0,0.0,-2.4731,-2.4854,-2.5815,-2.6409,-2.6692,-2.6544,-2.6485,-2.637,-2.6284,-2.62,-2.6065,-2.6098,-2.5169,-2.341,0.0,0.0,0.0,0.0,-2.4003,-2.5253,-2.6218,-2.6708,-2.6708,-2.6708,-2.6708,-2.6708,-2.6708,-2.6758,-2.6873,-2.6555,-2.6199,-2.5785,-2.5266,0.0,0.0,0.0,0.0,0.0,0.0,0.0,0.0,0.0,0.0,0.0,0.0,0.0,0.0,0.0,0.0,0.0,0.0,0.0,-1.9303,-2.0207,-2.0424,0.0,0.0,0.0,0.0,0.0,0.0,0.0,0.0,0.0,-2.19,-2.2111,-2.218,0.0,0.0,-2.1341,-2.1383,-2.1339,-2.1633,-2.252,-2.2437,0.0,-2.3115,-2.2952,-2.2647,-2.2359,-2.2629,-2.2701,-2.2218,-2.1097,-2.0329,-2.0288,-1.9003,-1.7837,-1.7671,-1.6868,-1.6223,-1.6057,-1.6045,-1.5907,-1.5502,-1.5234,-1.5006,-2.7989,-2.7471,-2.6743,-2.65,-2.6651,-2.6422,-2.6853,-2.7673,-2.7459,-2.7298,-2.7202,-2.7102,-2.6677,-2.5967,-2.5473,0.0,0.0,0.0,-2.5246,-2.5829,-2.5961,-2.6265,-2.6698,-2.669,-2.6708,-2.6708,-2.6708,-2.6708,-2.6691,-2.6404,-2.5609,-2.4306,0.0,0.0,-2.3833,-2.418,-2.477,-2.5609,-2.6319,-2.6708,-2.6708,-2.6708,-2.6708,-2.6708,-2.6708,-2.6708,-2.6708,-2.6708,-2.6488,-2.6048,-2.5761,-2.5186,0.0,0.0,0.0,0.0,0.0,0.0,0.0,0.0,0.0,0.0,0.0,-2.3026,-2.2784,0.0,0.0,0.0,-2.1907,-2.116,-2.0733,-2.1267,0.0,0.0,0.0,0.0,0.0,0.0,0.0,-2.1023,-2.2085,-2.28,-2.2767,-2.2654,-2.257,-2.2573,-2.22,-2.1892,-2.1823,0.0,-2.2325,-2.2702,-2.276,-2.2844,-2.3101,-2.2978,-2.2863,-2.2851,-2.2949,-2.2942,-2.2685,-2.1896,-2.1195,-2.0882,-1.9661,-1.845,-1.8235,-1.7626,-1.7011,-1.6566,-1.6281,-1.5996,-1.5676,-1.5219,-1.4778,-2.8975,-2.8842,-2.7077,-2.659,-2.697,-2.6907,-2.746,-2.8376,-2.835,-2.8166,-2.7867,-2.8214,-2.7743,-2.667,-2.6,0.0,-2.6264,-2.5868,-2.6031,-2.6691,-2.6708,-2.6708,-2.6708,-2.6708,-2.6708,-2.6708,-2.6708,-2.6708,-2.6657,-2.6031,-2.5676,-2.5609,-2.5609,-2.5236,-2.4543,-2.492,-2.5308,-2.5625,-2.6268,-2.664,-2.6708,-2.6708,-2.6708,-2.6708,-2.6708,-2.6708,-2.6708,-2.6708,-2.6708,-2.6674,-2.6065,-2.5646,-2.5548,0.0,0.0,0.0,0.0,0.0,0.0,0.0,0.0,0.0,0.0,0.0,0.0,0.0,0.0,0.0,-2.3419,0.0,-2.3293,-2.2699,0.0,0.0,0.0,-2.0727,-2.1534,-2.1789,-2.2055,-2.2594,0.0,0.0,-2.3,-2.3,-2.3253,-2.3957,-2.3994,-2.3692,-2.3,-2.3428,-2.3585,-2.2516,-2.2394,-2.2286,-2.2199,-2.2454,-2.285,-2.3299,-2.3551,-2.3245,-2.2696,-2.2118,-2.1274,-2.0361,-1.9549,-1.892,-1.8367,-1.8242,-1.794,-1.6898,-1.6279,-1.5832,-1.5655,-1.4923,-1.4206,-2.8975,-2.8957,-2.8484,-2.8383,-2.8427,-2.7879,-2.7942,-2.8368,-2.8129,-2.8103,-2.8225,-2.8067,-2.7851,-2.7576,-2.7414,-2.7221,-2.6995,-2.6618,-2.6522,-2.6691,-2.6708,-2.6708,-2.6708,-2.6708,-2.6708,-2.6708,-2.6708,-2.6708,-2.6691,-2.6522,-2.615,-2.5625,-2.5609,-2.5236,-2.454,-2.4611,-2.4983,-2.5609,-2.5778,-2.615,-2.6674,-2.6708,-2.6708,-2.6708,-2.6708,-2.6708,-2.6708,-2.6708,-2.6708,-2.6691,-2.6522,-2.6185,-2.5615,-2.4736,0.0,0.0,0.0,0.0,0.0,0.0,0.0,0.0,0.0,-2.2498,-2.2062,0.0,-2.2556,0.0,-2.357,-2.3524,-2.2321,-2.2558,0.0,0.0,-2.1077,-2.1173,-2.2501,-2.2685,-2.2778,-2.2888,-2.3145,-2.3304,-2.3243,-2.2961,-2.3006,-2.3614,-2.3156,-2.2539,-2.2087,-2.2595,-2.2975,-2.2692,-2.2994,-2.3257,-2.3101,-2.2863,-2.276,-2.2905,-2.292,-2.268,-2.2053,-2.1805,-2.1465,-2.0758,-2.0065,-1.946,-1.892,-1.8783,-1.8593,-1.7978,-1.7663,-1.7251,-1.627,-1.5818,-1.5322,-2.8975,-2.9012,-2.918,-2.9369,-2.9465,-2.8531,-2.8237,-2.8394,-2.821,-2.8334,-2.8676,-2.8482,-2.8386,-2.8378,-2.8037,-2.7765,-2.7547,-2.6971,-2.6708,-2.6708,-2.6708,-2.6708,-2.6708,-2.6708,-2.6708,-2.6708,-2.6708,-2.6708,-2.6708,-2.6708,-2.6471,-2.6099,-2.6099,-2.571,-2.5,-2.4644,-2.4726,-2.5101,-2.5439,-2.5964,-2.6674,-2.6708,-2.6539,-2.6218,-2.6218,-2.6048,-2.5727,-2.571,-2.571,-2.5693,-2.571,-2.5527,-2.5112,-2.4399,-2.3837,0.0,0.0,0.0,0.0,0.0,0.0,0.0,0.0,0.0,0.0,0.0,-2.2613,-2.2816,-2.3635,-2.3637,-2.2456,-2.2716,-2.2831,-2.2503,-2.2124,-2.2308,-2.3492,-2.3425,-2.3345,-2.3593,-2.3561,-2.3483,-2.3416,-2.3224,-2.3206,-2.355,-2.316,-2.2803,-2.2645,-2.2862,-2.3086,-2.3086,-2.337,-2.3595,-2.3595,-2.3098,-2.2709,-2.2649,-2.2452,-2.21,-2.1744,-2.1472,-2.1161,-2.0845,-2.0245,-1.9723,-1.9434,-1.9371,-1.9258,-1.9032,-1.892,-1.8215,-1.658,-1.5974,-1.5412,-2.9195,-2.9342,-2.9693,-3.0035,-3.0259,-2.9214,-2.876,-2.876,-2.8778,-2.8991,-2.9305,-2.931,-2.9287,-2.9174,-2.8452,-2.8096,-2.7993,-2.7166,-2.6774,-2.6774,-2.6725,-2.6708,-2.6708,-2.6708,-2.6708,-2.6708,-2.6708,-2.6708,-2.6708,-2.6708,-2.6657,-2.6556,-2.6556,-2.6201,-2.5473,-2.4797,-2.4523,-2.4523,-2.5236,-2.5913,-2.6539,-2.6471,-2.6116,-2.549,-2.5456,-2.5152,-2.4557,-2.4523,-2.4523,-2.4523,-2.4523,-2.4546,-2.4622,-2.3924,-2.36,0.0,-2.2601,0.0,0.0,0.0,0.0,0.0,0.0,0.0,0.0,-2.2996,-2.2988,-2.2975,-2.3525,-2.3683,-2.3128,-2.3097,-2.3169,-2.3301,-2.3316,-2.3595,-2.4215,-2.3904,-2.3786,-2.4245,-2.3889,-2.3595,-2.3565,-2.3595,-2.3595,-2.3595,-2.355,-2.3518,-2.3565,-2.355,-2.355,-2.3595,-2.3595,-2.3595,-2.3551,-2.3098,-2.2663,-2.2558,-2.21,-2.1649,-2.1411,-2.1064,-2.0795,-2.0646,-2.0207,-1.9786,-1.9798,-1.9786,-1.9786,-1.9723,-1.971,-1.9015,-1.702,-1.6074,-1.5258,-3.0356,-3.0944,-3.1023,-3.1096,-3.1164,-3.0949,-3.0851,-3.0833,-3.0851,-3.0876,-3.0944,-3.0944,-3.0794,-3.0459,-2.9656,-2.9142,-2.8811,-2.7687,-2.7178,-2.7178,-2.6841,-2.6708,-2.6708,-2.6708,-2.6708,-2.6708,-2.6708,-2.6708,-2.6708,-2.6708,-2.6404,-2.5828,-2.5812,-2.5456,-2.4712,0.0,0.0,0.0,-2.5236,-2.5676,-2.5778,-2.5203,-2.4862,-2.4712,-2.4726,0.0,-2.4523,-2.4523,-2.4523,-2.4523,-2.4523,0.0,0.0,0.0,0.0,0.0,0.0,0.0,0.0,0.0,0.0,0.0,-2.1693,-2.1881,-2.2412,-2.2465,-2.2547,-2.2738,-2.2858,-2.3111,-2.3455,-2.3486,-2.3492,-2.3522,-2.3522,-2.361,-2.3728,-2.364,-2.3625,-2.3728,-2.3625,-2.3595,-2.3595,-2.3595,-2.3595,-2.3595,-2.3595,-2.3595,-2.3625,-2.364,-2.361,-2.3595,-2.3699,-2.364,-2.3595,-2.3142,-2.2555,-2.2053,-2.1805,-2.1315,-2.0471,-2.0597,-2.0547,-2.0156,-1.9901,-1.9798,-1.9798,-1.9798,-1.9798,-1.9798,-1.9798,-1.931,-1.771,-1.7233,-1.6742,-3.1017,-3.1446,-3.1843,-3.199,0.0,-3.2412,-3.2577,-3.2522,-3.1733,-3.1403,-3.1403,-3.1403,-3.1309,-3.1109,-3.0514,-3.0022,-2.9597,-2.8809,-2.8332,-2.8134,-2.7639,-2.7568,-2.7824,-2.7587,-2.7603,-2.7824,-2.7824,-2.7824,-2.7824,-2.7859,-2.7638,-2.7266,-2.6894,-2.6505,-2.6133,-2.5761,-2.5389,-2.505,-2.5423,-2.5778,-2.6099,-2.5778,-2.5406,-2.505,-2.5033,0.0,0.0,0.0,0.0,0.0,0.0,0.0,0.0,-2.4692,0.0,-2.4997,-2.4505,-2.4034,-2.3635,-2.3396,-2.3064,-2.269,-2.2637,-2.2611,-2.2534,-2.2778,-2.299,-2.3143,-2.3122,-2.3284,-2.355,-2.3595,-2.3595,-2.3595,-2.3595,-2.3595,-2.3595,-2.3595,-2.3595,-2.3595,-2.3595,-2.3595,-2.3595,-2.3595,-2.3595,-2.3625,-2.3894,-2.4088,-2.4103,-2.4103,-2.4193,-2.4522,-2.4597,-2.4597,-2.4507,-2.3758,-2.2955,-2.2345,-2.1691,-2.0881,-1.9991,-2.0055,-2.0144,-1.985,-1.9798,-1.9798,-1.9798,-1.9798,-1.9798,-1.9798,-1.9798,-1.9475,-1.8394,-1.7852,-1.7135,-3.1696,-3.188,-3.254,-3.2816,-3.2871,-3.3513,-3.3807,-3.3715,0.0,0.0,0.0,-3.1806,-3.1825,-3.1788,-3.1374,-3.098,-3.0594,-2.9969,-2.9523,-2.9175,-2.8516,-2.8477,-2.8958,-2.8631,-2.8648,-2.8975,-2.9011,-2.9011,-2.9011,-2.9011,-2.9011,-2.8924,-2.8349,-2.8027,-2.7977,-2.7266,-2.6607,-2.5999,-2.5744,-2.5896,-2.6471,-2.637,-2.6015,-2.5423,-2.5406,-2.5118,-2.454,-2.4523,-2.4523,-2.4523,-2.4425,-2.4492,-2.4661,-2.4644,-2.4695,-2.4847,-2.4513,-2.4307,-2.4287,-2.3864,-2.36,-2.3608,-2.3595,-2.3385,-2.2918,-2.331,-2.3595,-2.3595,-2.3595,-2.3595,-2.3595,-2.3595,-2.3595,-2.3595,-2.3595,-2.3595,-2.3595,-2.3595,-2.3595,-2.3595,-2.3595,-2.3595,-2.3595,-2.3595,-2.3655,-2.3819,-2.4253,-2.4716,-2.4851,-2.4881,-2.4956,-2.5375,-2.5265,-2.5337,-2.5416,-2.4608,-2.3631,-2.2951,-2.2027,-2.1027,-2.0233,-2.0003,-1.9952,-1.985,-1.9798,-1.9798,-1.9798,-1.9798,-1.9798,-1.9798,-1.9798,-1.9579,-1.8821,-1.8124,-1.7191,-3.2834,-3.3476,-3.3587,-3.3642,-3.3642,-3.3752,-3.3807,-3.3788,-3.3532,-3.3458,-3.3458,-3.3458,-3.3458,-3.3421,-3.269,-3.2326,-3.2173,-3.0773,-3.0074,-2.998,-2.8766,-2.8477,-2.9011,-2.9338,-2.9321,-2.9028,-2.9011,-2.9011,-2.9011,-2.9028,-2.9011,-2.8975,-2.8856,-2.8805,-2.8755,-2.8044,-2.7603,-2.7466,-2.6235,-2.5659,-2.5744,-2.5118,-2.4777,-2.4644,-2.4709,-2.4642,-2.4523,-2.454,-2.4523,-2.4506,-2.4127,-2.4365,-2.534,-2.5223,-2.5493,-2.6269,-2.5962,-2.5517,-2.5061,-2.4571,-2.405,-2.3666,-2.3595,-2.3565,-2.349,-2.355,-2.3595,-2.3595,-2.3595,-2.3595,-2.3595,-2.3595,-2.3595,-2.3595,-2.3595,-2.3595,-2.3595,-2.3595,-2.3595,-2.3595,-2.3595,-2.3595,-2.3595,-2.3625,-2.3864,-2.4283,-2.4627,-2.5061,-2.5914,-2.5824,-2.554,-2.5476,-2.5047,-2.4985,-2.5515,-2.4955,-2.4249,-2.3655,-2.3321,-2.2436,-2.0861,-2.0497,-2.0359,-1.9901,-1.9798,-1.9798,-1.9798,-1.9798,-1.9798,-1.9798,-1.9798,-1.9579,-1.8886,-1.8167,-1.7357,-3.3458,-3.3788,-3.3807,-3.3807,-3.3807,-3.3807,-3.3807,-3.3807,-3.3807,-3.3807,-3.3807,-3.3807,-3.3807,-3.377,-3.3421,-3.3003,-3.2517,-3.1791,-3.1194,-3.0714,-3.0122,-2.9968,-3.0176,-3.0421,-3.0404,-3.0192,-3.0192,-3.0192,-3.0192,-3.0176,-3.023,-3.0159,-2.9786,-2.9397,-2.8975,-2.8636,-2.8469,-2.842,-2.6962,-2.6201,-2.6201,-2.5862,-2.5676,-2.5676,-2.5676,-2.5676,-2.5693,-2.5676,-2.5676,-2.5676,-2.5492,-2.5644,-2.615,-2.6066,-2.6218,-2.6657,-2.6262,-2.5762,-2.5221,-2.443,-2.3864,-2.3623,-2.3595,-2.3595,-2.3595,-2.3595,-2.3595,-2.3595,-2.3595,-2.3595,-2.3595,-2.3595,-2.3595,-2.3595,-2.3595,-2.3595,-2.3595,-2.3595,-2.3595,-2.3595,-2.3595,-2.3595,-2.3595,-2.3924,-2.4194,-2.4597,-2.5151,-2.6048,-2.6961,-2.6871,-2.6662,-2.6662,-2.6401,-2.6352,-2.6583,-2.6075,-2.5326,-2.4409,-2.3606,-2.2575,-2.1076,-2.0547,-2.0194,-1.9901,-1.9798,-1.9798,-1.9798,-1.9798,-1.9798,-1.9798,-1.9798,-1.9643,-1.9267,-1.8715,-1.7731,-3.3807,-3.3807,-3.3807,-3.3807,-3.3807,-3.3807,-3.3807,-3.3807,-3.3807,-3.3807,-3.3807,-3.3807,-3.3807,-3.3807,-3.3807,-3.3372,-3.2713,-3.255,-3.2092,-3.1389,-3.123,-3.119,-3.119,-3.119,-3.119,-3.119,-3.119,-3.119,-3.119,-3.119,-3.119,-3.1123,-3.0632,-3.004,-2.9482,-2.9313,-2.9231,-2.9149,-2.791,-2.7148,-2.6962,-2.6809,-2.6691,-2.6708,-2.6691,-2.6708,-2.6708,-2.6708,-2.6708,-2.6708,-2.6708,-2.6708,-2.6708,-2.6708,-2.6657,-2.6505,-2.6104,-2.5577,-2.5028,-2.4282,-2.3794,-2.3794,-2.3794,-2.3767,-2.3595,-2.3595,-2.3595,-2.3595,-2.3595,-2.3595,-2.3595,-2.3595,-2.3595,-2.3595,-2.3595,-2.3595,-2.3595,-2.3595,-2.3595,-2.3595,-2.3595,-2.364,-2.3879,-2.4298,-2.4701,-2.5211,-2.6093,-2.6991,-2.7455,-2.756,-2.756,-2.756,-2.7458,-2.7348,-2.7494,-2.6941,-2.6076,-2.5063,-2.4143,-2.2937,-2.1591,-2.0584,-2.0093,-1.994,-1.9798,-1.9798,-1.9798,-1.9798,-1.9798,-1.9798,-1.9798,-1.9747,-1.9423,-1.9032,-1.8167,-3.3807,-3.3807,-3.3807,-3.3807,-3.3807,-3.3807,-3.3807,-3.3807,-3.3807,-3.3807,-3.3807,-3.3807,-3.3807,-3.3807,-3.3807,-3.355,-3.3124,-3.2681,-3.223,-3.1733,-3.1351,-3.119,-3.119,-3.119,-3.119,-3.119,-3.119,-3.119,-3.119,-3.119,-3.119,-3.119,-3.1123,-3.1038,-3.0886,-3.0328,-2.9998,-2.9978,-2.9188,-2.8438,-2.7725,-2.7063,-2.6708,-2.6708,-2.6708,-2.6708,-2.6708,-2.6708,-2.6708,-2.6708,-2.6708,-2.6708,-2.6708,-2.6708,-2.6521,-2.612,-2.5615,-2.5051,-2.4536,-2.4405,-2.4307,-2.4307,-2.4323,-2.4116,-2.3681,-2.3595,-2.3595,-2.3638,-2.3595,-2.3595,-2.3595,-2.3595,-2.3595,-2.3595,-2.3595,-2.3595,-2.3595,-2.3595,-2.3595,-2.3595,-2.3595,-2.3819,-2.4343,-2.4612,-2.5181,-2.6198,-2.6856,-2.7395,-2.758,-2.756,-2.756,-2.7458,-2.71,-2.7049,-2.7327,-2.6953,-2.6213,-2.5553,-2.5337,-2.3923,-2.2131,-2.1328,-2.1183,-1.9991,-1.9901,-1.9901,-1.9798,-1.9798,-1.9798,-1.9798,-1.9747,-1.9631,-1.9044,-1.8768,-1.8274,-3.3807,-3.3807,-3.3807,-3.3807,-3.3807,-3.3807,-3.3807,-3.3807,-3.3807,-3.3807,-3.3807,-3.3807,-3.3807,-3.3807,-3.3807,-3.3578,-3.3184,-3.2983,-3.25,-3.1808,-3.1376,-3.1185,-3.1173,-3.119,-3.119,-3.119,-3.119,-3.119,-3.119,-3.119,-3.119,-3.119,-3.119,-3.119,-3.1157,-3.0903,-3.0746,-3.0757,-3.0019,-2.9499,-2.9073,-2.7958,-2.7368,-2.73,-2.6928,-2.6708,-2.6708,-2.6708,-2.6708,-2.6708,-2.6708,-2.6708,-2.6708,-2.6708,-2.6624,-2.6401,-2.5961,-2.5449,-2.4894,-2.4871,-2.4871,-2.4871,-2.4855,-2.4672,-2.4142,-2.4074,-2.4074,-2.4032,-2.3794,-2.3595,-2.3595,-2.3595,-2.3595,-2.3595,-2.3595,-2.361,-2.3595,-2.3595,-2.3595,-2.3595,-2.3595,-2.3864,-2.4567,-2.5315,-2.6123,-2.6991,-2.7425,-2.7545,-2.756,-2.756,-2.756,-2.7575,-2.7306,-2.7306,-2.7429,-2.6667,-2.5879,-2.5072,-2.404,-2.2636,-2.1786,-2.1175,-2.0818,-1.994,-2.0105,-2.0105,-1.985,-1.9798,-1.9798,-1.9798,-1.9798,-1.9695,-1.9423,-1.8992,-1.8608,-3.3807,-3.3807,-3.3807,-3.3807,-3.3807,-3.3807,-3.3807,-3.3807,-3.3807,-3.3807,-3.3807,-3.3807,-3.3807,-3.3807,-3.3807,-3.3578,-3.3243,-3.3214,-3.2759,-3.1987,-3.1463,-3.1246,-3.1338,-3.1249,-3.1206,-3.1173,-3.119,-3.119,-3.119,-3.119,-3.119,-3.119,-3.119,-3.119,-3.119,-3.119,-3.119,-3.114,-3.0649,-3.0386,-3.0224,-2.9121,-2.8212,-2.7824,-2.73,-2.6911,-2.6708,-2.6708,-2.6708,-2.6708,-2.6708,-2.6708,-2.6708,-2.6708,-2.6657,-2.6455,-2.6054,-2.5689,-2.5411,-2.5411,-2.5411,-2.5411,-2.5411,-2.5182,-2.4736,-2.4632,-2.4617,-2.4592,-2.4431,-2.4288,-2.3816,-2.3835,-2.388,-2.3891,-2.4008,-2.4111,-2.3934,-2.3889,-2.3816,-2.3625,-2.3595,-2.3939,-2.4852,-2.5989,-2.7021,-2.7425,-2.7545,-2.756,-2.756,-2.756,-2.756,-2.756,-2.7575,-2.7575,-2.7515,-2.6737,-2.5681,-2.4892,-2.3751,-2.2693,-2.1518,-2.1251,-2.0894,-2.0497,-2.0597,-2.0409,-1.9952,-1.9798,-1.9798,-1.9798,-1.9798,-1.9798,-1.9695,-1.9319,-1.8874,-3.3807,-3.3807,-3.3807,-3.3807,-3.3807,-3.3807,-3.3807,-3.3807,-3.3807,-3.3807,-3.3807,-3.3807,-3.3807,-3.3807,-3.3807,-3.3578,-3.3243,-3.3243,-3.2983,-3.2413,-3.1683,-3.1446,-3.1737,-3.1369,-3.1216,-3.1213,-3.119,-3.119,-3.119,-3.119,-3.119,-3.119,-3.119,-3.119,-3.119,-3.119,-3.119,-3.1173,-3.1106,-3.1123,-3.1038,-3.0378,-2.9296,-2.806,-2.7755,-2.7452,-2.6843,-2.6725,-2.6708,-2.6708,-2.6708,-2.6708,-2.6708,-2.6708,-2.6539,-2.6101,-2.5582,-2.5503,-2.5888,-2.5977,-2.5961,-2.5961,-2.5961,-2.5742,-2.5243,-2.5182,-2.5214,-2.5214,-2.5718,-2.5535,-2.4798,-2.476,-2.4732,-2.4714,-2.5157,-2.5129,-2.4587,-2.4468,-2.4245,-2.3758,-2.3729,-2.4253,-2.539,-2.6707,-2.735,-2.7545,-2.756,-2.756,-2.756,-2.756,-2.756,-2.756,-2.756,-2.756,-2.7565,-2.6594,-2.6035,-2.525,-2.4229,-2.3647,-2.2904,-2.2114,-2.1452,-2.0832,-2.0446,-2.0156,-1.9901,-1.9798,-1.9798,-1.9798,-1.9798,-1.9798,-1.9798,-1.9798,-1.9307,-3.3807,-3.3807,-3.3807,-3.3807,-3.3807,-3.3807,-3.3807,-3.3807,-3.3807,-3.3807,-3.3807,-3.3807,-3.3807,-3.3807,-3.3807,-3.3734,-3.3578,-3.3578,-3.3361,-3.2965,-3.288,-3.2497,-3.1756,-3.1388,-3.1182,-3.1179,-3.119,-3.119,-3.119,-3.119,-3.119,-3.119,-3.119,-3.119,-3.119,-3.119,-3.119,-3.119,-3.119,-3.119,-3.1173,-3.0937,-3.0294,-2.9347,-2.8822,-2.8213,-2.7401,-2.7418,-2.7199,-2.6725,-2.6708,-2.6708,-2.6708,-2.6708,-2.6657,-2.6472,-2.6248,-2.6245,-2.6401,-2.6436,-2.6436,-2.6436,-2.6436,-2.6245,-2.5835,-2.5705,-2.5922,-2.6308,-2.6267,-2.6294,-2.6749,-2.6576,-2.6377,-2.6376,-2.6171,-2.5832,-2.5253,-2.478,-2.423,-2.3863,-2.4283,-2.5121,-2.5674,-2.6752,-2.758,-2.756,-2.756,-2.756,-2.756,-2.756,-2.756,-2.756,-2.756,-2.756,-2.756,-2.6214,-2.516,-2.4621,-2.3832,-2.2667,-2.1704,-2.1946,-2.1534,-2.0868,-2.0333,-2.0144,-2.0042,-1.9798,-1.9798,-1.9798,-1.9798,-1.9798,-1.9798,-1.9695,-1.915,-3.3807,-3.3807,-3.3807,-3.3807,-3.3807,-3.3807,-3.3807,-3.3807,-3.3807,-3.3807,-3.3807,-3.3807,-3.3807,-3.3807,-3.3807,-3.3807,-3.3807,-3.3807,-3.3652,-3.3437,-3.3673,-3.3242,-3.2348,-3.1811,-3.1602,-3.1623,-3.1449,-3.1312,-3.119,-3.119,-3.119,-3.119,-3.119,-3.119,-3.119,-3.119,-3.119,-3.119,-3.119,-3.119,-3.119,-3.119,-3.0987,-3.048,-2.9956,-2.9211,-2.8247,-2.7924,-2.7655,-2.7233,-2.6877,-2.6708,-2.6708,-2.6708,-2.6708,-2.6708,-2.6691,-2.6708,-2.6708,-2.6708,-2.6691,-2.6708,-2.6691,-2.6539,-2.6262,-2.6443,-2.6825,-2.7184,-2.7575,-2.7899,-2.8027,-2.8053,-2.7801,-2.7288,-2.6831,-2.6236,-2.5311,-2.4744,-2.4364,-2.4207,-2.5093,-2.5772,-2.6083,-2.7146,-2.764,-2.7675,-2.756,-2.756,-2.756,-2.756,-2.756,-2.756,-2.756,-2.756,-2.7365,-2.6332,-2.5461,-2.4875,-2.39,-2.2447,-2.1629,-2.1852,-2.1615,-2.0953,-2.0534,-2.0333,-2.0144,-1.9901,-1.9798,-1.9798,-1.9798,-1.9798,-1.9695,-1.9475,-1.9097,-3.3807,-3.3807,-3.3807,-3.3807,-3.3807,-3.3807,-3.3807,-3.3807,-3.3807,-3.3807,-3.3807,-3.3807,-3.3807,-3.3807,-3.3807,-3.3807,-3.3753,-3.3734,-3.3707,-3.368,-3.3762,-3.353,-3.2996,-3.2554,-3.2264,-3.2196,-3.1933,-3.1565,-3.123,-3.119,-3.119,-3.119,-3.119,-3.119,-3.119,-3.119,-3.119,-3.119,-3.119,-3.119,-3.119,-3.119,-3.1173,-3.1123,-3.1038,-3.0412,-2.9093,-2.8349,-2.801,-2.7893,-2.7165,-2.6725,-2.6708,-2.6708,-2.6708,-2.6708,-2.6708,-2.6708,-2.6708,-2.6708,-2.6708,-2.6708,-2.6708,-2.6691,-2.6708,-2.7164,-2.7585,-2.7853,-2.8747,-2.9353,-2.8498,-2.876,-2.8458,-2.6961,-2.6994,-2.647,-2.5201,-2.4634,-2.4593,-2.4717,-2.5621,-2.6428,-2.6803,-2.7504,-2.8012,-2.771,-2.756,-2.756,-2.756,-2.756,-2.756,-2.756,-2.756,-2.756,-2.7096,-2.6557,-2.6019,-2.5373,-2.4253,-2.3084,-2.2575,-2.2515,-2.2007,-2.1342,-2.0534,-2.0295,-1.9991,-1.9798,-1.9798,-1.9798,-1.9798,-1.9798,-1.9695,-1.9527,-1.9371,-3.3807,-3.3807,-3.3807,-3.3807,-3.3807,-3.3807,-3.3807,-3.3807,-3.3807,-3.3807,-3.3807,-3.3807,-3.3807,-3.3807,-3.3807,-3.3634,-3.339,-3.3408,-3.339,-3.3444,-3.3655,-3.3394,-3.2781,-3.2574,-3.2161,-3.1674,-3.1449,-3.1351,-3.123,-3.119,-3.119,-3.119,-3.119,-3.119,-3.119,-3.119,-3.119,-3.119,-3.119,-3.119,-3.119,-3.119,-3.119,-3.119,-3.119,-3.0937,-3.0514,-2.9786,-2.8665,-2.738,-2.6856,-2.6707,-2.6708,-2.6708,-2.6708,-2.6708,-2.6708,-2.6708,-2.6708,-2.6708,-2.6708,-2.6708,-2.6708,-2.6708,-2.6708,-2.6928,-2.7299,-2.7687,-2.8279,-2.846,-2.8748,-2.8946,-2.8451,-2.7248,-2.6828,-2.6444,-2.5485,-2.4921,-2.4627,-2.4741,-2.5751,-2.6494,-2.6729,-2.7452,-2.7929,-2.771,-2.7625,-2.7625,-2.761,-2.761,-2.756,-2.756,-2.756,-2.75,-2.7081,-2.6482,-2.5762,-2.5086,-2.4134,-2.3348,-2.3039,-2.2606,-2.21,-2.1547,-2.0782,-2.0258,-1.9952,-1.9798,-1.9798,-1.9798,-1.9798,-1.9798,-1.9798,-1.9695,-1.9527,-3.3807,-3.3807,-3.3807,-3.3807,-3.3807,-3.3807,-3.3807,-3.3807,-3.3807,-3.3807,-3.3807,-3.3807,-3.3807,-3.3807,-3.3807,-3.3662,-3.3419,-3.3437,-3.3332,-3.3202,-3.3212,-3.2987,-3.2553,-3.251,-3.2157,-3.1576,-3.1411,-3.1351,-3.1173,-3.119,-3.119,-3.119,-3.119,-3.119,-3.119,-3.119,-3.119,-3.119,-3.119,-3.119,-3.119,-3.119,-3.119,-3.119,-3.119,-3.119,-3.1157,-3.0734,-2.985,-2.8513,-2.77,-2.7231,-2.7097,-2.6877,-2.6708,-2.6708,-2.6708,-2.6708,-2.6708,-2.6708,-2.6708,-2.6708,-2.6708,-2.6708,-2.6759,-2.6877,-2.7332,-2.7456,-2.8089,-2.8252,-2.813,-2.8334,-2.7888,-2.685,-2.696,-2.6732,-2.6252,-2.5678,-2.5544,-2.5854,-2.6477,-2.6841,-2.7105,-2.7773,-2.8076,-2.8042,-2.7959,-2.7959,-2.7894,-2.7745,-2.766,-2.756,-2.756,-2.741,-2.7126,-2.6389,-2.5506,-2.4665,-2.3849,-2.3259,-2.283,-2.2285,-2.1758,-2.1307,-2.066,-2.0308,-2.0003,-1.985,-1.9798,-1.9798,-1.9747,-1.9798,-1.9798,-1.9798,-1.9695,-3.3807,-3.3807,-3.3807,-3.3807,-3.3807,-3.3807,-3.3807,-3.3807,-3.3807,-3.3807,-3.3807,-3.3807,-3.3807,-3.3807,-3.3807,-3.3734,-3.3734,-3.368,-3.3437,-3.3075,-3.2781,-3.2502,-3.2299,-3.2335,-3.2127,-3.1714,-3.166,-3.149,-3.119,-3.119,-3.119,-3.119,-3.119,-3.119,-3.119,-3.119,-3.119,-3.119,-3.119,-3.119,-3.119,-3.119,-3.119,-3.119,-3.119,-3.119,-3.1173,-3.1106,-3.1099,-3.0806,-2.9117,-2.8185,-2.7828,-2.7182,-2.6996,-2.7029,-2.6877,-2.6962,-2.6894,-2.7063,-2.6979,-2.6894,-2.6877,-2.6708,-2.6776,-2.7148,-2.7431,-2.7391,-2.8169,-2.8289,-2.725,-2.7337,-2.7164,-2.6399,-2.7066,-2.7327,-2.7237,-2.6701,-2.6688,-2.7167,-2.7483,-2.7596,-2.7694,-2.8544,-2.8717,-2.8463,-2.8286,-2.8238,-2.814,-2.7845,-2.766,-2.753,-2.747,-2.7186,-2.6856,-2.5959,-2.5103,-2.4547,-2.3593,-2.285,-2.2543,-2.2053,-2.152,-2.1028,-2.051,-2.0258,-2.0003,-1.9798,-1.9592,-1.9475,-1.954,-1.9695,-1.9527,-1.9307,-1.9254,-3.3807,-3.3807,-3.3807,-3.3807,-3.3807,-3.3807,-3.3807,-3.3807,-3.3807,-3.3807,-3.3807,-3.3807,-3.3807,-3.3807,-3.3807,-3.3652,-3.3465,-3.3408,-3.3105,-3.2713,-3.2601,-3.2092,-3.1714,-3.1842,-3.177,-3.1411,-3.1372,-3.1274,-3.119,-3.119,-3.119,-3.119,-3.119,-3.119,-3.119,-3.119,-3.119,-3.119,-3.119,-3.119,-3.119,-3.119,-3.119,-3.119,-3.119,-3.119,-3.119,-3.119,-3.0903,-3.0404,-2.9782,-2.9125,-2.8699,-2.844,-2.8247,-2.8264,-2.8298,-2.8349,-2.8332,-2.8315,-2.8095,-2.7588,-2.752,-2.73,-2.6742,-2.6877,-2.7179,-2.7403,-2.7661,-2.7643,-2.7591,-2.7794,-2.8043,-2.8629,-2.7525,-2.6561,-2.6546,-2.6816,-2.7349,-2.755,-2.8292,-2.8451,-2.8418,-2.8463,-2.8591,-2.814,-2.8008,-2.7959,-2.7993,-2.7845,-2.761,-2.7365,-2.7215,-2.6901,-2.6393,-2.5495,-2.476,-2.434,-2.3426,-2.232,-2.2114,-2.196,-2.1452,-2.0944,-2.0181,-1.9786,-1.9579,-1.9411,-1.9267,-1.8992,-1.8715,-1.8555,-1.834,-1.8124,-1.8178,-3.3807,-3.3807,-3.3807,-3.3807,-3.3807,-3.3807,-3.3807,-3.3807,-3.3807,-3.3807,-3.3807,-3.3807,-3.3807,-3.3807,-3.3807,-3.3662,-3.3465,-3.3447,-3.3196,-3.2777,-3.2384,-3.1845,-3.1408,-3.1479,-3.1428,-3.123,-3.119,-3.119,-3.119,-3.119,-3.119,-3.119,-3.119,-3.119,-3.119,-3.119,-3.119,-3.119,-3.119,-3.119,-3.119,-3.119,-3.119,-3.119,-3.119,-3.119,-3.119,-3.119,-3.097,-3.0548,-3.0133,-2.9731,-2.9462,-2.9151,-2.8986,-2.8992,-2.8783,-2.8682,-2.8901,-2.8774,-2.8535,-2.8328,-2.8298,-2.7909,-2.7385,-2.7165,-2.7383,-2.7381,-2.7403,-2.7591,-2.7753,-2.7849,-2.8255,-2.849,-2.7469,-2.6743,-2.7406,-2.784,-2.792,-2.8074,-2.8295,-2.8685,-2.8463,-2.8511,-2.8463,-2.8352,-2.8222,-2.814,-2.8042,-2.7795,-2.743,-2.7165,-2.6752,-2.6344,-2.5616,-2.4724,-2.3656,-2.3285,-2.28,-2.1766,-2.1438,-2.1438,-2.1064,-2.0434,-1.9773,-1.9307,-1.9202,-1.8927,-1.8436,-1.8112,-1.7731,-1.7578,-1.7523,-1.7302,-1.7357,-3.3807,-3.3807,-3.3807,-3.3807,-3.3807,-3.3807,-3.3807,-3.3807,-3.3807,-3.3807,-3.3807,-3.3807,-3.3734,-3.3734,-3.3652,-3.3662,-3.3606,-3.3447,-3.3277,-3.2805,-3.2263,-3.1614,-3.1244,-3.1215,-3.1252,-3.119,-3.119,-3.119,-3.119,-3.119,-3.119,-3.119,-3.119,-3.119,-3.1185,-3.1202,-3.1185,-3.1168,-3.1196,-3.1179,-3.1168,-3.119,-3.1151,-3.0958,-3.0838,-3.0821,-3.0838,-3.0918,-3.0845,-3.0958,-3.0487,-3.0289,-3.014,-2.9563,-2.9353,-2.9326,-2.9093,-2.8987,-2.9114,-2.8965,-2.8611,-2.8871,-2.8874,-2.8592,-2.7808,-2.7534,-2.7487,-2.7465,-2.7732,-2.778,-2.7826,-2.7703,-2.803,-2.8275,-2.7971,-2.8498,-2.9508,-2.9214,-2.8513,-2.8525,-2.8036,-2.8128,-2.8367,-2.8638,-2.8779,-2.8904,-2.8732,-2.8498,-2.8216,-2.7791,-2.7309,-2.6756,-2.6249,-2.5649,-2.479,-2.3883,-2.2824,-2.2007,-2.1704,-2.1042,-2.0534,-2.0383,-2.0232,-1.9888,-1.9786,-1.9359,-1.8874,-1.8436,-1.7841,-1.7346,-1.7024,-1.7135,-1.718,-1.6856,-1.6743,-3.3807,-3.3807,-3.3807,-3.3807,-3.3807,-3.3807,-3.3807,-3.378,-3.378,-3.3734,-3.378,-3.378,-3.3578,-3.3332,-3.3302,-3.3136,-3.2854,-3.2822,-3.2624,-3.232,-3.2022,-3.1581,-3.1261,-3.1198,-3.1173,-3.119,-3.119,-3.119,-3.119,-3.1151,-3.119,-3.119,-3.1055,-3.119,-3.1168,-3.1156,-3.118,-3.1173,-3.1163,-3.1089,-3.1089,-3.1055,-3.0878,-3.0518,-3.0081,-2.9848,-2.9805,-2.9805,-2.9805,-2.9946,-3.0451,-3.0712,-3.0684,-3.0622,-3.046,-3.0359,-3.0392,-3.0421,-3.051,-2.9945,-2.9609,-2.9121,-2.878,-2.8117,-2.7429,-2.7397,-2.7591,-2.7769,-2.7759,-2.7842,-2.8165,-2.8238,-2.856,-2.892,-2.8715,-2.8563,-2.9258,-2.8943,-2.8527,-2.8539,-2.8763,-2.9058,-2.9134,-2.8979,-2.9087,-2.9329,-2.9096,-2.8878,-2.8323,-2.7659,-2.6964,-2.6166,-2.5679,-2.5025,-2.4227,-2.3317,-2.2295,-2.134,-2.0921,-2.056,-2.0105,-2.0003,-2.0093,-2.0093,-2.0042,-1.9463,-1.8608,-1.8004,-1.7413,-1.6912,-1.6358,-1.6358,-1.6301,-1.614,-1.614,-3.3196,-3.3178,-3.3196,-3.3178,-3.3196,-3.3196,-3.3196,-3.3196,-3.3178,-3.3178,-3.3178,-3.3178,-3.3075,-3.289,-3.2858,-3.2713,-3.2484,-3.223,-3.2109,-3.1917,-3.1662,-3.1405,-3.1244,-3.121,-3.119,-3.119,-3.119,-3.119,-3.1151,-3.0958,-3.0878,-3.1095,-3.0716,-3.0518,-3.0816,-3.104,-3.0836,-3.0382,-3.0363,-3.0363,-3.0368,-3.0335,-3.0251,-2.9935,-2.9585,-2.9406,-2.9451,-2.9406,-2.9406,-2.954,-2.9978,-3.036,-3.0379,-3.036,-3.0377,-3.0335,-3.0021,-3.0123,-3.0064,-2.9832,-2.9347,-2.9312,-2.8962,-2.843,-2.7912,-2.7705,-2.7849,-2.8152,-2.8075,-2.8059,-2.8449,-2.8156,-2.8652,-2.9089,-2.892,-2.867,-2.8845,-2.8697,-2.8514,-2.8543,-2.8701,-2.9042,-2.9164,-2.8819,-2.8462,-2.8275,-2.7441,-2.7226,-2.7042,-2.6411,-2.6123,-2.55,-2.5032,-2.4401,-2.3653,-2.2783,-2.1828,-2.1091,-2.056,-2.0245,-1.9901,-2.0003,-2.0194,-2.0042,-1.9734,-1.898,-1.8167,-1.7578,-1.6912,-1.6244,-1.5748,-1.5526,-1.5468,-1.5633,-1.569,-3.255,-3.2583,-3.2517,-3.255,-3.2583,-3.2568,-3.255,-3.255,-3.2517,-3.2616,-3.2517,-3.2517,-3.255,-3.2417,-3.2417,-3.2384,-3.2179,-3.1933,-3.1662,-3.166,-3.1393,-3.1257,-3.1179,-3.1213,-3.119,-3.119,-3.119,-3.119,-3.1055,-3.074,-3.0861,-3.0958,-3.0309,-3.0309,-3.0575,-3.0707,-3.0669,-3.0103,-3.0098,-3.0022,-2.9908,-2.9848,-2.9673,-2.9496,-2.9271,-2.9271,-2.9316,-2.9271,-2.9225,-2.9271,-2.918,-2.9111,-2.9156,-2.9377,-2.9366,-2.9398,-2.9169,-2.9225,-2.9451,-2.9058,-2.881,-2.9225,-2.9057,-2.8803,-2.8239,-2.8007,-2.8054,-2.8099,-2.8058,-2.8091,-2.8325,-2.7987,-2.8022,-2.8354,-2.8499,-2.8431,-2.8482,-2.8513,-2.8467,-2.8275,-2.8124,-2.8186,-2.8186,-2.7905,-2.7534,-2.7072,-2.6244,-2.5634,-2.5497,-2.5284,-2.5016,-2.4384,-2.3802,-2.3487,-2.2801,-2.2264,-2.1334,-2.0868,-2.0283,-1.9825,-1.9527,-1.9242,-1.923,-1.9463,-1.9097,-1.8447,-1.7743,-1.7146,-1.6425,-1.5642,-1.5352,-1.5294,-1.5294,-1.5235,-1.5118,-3.2731,-3.3063,-3.2648,-3.2713,-3.2965,-3.2681,-3.2484,-3.2517,-3.2484,-3.2517,-3.2517,-3.2484,-3.2264,-3.2039,-3.1933,-3.177,-3.1545,-3.1411,-3.1351,-3.1351,-3.1213,-3.119,-3.119,-3.119,-3.119,-3.119,-3.119,-3.119,-3.119,-3.1095,-3.0958,-3.1095,-3.0821,-3.0781,-3.0699,-3.0601,-3.0507,-3.0434,-3.0514,-3.0573,-3.0443,-3.0166,-2.9761,-2.9406,-2.9058,-2.9058,-2.9196,-2.8919,-2.8638,-2.8591,-2.8174,-2.8,-2.8088,-2.8747,-2.9155,-2.92,-2.9077,-2.8996,-2.9088,-2.8779,-2.8559,-2.8511,-2.8207,-2.7978,-2.7762,-2.7731,-2.7722,-2.7753,-2.7719,-2.7697,-2.7724,-2.746,-2.7831,-2.8143,-2.8039,-2.7891,-2.8233,-2.8278,-2.8027,-2.7489,-2.7254,-2.7043,-2.699,-2.6749,-2.6214,-2.5971,-2.5606,-2.4987,-2.4702,-2.4402,-2.4073,-2.3267,-2.2385,-2.217,-2.188,-2.1458,-2.0894,-2.062,-2.0067,-1.9347,-1.8874,-1.8274,-1.8112,-1.8197,-1.837,-1.8112,-1.7413,-1.6708,-1.6026,-1.5342,-1.5225,-1.5167,-1.4746,-1.4392,-1.4094,-3.2616,-3.2809,-3.2583,-3.2634,-3.2763,-3.235,-3.2282,-3.2433,-3.2248,-3.2282,-3.2451,-3.2484,-3.223,-3.188,-3.1789,-3.1565,-3.1291,-3.119,-3.119,-3.119,-3.119,-3.119,-3.119,-3.119,-3.119,-3.119,-3.119,-3.1151,-3.1151,-3.0821,-3.0918,-3.0958,-3.0642,-3.0435,-3.0609,-3.0281,-3.0113,-3.0382,-3.0461,-3.0467,-3.03,-2.9935,-2.9629,-2.9406,-2.9134,-2.9134,-2.918,-2.8826,-2.8511,-2.8383,-2.7959,-2.7437,-2.7386,-2.7575,-2.81,-2.8454,-2.8519,-2.8496,-2.848,-2.8174,-2.8042,-2.7944,-2.7444,-2.7306,-2.7357,-2.7327,-2.7255,-2.7429,-2.7155,-2.7045,-2.7,-2.6775,-2.6796,-2.7166,-2.7101,-2.7132,-2.7302,-2.7364,-2.6909,-2.6426,-2.6456,-2.6277,-2.5967,-2.5556,-2.4904,-2.4701,-2.4732,-2.4298,-2.3807,-2.3376,-2.2968,-2.2409,-2.1635,-2.1588,-2.1363,-2.0966,-2.066,-2.0396,-1.9748,-1.8967,-1.8424,-1.7818,-1.7136,-1.6725,-1.697,-1.7158,-1.7079,-1.6368,-1.5728,-1.5099,-1.4805,-1.4451,-1.3906,-1.3485,-1.3114,-3.2517,-3.2517,-3.2517,-3.2451,-3.2298,-3.1951,-3.1968,-3.2109,-3.1842,-3.1878,-3.2196,-3.2179,-3.1968,-3.1733,-3.1623,-3.147,-3.119,-3.119,-3.119,-3.1168,-3.1173,-3.1173,-3.1032,-3.1127,-3.1056,-3.0601,-3.0658,-3.0918,-3.0878,-3.0559,-3.0576,-3.0418,-2.9761,-2.9629,-2.9968,-2.9891,-2.964,-2.9595,-2.9672,-2.9688,-2.9319,-2.9225,-2.9225,-2.9225,-2.9225,-2.9225,-2.9316,-2.8826,-2.8511,-2.8334,-2.7959,-2.735,-2.6875,-2.6712,-2.7049,-2.7473,-2.7473,-2.7423,-2.7408,-2.766,-2.761,-2.7357,-2.6982,-2.7152,-2.7203,-2.7086,-2.6707,-2.696,-2.668,-2.6258,-2.6234,-2.5807,-2.5759,-2.5983,-2.6189,-2.6165,-2.6217,-2.6122,-2.5664,-2.5426,-2.5625,-2.5218,-2.4568,-2.4072,-2.3335,-2.322,-2.3219,-2.2822,-2.2334,-2.2072,-2.1759,-2.1492,-2.1121,-2.1121,-2.0939,-2.067,-2.0396,-2.0245,-1.9374,-1.8424,-1.7981,-1.7467,-1.6557,-1.536,-1.5486,-1.5668,-1.5823,-1.5766,-1.4836,-1.4136,-1.4025,-1.3468,-1.2602,-1.2112,-1.1804,-3.2517,-3.25,-3.25,-3.2264,-3.1863,-3.1757,-3.1588,-3.1342,-3.1253,-3.1291,-3.1394,-3.1359,-3.1329,-3.1181,-3.1176,-3.1184,-3.1128,-3.0987,-3.0881,-3.0785,-3.1046,-3.0842,-3.0492,-3.0986,-3.0337,-2.9805,-2.9609,-2.9935,-3.0048,-3.0048,-3.0038,-2.9717,-2.9569,-2.9451,-2.9585,-2.9332,-2.9422,-2.9361,-2.9393,-2.9166,-2.8685,-2.8575,-2.8575,-2.8575,-2.8607,-2.8732,-2.8995,-2.8544,-2.8304,-2.8255,-2.783,-2.7509,-2.7473,-2.7488,-2.7473,-2.7372,-2.7049,-2.663,-2.6826,-2.7306,-2.7306,-2.7049,-2.6982,-2.7423,-2.7086,-2.6707,-2.6229,-2.5659,-2.5564,-2.554,-2.5518,-2.5374,-2.5396,-2.5356,-2.5283,-2.5307,-2.5316,-2.4717,-2.4253,-2.3387,-2.3219,-2.307,-2.2633,-2.2207,-2.1841,-2.1779,-2.1657,-2.1293,-2.1051,-2.0966,-2.0818,-2.067,-2.0508,-2.0458,-2.0231,-2.0016,-1.9799,-1.9773,-1.8955,-1.7872,-1.7313,-1.6634,-1.4896,-1.404,-1.41,-1.3656,-1.3219,-1.3116,-1.3158,-1.3036,-1.2655,-1.1912,-1.1044,-1.0676,-1.0425,-3.1257,-3.1257,-3.1257,-3.1126,-3.0931,-3.068,-3.0612,-3.0629,-3.0402,-3.0437,-3.0629,-3.0681,-3.0543,-3.0309,-3.0091,-2.9922,-2.9939,-2.9952,-2.977,-2.9973,-3.0389,-3.0402,-2.9398,-2.9178,-2.879,-2.884,-2.8358,-2.7982,-2.8467,-2.9252,-2.9585,-2.93,-2.8979,-2.9009,-2.8933,-2.8514,-2.8514,-2.8514,-2.8404,-2.804,-2.7814,-2.778,-2.7795,-2.778,-2.7731,-2.7926,-2.7975,-2.7599,-2.7294,-2.7143,-2.6686,-2.6147,-2.5809,-2.5714,-2.5714,-2.5659,-2.5453,-2.5837,-2.6916,-2.7342,-2.7034,-2.6549,-2.6443,-2.6108,-2.5877,-2.5892,-2.5783,-2.5439,-2.5023,-2.4818,-2.4625,-2.4366,-2.4162,-2.4099,-2.4086,-2.379,-2.3621,-2.3393,-2.2739,-2.1761,-2.086,-2.0861,-2.0835,-2.0693,-2.0495,-2.0508,-2.0508,-2.0357,-2.0219,-2.0232,-2.0144,-1.9991,-1.9888,-1.9773,-1.949,-1.9178,-1.8732,-1.8626,-1.8359,-1.7379,-1.6655,-1.5573,-1.3665,-1.2395,-1.2135,-1.152,-1.0732,-1.1162,-1.1897,-1.1589,-1.1155,-1.0349,-0.9603,-0.9163,-0.8784,-2.9318,-2.9112,-2.9911,-3.0185,-2.9966,-2.9689,-2.9723,-2.9887,-2.9642,-2.9692,-2.9902,-2.9954,-2.9674,-2.9282,-2.8972,-2.8795,-2.8603,-2.859,-2.8384,-2.8721,-2.9154,-2.9165,-2.8361,-2.7703,-2.7827,-2.7856,-2.7346,-2.7011,-2.7089,-2.753,-2.8196,-2.8403,-2.7614,-2.7713,-2.7859,-2.737,-2.6988,-2.732,-2.7003,-2.6784,-2.6733,-2.6718,-2.6718,-2.6755,-2.674,-2.674,-2.6704,-2.6399,-2.614,-2.6048,-2.5781,-2.5398,-2.5007,-2.5007,-2.5007,-2.5007,-2.4951,-2.5398,-2.6361,-2.6745,-2.664,-2.6108,-2.5728,-2.5342,-2.4667,-2.4838,-2.4951,-2.4667,-2.4296,-2.397,-2.366,-2.3124,-2.2792,-2.2625,-2.2443,-2.2043,-2.1704,-2.1631,-2.14,-2.0592,-1.9748,-1.9011,-1.9061,-1.9095,-1.9137,-1.919,-1.9254,-1.9307,-1.9307,-1.9359,-1.9125,-1.8967,-1.885,-1.8744,-1.8519,-1.8197,-1.7818,-1.7159,-1.6881,-1.5987,-1.4694,-1.3569,-1.2081,-1.1119,-1.0398,-0.9844,-0.9285,-1.0027,-1.058,-1.0084,-0.9533,-0.8843,-0.8221,-0.7772,-0.6911,-2.6611,-2.5793,-2.8928,-2.9667,-2.9,-2.9489,-2.9334,-2.8864,-2.8912,-2.8861,-2.883,-2.8965,-2.8578,-2.8294,-2.8009,-2.7771,-2.747,-2.751,-2.7292,-2.7329,-2.7551,-2.7233,-2.6684,-2.6626,-2.6935,-2.6619,-2.609,-2.6098,-2.6172,-2.5713,-2.5889,-2.5645,-2.5901,-2.5727,-2.5835,-2.5969,-2.5576,-2.5739,-2.5466,-2.548,-2.5494,-2.5494,-2.5494,-2.5508,-2.5522,-2.5536,-2.5536,-2.5356,-2.5301,-2.5301,-2.5092,-2.5063,-2.4738,-2.4724,-2.4724,-2.4724,-2.4724,-2.4993,-2.5315,-2.5645,-2.5273,-2.4894,-2.4794,-2.4724,-2.3975,-2.4163,-2.406,-2.3374,-2.3005,-2.2761,-2.2377,-2.1958,-2.1713,-2.1237,-2.0915,-2.0336,-2.0139,-2.0161,-1.9877,-1.9316,-1.8502,-1.7469,-1.6932,-1.6922,-1.7981,-1.8209,-1.8394,-1.8447,-1.8286,-1.8274,-1.7927,-1.7752,-1.7698,-1.7522,-1.7412,-1.6815,-1.5756,-1.4917,-1.4455,-1.3186,-1.1684,-1.0746,-1.0532,-0.956,-0.8832,-0.8334,-0.7962,-0.8264,-0.8452,-0.8275,-0.7897,-0.7246,-0.6798,-0.6416,-0.5209,-2.5631,-2.5346,-2.6637,-2.6959,-2.6656,-2.6846,-2.6809,-2.6672,-2.6672,-2.6672,-2.6705,-2.6672,-2.6559,-2.6406,-2.6351,-2.6273,-2.6062,-2.6046,-2.562,-2.5461,-2.5512,-2.5213,-2.4722,-2.4172,-2.4069,-2.4515,-2.4504,-2.4404,-2.4284,-2.4071,-2.4034,-2.4092,-2.4368,-2.5063,-2.5175,-2.4838,-2.4439,-2.4092,-2.3975,-2.3975,-2.3989,-2.3975,-2.3975,-2.3975,-2.3989,-2.3989,-2.3975,-2.3989,-2.3989,-2.3989,-2.3975,-2.3975,-2.3962,-2.3962,-2.3949,-2.3949,-2.3962,-2.3774,-2.3761,-2.4399,-2.5007,-2.4394,-2.4105,-2.3682,-2.2955,-2.2834,-2.2396,-2.1894,-2.1424,-2.1018,-2.1127,-2.0986,-2.0807,-2.0118,-1.935,-1.8749,-1.837,-1.8419,-1.7697,-1.6917,-1.6166,-1.5267,-1.4888,-1.4641,-1.6001,-1.7213,-1.7457,-1.7457,-1.7036,-1.6714,-1.6213,-1.5833,-1.5719,-1.4984,-1.4744,-1.4136,-1.3532,-1.2889,-1.2132,-1.0972,-0.9881,-0.9831,-0.9427,-0.8318,-0.7442,-0.706,-0.6741,-0.649,-0.6622,-0.7073,-0.6605,-0.5679,-0.5296,-0.477,-0.3418,-2.4296,-2.4174,-2.4174,-2.457,-2.5128,-2.498,-2.4886,-2.4886,-2.4729,-2.4642,-2.4658,-2.4658,-2.4538,-2.4443,-2.4393,-2.4246,-2.4116,-2.4017,-2.3649,-2.354,-2.3584,-2.338,-2.2325,-2.1529,-2.1429,-2.2335,-2.2566,-2.2426,-2.2593,-2.2273,-2.2262,-2.2469,-2.2955,-2.3572,-2.4323,-2.3962,-2.328,-2.2871,-2.2433,-2.2823,-2.2944,-2.2616,-2.2616,-2.2604,-2.2543,-2.2347,-2.2347,-2.2347,-2.2347,-2.2347,-2.2347,-2.2372,-2.2347,-2.2335,-2.2384,-2.2323,-2.2262,-2.2065,-2.2127,-2.2664,-2.3735,-2.293,-2.2592,-2.2113,-2.1604,-2.1032,-2.0081,-1.9705,-1.9239,-1.8826,-1.8819,-1.8236,-1.8004,-1.7064,-1.7536,-1.7084,-1.6587,-1.6331,-1.5341,-1.4371,-1.4016,-1.4204,-1.3853,-1.3657,-1.4177,-1.5071,-1.4781,-1.4772,-1.4704,-1.4326,-1.3988,-1.3617,-1.3364,-1.2522,-1.1669,-1.1745,-1.1699,-1.096,-1.024,-0.9485,-0.8681,-0.8489,-0.805,-0.712,-0.6358,-0.5903,-0.5292,-0.4683,-0.5359,-0.6312,-0.5502,-0.4558,-0.2202,-0.1537,-0.1002,-2.2249,-2.1791,-2.181,-2.3069,-2.4658,-2.4467,-2.4138,-2.3974,-2.358,-2.3353,-2.3368,-2.3353,-2.3111,-2.2805,-2.2878,-2.2597,-2.2218,-2.2062,-2.1796,-2.1744,-2.2164,-2.1876,-2.0744,-1.9712,-1.95,-2.0926,-2.1016,-2.081,-2.095,-2.0468,-2.0375,-2.0448,-2.07,-2.1549,-2.2907,-2.2384,-2.1951,-2.1815,-2.1152,-2.1803,-2.2223,-2.1565,-2.1479,-2.1616,-2.1416,-2.1164,-2.1164,-2.1164,-2.1164,-2.1152,-2.1198,-2.1198,-2.1089,-2.0928,-2.0791,-2.0576,-2.0595,-2.0542,-2.047,-2.061,-2.0426,-2.0583,-2.037,-1.9835,-1.9814,-1.8937,-1.7703,-1.7293,-1.6421,-1.5183,-1.4681,-1.4764,-1.5069,-1.5272,-1.5842,-1.5599,-1.5057,-1.4576,-1.369,-1.2666,-1.3274,-1.3794,-1.3317,-1.2972,-1.2858,-1.2879,-1.2265,-1.2173,-1.2453,-1.2079,-1.1791,-1.1615,-1.1363,-1.0367,-0.9762,-1.0019,-0.9857,-0.9105,-0.8146,-0.7149,-0.6506,-0.599,-0.5613,-0.5376,-0.4691,-0.3811,-0.3209,-0.2676,-0.2737,-0.2734,-0.4092,-0.322,-0.0468,0.1539,0.1806,-2.0384,-2.0226,-2.0226,-2.0664,-2.1514,-2.2252,-2.2536,-2.2505,-2.2369,-2.2218,-2.2264,-2.2249,-2.2172,-2.2016,-2.1815,-2.1472,-2.0979,-2.093,-2.0735,-1.9889,-2.0822,-2.0232,-1.9165,-1.8289,-1.8167,-1.9109,-1.9194,-1.8881,-1.9044,-1.8592,-1.8307,-1.8312,-1.8489,-1.9595,-2.0837,-2.1089,-2.1066,-2.1037,-2.0778,-2.0892,-2.1314,-2.0775,-2.0429,-2.0749,-2.0353,-2.0084,-2.0009,-1.9792,-1.9857,-1.9955,-2.0063,-2.0324,-2.0073,-1.9834,-1.9372,-1.8798,-1.8546,-1.7605,-1.6303,-1.5566,-1.6296,-1.7187,-1.7656,-1.688,-1.5815,-1.5317,-1.4935,-1.494,-1.4297,-1.3909,-1.5283,-1.5381,-1.5552,-1.5218,-1.5227,-1.4367,-1.3748,-1.3255,-1.2553,-1.143,-1.1345,-1.1503,-1.1261,-1.0793,-1.0759,-1.1689,-1.1471,-1.1363,-1.1559,-1.0409,-0.9681,-0.968,-0.9348,-0.8388,-0.7812,-0.7639,-0.7782,-0.7326,-0.58,-0.4262,-0.3749,-0.3084,-0.2809,-0.2335,-0.2002,-0.1603,-0.0734,0.0133,0.1336,0.1337,0.0133,-0.0533,0.1535,0.3349,0.4167,-1.8266,-1.8007,-1.8019,-1.8019,-1.8283,-1.9889,-2.0502,-2.033,-2.028,-2.028,-2.028,-2.0267,-2.0217,-2.0217,-2.0217,-2.0116,-1.9571,-1.952,-1.9366,-1.8436,-1.9492,-1.8849,-1.7611,-1.6479,-1.6172,-1.6785,-1.6746,-1.6486,-1.6432,-1.6513,-1.6321,-1.6135,-1.6158,-1.6931,-1.81,-1.8555,-1.8968,-1.8678,-1.8314,-1.8091,-1.8322,-1.8081,-1.7514,-1.7628,-1.7561,-1.7379,-1.7523,-1.7658,-1.7792,-1.8041,-1.8332,-1.8516,-1.8012,-1.7625,-1.6959,-1.612,-1.5508,-1.4624,-1.3467,-1.227,-1.3452,-1.5151,-1.4606,-1.4073,-1.3258,-1.3251,-1.3186,-1.3039,-1.2278,-1.2526,-1.3181,-1.3502,-1.187,-1.1352,-1.0126,-0.9165,-0.8398,-0.7639,-0.74,-0.6631,-0.6965,-0.7558,-0.8459,-0.8668,-0.8339,-0.959,-1.0786,-1.0378,-0.9725,-0.8339,-0.7163,-0.7242,-0.6828,-0.5771,-0.5124,-0.4935,-0.5084,-0.5326,-0.3761,-0.1805,-0.0134,0.0601,0.0667,0.0733,0.1267,0.1735,0.2202,0.3074,0.4008,0.4674,0.459,0.4259,0.4278,0.5024,0.6047,-1.5894,-1.5205,-1.5148,-1.5215,-1.5548,-1.7334,-1.7955,-1.7544,-1.7599,-1.7599,-1.7599,-1.7763,-1.7861,-1.7654,-1.7599,-1.7577,-1.7445,-1.7456,-1.7247,-1.7202,-1.7409,-1.6694,-1.5753,-1.4396,-1.4418,-1.404,-1.4054,-1.4504,-1.3781,-1.3743,-1.3911,-1.4023,-1.4049,-1.4454,-1.4999,-1.5595,-1.6301,-1.6328,-1.585,-1.5957,-1.6376,-1.4812,-1.4668,-1.4566,-1.4285,-1.3838,-1.3603,-1.3431,-1.3304,-1.3506,-1.3818,-1.3373,-1.3177,-1.3307,-1.2763,-1.2648,-1.2424,-1.1261,-1.1156,-1.0007,-0.9321,-1.0404,-1.1723,-1.2191,-1.139,-0.9793,-0.8856,-0.874,-0.8129,-0.8387,-0.8765,-0.6479,-0.4247,-0.3124,-0.1871,-0.1084,-0.0382,0.0,0.0143,0.0,-0.0747,-0.1595,-0.3027,-0.3666,-0.433,-0.4947,-0.5611,-0.5694,-0.5123,-0.481,-0.403,-0.4504,-0.3929,-0.2933,-0.2407,-0.2006,-0.2074,-0.2275,-0.127,0.0534,0.2344,0.3489,0.2947,0.3078,0.4361,0.4967,0.4869,0.5467,0.6416,0.6946,0.6915,0.6719,0.6125,0.6793,0.7615,-1.4385,-1.4143,-1.3796,-1.3629,-1.3648,-1.3939,-1.4732,-1.5806,-1.591,-1.5863,-1.593,-1.6637,-1.6492,-1.593,-1.593,-1.5598,-1.5331,-1.5042,-1.4662,-1.4756,-1.5271,-1.4575,-1.3819,-1.3082,-1.3114,-1.3405,-1.3462,-1.2672,-1.2623,-1.2055,-1.1211,-1.1625,-1.1036,-1.1397,-1.1799,-1.2584,-1.3446,-1.4126,-1.3537,-1.4522,-1.4976,-1.4099,-1.3561,-1.3107,-1.2634,-1.2076,-1.1592,-1.1553,-1.1804,-1.2892,-1.2658,-1.2303,-1.2282,-1.0178,-0.8704,-1.138,-0.9057,-0.6106,-0.6988,-0.487,-0.3398,-0.3943,-0.4301,-0.4934,-0.4543,-0.3984,-0.2751,-0.2446,-0.2671,-0.2512,-0.2367,-0.0695,0.1385,0.2895,0.3958,0.4605,0.5285,0.6072,0.6097,0.5519,0.4795,0.3881,0.2465,0.1237,0.0652,0.0197,-0.0066,-0.0264,-0.0665,-0.0333,-0.0734,-0.1201,-0.1134,-0.0133,0.0668,0.1202,0.1002,0.1002,0.2002,0.2802,0.3954,0.477,0.4637,0.5033,0.576,0.6544,0.7116,0.7717,0.8112,0.8112,0.8091,0.8096,0.8172,0.8635,0.8835,-1.2304,-1.0478,-1.0104,-0.9996,-1.013,-1.1136,-1.2352,-1.3364,-1.4073,-1.4323,-1.4409,-1.5176,-1.5079,-1.44,-1.4187,-1.4064,-1.4114,-1.4183,-1.3908,-1.3621,-1.3554,-1.38,-1.3149,-1.1987,-1.1936,-1.2107,-1.1115,-0.9506,-0.9327,-0.7668,-0.6453,-0.7551,-0.7154,-0.6731,-0.6933,-0.7817,-0.8523,-0.9863,-1.1172,-1.3164,-1.3504,-1.3122,-1.2446,-1.1742,-1.1266,-1.0325,-0.9789,-0.9608,-0.9985,-1.0578,-0.9806,-0.928,-0.8444,-0.5614,-0.4271,-0.6073,-0.4518,-0.2327,-0.2174,-0.1551,0.0622,0.2024,0.2489,0.2865,0.224,0.2385,0.3851,0.486,0.4449,0.4206,0.4229,0.4619,0.6406,0.8138,0.8841,0.9532,1.0502,1.1478,1.1211,1.0658,0.9895,0.9134,0.7935,0.6492,0.5701,0.5614,0.5735,0.5876,0.4866,0.3853,0.3133,0.2272,0.2272,0.2676,0.3413,0.3877,0.3544,0.3732,0.4979,0.5731,0.6238,0.6486,0.6711,0.6715,0.6859,0.7632,0.8522,0.8907,0.9233,0.936,0.9869,1.0305,1.0123,0.9773,0.9894,-0.9186,-0.4922,-0.4599,-0.4454,-0.5062,-0.7697,-0.915,-0.9934,-1.0767,-1.2257,-1.2642,-1.3317,-1.3247,-1.2744,-1.2458,-1.2715,-1.2515,-1.2329,-1.149,-1.2185,-1.2292,-1.2123,-1.1141,-1.0808,-0.9168,-0.8327,-0.7024,-0.4964,-0.3454,-0.1365,-0.0065,-0.2257,-0.1028,-0.0065,0.0262,-0.1386,-0.1997,-0.2426,-0.5189,-0.771,-0.9552,-0.9499,-0.8553,-0.8001,-0.6941,-0.5813,-0.5587,-0.5444,-0.5378,-0.5584,-0.5636,-0.516,-0.2515,-0.0509,0.0224,0.023,0.0618,0.1241,0.2017,0.2558,0.3801,0.5378,0.6743,0.7732,0.7501,0.6576,0.7585,0.9601,0.9343,0.8714,0.8586,0.9038,1.0419,1.0996,1.1317,1.1486,1.1711,1.2302,1.2054,1.1667,1.1611,1.0982,1.0593,0.8977,0.8455,0.9592,0.968,0.9895,0.9388,0.7678,0.6898,0.5851,0.5709,0.569,0.5654,0.5924,0.5756,0.628,0.7251,0.7386,0.7077,0.7762,0.8815,0.8698,0.8575,0.9076,0.9711,1.0286,1.0857,1.1231,1.1796,1.2565,1.2389,1.1461,1.1149,-0.2403,-0.1034,0.1628,0.2278,0.1358,0.0517,-0.1029,-0.2491,-0.2912,-0.6026,-1.0392,-1.1063,-1.1035,-1.0474,-0.9901,-1.0066,-1.0392,-0.859,-0.7495,-0.6957,-0.7548,-0.7404,-0.7075,-0.614,-0.4938,-0.3012,-0.1306,0.0391,0.2604,0.551,0.7558,0.666,0.5936,0.5064,0.7168,0.5578,0.514,0.4188,0.3735,0.0067,-0.2751,-0.3158,-0.2651,-0.2175,-0.1336,-0.1402,-0.1118,-0.0694,-0.1784,-0.299,-0.3387,-0.1152,0.3027,0.4947,0.5456,0.4991,0.473,0.5143,0.5708,0.6467,0.7929,0.8755,0.9969,1.073,1.0797,0.984,1.0344,1.2614,1.3394,1.2678,1.26,1.3186,1.3592,1.3525,1.3579,1.3212,1.2897,1.2753,1.2633,1.2715,1.2821,1.2647,1.2456,1.2074,1.1567,1.1057,1.0483,1.0421,1.0843,1.0019,1.0207,0.9367,0.9024,0.8897,0.8372,0.7683,0.7307,0.7377,0.8076,0.8027,0.8037,0.8965,1.0014,1.0273,1.0405,1.0774,1.1279,1.2051,1.2557,1.2854,1.3028,1.3537,1.3606,1.2931,1.2696,0.5363,0.5032,0.682,0.7298,0.672,0.6647,0.5879,0.4858,0.472,0.2523,-0.1953,-0.5564,-0.7421,-0.5603,-0.4344,-0.5032,-0.5305,-0.3975,-0.1947,-0.1042,-0.0849,-0.0587,-0.0587,-0.0717,0.0391,0.2289,0.4265,0.627,0.8184,0.9624,1.0836,1.1065,0.9319,0.9585,1.1843,1.144,1.0566,0.8941,1.1083,0.9099,0.4741,0.4486,0.4456,0.4704,0.4094,0.354,0.3057,0.365,0.3966,0.3387,0.365,0.4281,0.7113,0.8278,0.8896,0.8805,0.8638,0.8626,0.9148,1.0228,1.1655,1.2044,1.2317,1.2873,1.4085,1.3187,1.2265,1.3941,1.2795,1.204,1.3328,1.4112,1.4306,1.4369,1.5195,1.5566,1.5438,1.5338,1.5347,1.5397,1.5408,1.5408,1.5264,1.5206,1.4762,1.4704,1.377,1.3348,1.3288,1.2666,1.2802,1.2518,1.1913,1.0463,0.8995,0.8681,0.8617,0.8756,0.9151,1.009,1.0718,1.0843,1.1148,1.1581,1.202,1.2411,1.2984,1.3485,1.3906,1.4195,1.4255,1.4323,1.4332,1.4273,1.4094,1.1954,1.1002,1.0853,1.0853,1.086,1.0853,1.069,1.069,1.0768,1.069,0.8941,0.0824,-0.0568,0.184,0.4083,0.3075,0.2383,0.2203,0.3786,0.4863,0.5477,0.5459,0.5723,0.6132,0.6444,0.7228,0.8924,1.018,1.1556,1.2203,1.2266,1.2528,1.3009,1.3476,1.3544,1.3449,1.2732,1.2725,1.3585,1.3872,1.2834,1.1866,1.0631,0.9947,0.9349,0.7766,0.7209,0.762,0.9248,0.9498,0.9574,1.0386,1.0288,1.0889,1.1358,1.1502,1.168,1.1687,1.2128,1.3127,1.3858,1.4206,1.443,1.5265,1.6568,1.6416,1.5396,1.4682,1.3566,1.3276,1.4558,1.5151,1.5413,1.5623,1.6686,1.744,1.7412,1.7389,1.7445,1.7478,1.7501,1.7446,1.749,1.7544,1.7556,1.7633,1.7688,1.7633,1.7136,1.6069,1.5509,1.483,1.4006,1.2261,1.047,1.0177,1.0552,1.0454,1.0975,1.2403,1.327,1.2708,1.2586,1.3132,1.358,1.3888,1.4136,1.4442,1.4923,1.5167,1.4991,1.4874,1.4932,1.4932,1.5177,1.3248,1.253,1.253,1.2583,1.2583,1.2514,1.2522,1.2514,1.2522,1.2522,1.1851,1.1001,0.9675,1.0373,0.9524,0.8548,0.7619,0.7614,0.8317,0.9498,0.9203,1.018,1.0701,1.0281,1.1573,1.2102,1.2236,1.2536,1.3717,1.3433,1.3554,1.4552,1.4591,1.485,1.4955,1.506,1.5605,1.5556,1.578,1.6263,1.5622,1.4354,1.2834,1.2112,1.1578,1.0961,1.0691,1.0767,0.9912,1.0125,1.2189,1.3702,1.3781,1.3235,1.3424,1.4241,1.4443,1.4504,1.4996,1.6067,1.6668,1.7124,1.7666,1.8622,1.9356,1.9167,1.8608,1.8518,1.7523,1.6549,1.722,1.7194,1.7368,1.7342,1.7961,1.8007,1.8008,1.7984,1.8058,1.8074,1.8047,1.8035,1.8078,1.8078,1.8089,1.8101,1.8112,1.8058,1.8058,1.7981,1.7989,1.7015,1.5966,1.5052,1.3707,1.291,1.2866,1.2647,1.2655,1.3673,1.4177,1.3846,1.3957,1.4632,1.5002,1.5255,1.5449,1.5497,1.5342,1.5468,1.541,1.5352,1.5468,1.5584,1.5748]}]]